<?xml version="1.0" encoding="UTF-8" standalone="no" ?>
<gpx xmlns="http://www.topografix.com/GPX/1/1" xmlns:xsi="http://www.w3.org/2001/XMLSchema-instance" xsi:schemaLocation="http://www.topografix.com/GPX/1/1 http://www.topografix.com/GPX/1/1/gpx.xsd" version="1.1" creator="VisuGPX - https://www.visugpx.com">
  <metadata>
    <name>Randonnées Biertoises : pic de la Journalade depuis le col de Port</name>
    <desc><![CDATA[Randonnée près de Biert et Massat, dans le Couserans en Ariège (Pyrénées).
Départ col de Port
Arrivée Pic de la Journalade]]></desc>
  </metadata>
  <trk>
    <name><![CDATA[31/10/2015 10:37]]></name>
    <desc><![CDATA[]]></desc>
    <trkseg>
      <trkpt lat="42.89941" lon="1.45262">
        <ele>1242.1</ele>
        <time>2015-10-31T09:37:01.018Z</time>
      </trkpt>
      <trkpt lat="42.89941" lon="1.45262">
        <ele>1242.1</ele>
        <time>2015-10-31T09:37:09.634Z</time>
      </trkpt>
      <trkpt lat="42.89937" lon="1.45254">
        <ele>1265</ele>
        <time>2015-10-31T09:37:30.898Z</time>
      </trkpt>
      <trkpt lat="42.89924" lon="1.45255">
        <ele>1234</ele>
        <time>2015-10-31T09:37:31.879Z</time>
      </trkpt>
      <trkpt lat="42.89924" lon="1.45255">
        <ele>1234</ele>
        <time>2015-10-31T09:37:31.901Z</time>
      </trkpt>
      <trkpt lat="42.89923" lon="1.45256">
        <ele>1234.3</ele>
        <time>2015-10-31T09:39:27.913Z</time>
      </trkpt>
      <trkpt lat="42.8993" lon="1.45255">
        <ele>1240.2</ele>
        <time>2015-10-31T09:39:28.887Z</time>
      </trkpt>
      <trkpt lat="42.89923" lon="1.45261">
        <ele>1240.8</ele>
        <time>2015-10-31T09:39:36.914Z</time>
      </trkpt>
      <trkpt lat="42.89922" lon="1.45262">
        <ele>1241</ele>
        <time>2015-10-31T09:39:37.889Z</time>
      </trkpt>
      <trkpt lat="42.89915" lon="1.45266">
        <ele>1241.5</ele>
        <time>2015-10-31T09:39:41.915Z</time>
      </trkpt>
      <trkpt lat="42.89913" lon="1.45267">
        <ele>1241.7</ele>
        <time>2015-10-31T09:39:42.887Z</time>
      </trkpt>
      <trkpt lat="42.89906" lon="1.45271">
        <ele>1242.2</ele>
        <time>2015-10-31T09:39:47.916Z</time>
      </trkpt>
      <trkpt lat="42.89905" lon="1.45272">
        <ele>1242.3</ele>
        <time>2015-10-31T09:39:48.887Z</time>
      </trkpt>
      <trkpt lat="42.89896" lon="1.45275">
        <ele>1242.8</ele>
        <time>2015-10-31T09:39:54.915Z</time>
      </trkpt>
      <trkpt lat="42.89895" lon="1.45275">
        <ele>1242.8</ele>
        <time>2015-10-31T09:39:55.890Z</time>
      </trkpt>
      <trkpt lat="42.89887" lon="1.45275">
        <ele>1242.9</ele>
        <time>2015-10-31T09:39:59.914Z</time>
      </trkpt>
      <trkpt lat="42.89885" lon="1.45274">
        <ele>1243</ele>
        <time>2015-10-31T09:40:00.887Z</time>
      </trkpt>
      <trkpt lat="42.89877" lon="1.45276">
        <ele>1243.1</ele>
        <time>2015-10-31T09:40:05.913Z</time>
      </trkpt>
      <trkpt lat="42.89875" lon="1.45276">
        <ele>1243.1</ele>
        <time>2015-10-31T09:40:06.904Z</time>
      </trkpt>
      <trkpt lat="42.89868" lon="1.45283">
        <ele>1243.4</ele>
        <time>2015-10-31T09:40:12.913Z</time>
      </trkpt>
      <trkpt lat="42.89866" lon="1.45284">
        <ele>1243.6</ele>
        <time>2015-10-31T09:40:13.890Z</time>
      </trkpt>
      <trkpt lat="42.89858" lon="1.45287">
        <ele>1244.7</ele>
        <time>2015-10-31T09:40:19.916Z</time>
      </trkpt>
      <trkpt lat="42.89856" lon="1.45287">
        <ele>1244.9</ele>
        <time>2015-10-31T09:40:20.887Z</time>
      </trkpt>
      <trkpt lat="42.89848" lon="1.4529">
        <ele>1245.8</ele>
        <time>2015-10-31T09:40:26.927Z</time>
      </trkpt>
      <trkpt lat="42.89846" lon="1.4529">
        <ele>1245.9</ele>
        <time>2015-10-31T09:40:27.887Z</time>
      </trkpt>
      <trkpt lat="42.89839" lon="1.45292">
        <ele>1246.7</ele>
        <time>2015-10-31T09:40:33.022Z</time>
      </trkpt>
      <trkpt lat="42.89837" lon="1.45292">
        <ele>1246.8</ele>
        <time>2015-10-31T09:40:33.888Z</time>
      </trkpt>
      <trkpt lat="42.8983" lon="1.45294">
        <ele>1247.7</ele>
        <time>2015-10-31T09:40:38.914Z</time>
      </trkpt>
      <trkpt lat="42.89829" lon="1.45295">
        <ele>1247.8</ele>
        <time>2015-10-31T09:40:39.886Z</time>
      </trkpt>
      <trkpt lat="42.89821" lon="1.45299">
        <ele>1248.6</ele>
        <time>2015-10-31T09:40:44.913Z</time>
      </trkpt>
      <trkpt lat="42.89819" lon="1.45299">
        <ele>1248.7</ele>
        <time>2015-10-31T09:40:45.888Z</time>
      </trkpt>
      <trkpt lat="42.89812" lon="1.45303">
        <ele>1249.3</ele>
        <time>2015-10-31T09:40:50.915Z</time>
      </trkpt>
      <trkpt lat="42.89811" lon="1.45304">
        <ele>1249.5</ele>
        <time>2015-10-31T09:40:51.888Z</time>
      </trkpt>
      <trkpt lat="42.89803" lon="1.45309">
        <ele>1250.5</ele>
        <time>2015-10-31T09:40:57.913Z</time>
      </trkpt>
      <trkpt lat="42.89802" lon="1.45309">
        <ele>1250.7</ele>
        <time>2015-10-31T09:40:58.887Z</time>
      </trkpt>
      <trkpt lat="42.89795" lon="1.45316">
        <ele>1252</ele>
        <time>2015-10-31T09:41:06.913Z</time>
      </trkpt>
      <trkpt lat="42.89793" lon="1.45317">
        <ele>1252</ele>
        <time>2015-10-31T09:41:07.888Z</time>
      </trkpt>
      <trkpt lat="42.89786" lon="1.45322">
        <ele>1252.9</ele>
        <time>2015-10-31T09:41:13.977Z</time>
      </trkpt>
      <trkpt lat="42.89785" lon="1.45323">
        <ele>1253.1</ele>
        <time>2015-10-31T09:41:14.890Z</time>
      </trkpt>
      <trkpt lat="42.89778" lon="1.45327">
        <ele>1254</ele>
        <time>2015-10-31T09:41:21.918Z</time>
      </trkpt>
      <trkpt lat="42.89777" lon="1.45328">
        <ele>1254.2</ele>
        <time>2015-10-31T09:41:22.889Z</time>
      </trkpt>
      <trkpt lat="42.89769" lon="1.45332">
        <ele>1255.3</ele>
        <time>2015-10-31T09:41:30.916Z</time>
      </trkpt>
      <trkpt lat="42.89768" lon="1.45332">
        <ele>1255.4</ele>
        <time>2015-10-31T09:41:31.890Z</time>
      </trkpt>
      <trkpt lat="42.8976" lon="1.45337">
        <ele>1256.9</ele>
        <time>2015-10-31T09:41:40.914Z</time>
      </trkpt>
      <trkpt lat="42.89759" lon="1.45337">
        <ele>1257.1</ele>
        <time>2015-10-31T09:41:41.888Z</time>
      </trkpt>
      <trkpt lat="42.89751" lon="1.45343">
        <ele>1258.8</ele>
        <time>2015-10-31T09:41:50.919Z</time>
      </trkpt>
      <trkpt lat="42.8975" lon="1.45343">
        <ele>1259</ele>
        <time>2015-10-31T09:41:51.888Z</time>
      </trkpt>
      <trkpt lat="42.89743" lon="1.45348">
        <ele>1260.3</ele>
        <time>2015-10-31T09:41:58.915Z</time>
      </trkpt>
      <trkpt lat="42.89742" lon="1.45348">
        <ele>1260.5</ele>
        <time>2015-10-31T09:41:59.888Z</time>
      </trkpt>
      <trkpt lat="42.89734" lon="1.45355">
        <ele>1261.9</ele>
        <time>2015-10-31T09:42:07.035Z</time>
      </trkpt>
      <trkpt lat="42.89734" lon="1.45355">
        <ele>1262.2</ele>
        <time>2015-10-31T09:42:07.890Z</time>
      </trkpt>
      <trkpt lat="42.89728" lon="1.45363">
        <ele>1264.7</ele>
        <time>2015-10-31T09:42:17.916Z</time>
      </trkpt>
      <trkpt lat="42.89727" lon="1.45364">
        <ele>1264.8</ele>
        <time>2015-10-31T09:42:18.888Z</time>
      </trkpt>
      <trkpt lat="42.89719" lon="1.45368">
        <ele>1267.1</ele>
        <time>2015-10-31T09:42:27.035Z</time>
      </trkpt>
      <trkpt lat="42.89718" lon="1.45369">
        <ele>1267.4</ele>
        <time>2015-10-31T09:42:27.890Z</time>
      </trkpt>
      <trkpt lat="42.89711" lon="1.45375">
        <ele>1269.9</ele>
        <time>2015-10-31T09:42:35.916Z</time>
      </trkpt>
      <trkpt lat="42.8971" lon="1.45375">
        <ele>1270.1</ele>
        <time>2015-10-31T09:42:36.890Z</time>
      </trkpt>
      <trkpt lat="42.89702" lon="1.45381">
        <ele>1273.1</ele>
        <time>2015-10-31T09:42:47.921Z</time>
      </trkpt>
      <trkpt lat="42.89702" lon="1.45381">
        <ele>1273.6</ele>
        <time>2015-10-31T09:42:48.888Z</time>
      </trkpt>
      <trkpt lat="42.89693" lon="1.45385">
        <ele>1276.4</ele>
        <time>2015-10-31T09:42:55.915Z</time>
      </trkpt>
      <trkpt lat="42.89692" lon="1.45385">
        <ele>1276.7</ele>
        <time>2015-10-31T09:42:56.889Z</time>
      </trkpt>
      <trkpt lat="42.89684" lon="1.4539">
        <ele>1278.7</ele>
        <time>2015-10-31T09:43:03.915Z</time>
      </trkpt>
      <trkpt lat="42.89683" lon="1.45391">
        <ele>1278.9</ele>
        <time>2015-10-31T09:43:04.888Z</time>
      </trkpt>
      <trkpt lat="42.89675" lon="1.45395">
        <ele>1280.8</ele>
        <time>2015-10-31T09:43:10.915Z</time>
      </trkpt>
      <trkpt lat="42.89674" lon="1.45395">
        <ele>1281.1</ele>
        <time>2015-10-31T09:43:11.888Z</time>
      </trkpt>
      <trkpt lat="42.89668" lon="1.45404">
        <ele>1283</ele>
        <time>2015-10-31T09:43:17.915Z</time>
      </trkpt>
      <trkpt lat="42.89668" lon="1.45404">
        <ele>1283.2</ele>
        <time>2015-10-31T09:43:18.888Z</time>
      </trkpt>
      <trkpt lat="42.89663" lon="1.45393">
        <ele>1285.1</ele>
        <time>2015-10-31T09:43:28.933Z</time>
      </trkpt>
      <trkpt lat="42.89663" lon="1.45392">
        <ele>1285.2</ele>
        <time>2015-10-31T09:43:29.888Z</time>
      </trkpt>
      <trkpt lat="42.89661" lon="1.45381">
        <ele>1286.9</ele>
        <time>2015-10-31T09:43:39.917Z</time>
      </trkpt>
      <trkpt lat="42.89662" lon="1.4538">
        <ele>1287.4</ele>
        <time>2015-10-31T09:43:40.889Z</time>
      </trkpt>
      <trkpt lat="42.89658" lon="1.45369">
        <ele>1289.4</ele>
        <time>2015-10-31T09:43:56.915Z</time>
      </trkpt>
      <trkpt lat="42.89658" lon="1.45368">
        <ele>1289.5</ele>
        <time>2015-10-31T09:43:57.888Z</time>
      </trkpt>
      <trkpt lat="42.89658" lon="1.45356">
        <ele>1290.2</ele>
        <time>2015-10-31T09:44:05.913Z</time>
      </trkpt>
      <trkpt lat="42.89659" lon="1.45354">
        <ele>1290.3</ele>
        <time>2015-10-31T09:44:06.888Z</time>
      </trkpt>
      <trkpt lat="42.89658" lon="1.45342">
        <ele>1290.8</ele>
        <time>2015-10-31T09:44:14.916Z</time>
      </trkpt>
      <trkpt lat="42.89658" lon="1.4534">
        <ele>1290.9</ele>
        <time>2015-10-31T09:44:15.889Z</time>
      </trkpt>
      <trkpt lat="42.89654" lon="1.4533">
        <ele>1291.8</ele>
        <time>2015-10-31T09:44:23.913Z</time>
      </trkpt>
      <trkpt lat="42.89654" lon="1.45329">
        <ele>1291.9</ele>
        <time>2015-10-31T09:44:24.903Z</time>
      </trkpt>
      <trkpt lat="42.89652" lon="1.45317">
        <ele>1293.2</ele>
        <time>2015-10-31T09:44:33.914Z</time>
      </trkpt>
      <trkpt lat="42.89651" lon="1.45315">
        <ele>1293.4</ele>
        <time>2015-10-31T09:44:34.887Z</time>
      </trkpt>
      <trkpt lat="42.89648" lon="1.45304">
        <ele>1294.5</ele>
        <time>2015-10-31T09:44:42.915Z</time>
      </trkpt>
      <trkpt lat="42.89647" lon="1.45303">
        <ele>1294.6</ele>
        <time>2015-10-31T09:44:43.890Z</time>
      </trkpt>
      <trkpt lat="42.89643" lon="1.45294">
        <ele>1296.8</ele>
        <time>2015-10-31T09:44:52.915Z</time>
      </trkpt>
      <trkpt lat="42.89643" lon="1.45292">
        <ele>1297.1</ele>
        <time>2015-10-31T09:44:53.888Z</time>
      </trkpt>
      <trkpt lat="42.8964" lon="1.45281">
        <ele>1299</ele>
        <time>2015-10-31T09:45:03.994Z</time>
      </trkpt>
      <trkpt lat="42.89639" lon="1.4528">
        <ele>1299.2</ele>
        <time>2015-10-31T09:45:04.887Z</time>
      </trkpt>
      <trkpt lat="42.89631" lon="1.45275">
        <ele>1303</ele>
        <time>2015-10-31T09:45:17.913Z</time>
      </trkpt>
      <trkpt lat="42.8963" lon="1.45273">
        <ele>1303.1</ele>
        <time>2015-10-31T09:45:18.887Z</time>
      </trkpt>
      <trkpt lat="42.89624" lon="1.45266">
        <ele>1304.7</ele>
        <time>2015-10-31T09:45:25.915Z</time>
      </trkpt>
      <trkpt lat="42.89623" lon="1.45264">
        <ele>1304.7</ele>
        <time>2015-10-31T09:45:26.887Z</time>
      </trkpt>
      <trkpt lat="42.89618" lon="1.45254">
        <ele>1306.9</ele>
        <time>2015-10-31T09:45:38.912Z</time>
      </trkpt>
      <trkpt lat="42.89618" lon="1.45253">
        <ele>1307.2</ele>
        <time>2015-10-31T09:45:39.887Z</time>
      </trkpt>
      <trkpt lat="42.89615" lon="1.45242">
        <ele>1309.9</ele>
        <time>2015-10-31T09:45:52.926Z</time>
      </trkpt>
      <trkpt lat="42.89615" lon="1.45241">
        <ele>1310.2</ele>
        <time>2015-10-31T09:45:53.887Z</time>
      </trkpt>
      <trkpt lat="42.89607" lon="1.45236">
        <ele>1313.8</ele>
        <time>2015-10-31T09:46:05.913Z</time>
      </trkpt>
      <trkpt lat="42.89606" lon="1.45235">
        <ele>1314</ele>
        <time>2015-10-31T09:46:06.903Z</time>
      </trkpt>
      <trkpt lat="42.89599" lon="1.45227">
        <ele>1317.5</ele>
        <time>2015-10-31T09:46:17.914Z</time>
      </trkpt>
      <trkpt lat="42.89598" lon="1.45226">
        <ele>1317.7</ele>
        <time>2015-10-31T09:46:18.888Z</time>
      </trkpt>
      <trkpt lat="42.89591" lon="1.45219">
        <ele>1320.3</ele>
        <time>2015-10-31T09:46:28.914Z</time>
      </trkpt>
      <trkpt lat="42.8959" lon="1.45218">
        <ele>1320.6</ele>
        <time>2015-10-31T09:46:29.887Z</time>
      </trkpt>
      <trkpt lat="42.89583" lon="1.45212">
        <ele>1323.9</ele>
        <time>2015-10-31T09:46:42.913Z</time>
      </trkpt>
      <trkpt lat="42.89582" lon="1.45211">
        <ele>1324.1</ele>
        <time>2015-10-31T09:46:43.889Z</time>
      </trkpt>
      <trkpt lat="42.89579" lon="1.45201">
        <ele>1330.1</ele>
        <time>2015-10-31T09:47:02.927Z</time>
      </trkpt>
      <trkpt lat="42.89578" lon="1.45201">
        <ele>1330.7</ele>
        <time>2015-10-31T09:47:03.887Z</time>
      </trkpt>
      <trkpt lat="42.8957" lon="1.45194">
        <ele>1333.3</ele>
        <time>2015-10-31T09:47:17.912Z</time>
      </trkpt>
      <trkpt lat="42.8957" lon="1.45194">
        <ele>1333.6</ele>
        <time>2015-10-31T09:47:18.901Z</time>
      </trkpt>
      <trkpt lat="42.89565" lon="1.45184">
        <ele>1337.9</ele>
        <time>2015-10-31T09:47:34.915Z</time>
      </trkpt>
      <trkpt lat="42.89564" lon="1.45184">
        <ele>1338.2</ele>
        <time>2015-10-31T09:47:35.888Z</time>
      </trkpt>
      <trkpt lat="42.89555" lon="1.45182">
        <ele>1341.9</ele>
        <time>2015-10-31T09:47:50.912Z</time>
      </trkpt>
      <trkpt lat="42.89555" lon="1.45182">
        <ele>1342</ele>
        <time>2015-10-31T09:47:51.887Z</time>
      </trkpt>
      <trkpt lat="42.89548" lon="1.45176">
        <ele>1346.7</ele>
        <time>2015-10-31T09:48:08.912Z</time>
      </trkpt>
      <trkpt lat="42.89547" lon="1.45175">
        <ele>1347</ele>
        <time>2015-10-31T09:48:09.902Z</time>
      </trkpt>
      <trkpt lat="42.8954" lon="1.45168">
        <ele>1351.4</ele>
        <time>2015-10-31T09:48:27.921Z</time>
      </trkpt>
      <trkpt lat="42.89539" lon="1.45167">
        <ele>1351.6</ele>
        <time>2015-10-31T09:48:28.887Z</time>
      </trkpt>
      <trkpt lat="42.89532" lon="1.45161">
        <ele>1355</ele>
        <time>2015-10-31T09:48:42.930Z</time>
      </trkpt>
      <trkpt lat="42.89531" lon="1.4516">
        <ele>1355.2</ele>
        <time>2015-10-31T09:48:43.889Z</time>
      </trkpt>
      <trkpt lat="42.89526" lon="1.45151">
        <ele>1358.7</ele>
        <time>2015-10-31T09:48:58.913Z</time>
      </trkpt>
      <trkpt lat="42.89526" lon="1.4515">
        <ele>1359</ele>
        <time>2015-10-31T09:48:59.887Z</time>
      </trkpt>
      <trkpt lat="42.89522" lon="1.4514">
        <ele>1362.3</ele>
        <time>2015-10-31T09:49:12.913Z</time>
      </trkpt>
      <trkpt lat="42.89522" lon="1.45139">
        <ele>1362.5</ele>
        <time>2015-10-31T09:49:13.890Z</time>
      </trkpt>
      <trkpt lat="42.8952" lon="1.45128">
        <ele>1365.2</ele>
        <time>2015-10-31T09:49:24.913Z</time>
      </trkpt>
      <trkpt lat="42.8952" lon="1.45127">
        <ele>1365.5</ele>
        <time>2015-10-31T09:49:25.889Z</time>
      </trkpt>
      <trkpt lat="42.89515" lon="1.45118">
        <ele>1370.2</ele>
        <time>2015-10-31T09:49:43.914Z</time>
      </trkpt>
      <trkpt lat="42.89514" lon="1.45117">
        <ele>1370.5</ele>
        <time>2015-10-31T09:49:44.887Z</time>
      </trkpt>
      <trkpt lat="42.89506" lon="1.45112">
        <ele>1375.2</ele>
        <time>2015-10-31T09:50:03.913Z</time>
      </trkpt>
      <trkpt lat="42.89505" lon="1.45112">
        <ele>1375.4</ele>
        <time>2015-10-31T09:50:04.887Z</time>
      </trkpt>
      <trkpt lat="42.89498" lon="1.45107">
        <ele>1380.5</ele>
        <time>2015-10-31T09:50:21.031Z</time>
      </trkpt>
      <trkpt lat="42.89497" lon="1.45106">
        <ele>1380.8</ele>
        <time>2015-10-31T09:50:21.887Z</time>
      </trkpt>
      <trkpt lat="42.8949" lon="1.45099">
        <ele>1384.3</ele>
        <time>2015-10-31T09:50:33.912Z</time>
      </trkpt>
      <trkpt lat="42.89489" lon="1.45099">
        <ele>1384.5</ele>
        <time>2015-10-31T09:50:34.887Z</time>
      </trkpt>
      <trkpt lat="42.8948" lon="1.45099">
        <ele>1387.6</ele>
        <time>2015-10-31T09:50:46.911Z</time>
      </trkpt>
      <trkpt lat="42.89479" lon="1.45098">
        <ele>1387.8</ele>
        <time>2015-10-31T09:50:47.898Z</time>
      </trkpt>
      <trkpt lat="42.89471" lon="1.45097">
        <ele>1390.3</ele>
        <time>2015-10-31T09:50:56.911Z</time>
      </trkpt>
      <trkpt lat="42.8947" lon="1.45096">
        <ele>1390.6</ele>
        <time>2015-10-31T09:50:57.887Z</time>
      </trkpt>
      <trkpt lat="42.89461" lon="1.45094">
        <ele>1393.7</ele>
        <time>2015-10-31T09:51:07.914Z</time>
      </trkpt>
      <trkpt lat="42.89461" lon="1.45094">
        <ele>1394</ele>
        <time>2015-10-31T09:51:08.887Z</time>
      </trkpt>
      <trkpt lat="42.89452" lon="1.45094">
        <ele>1396.2</ele>
        <time>2015-10-31T09:51:16.912Z</time>
      </trkpt>
      <trkpt lat="42.89451" lon="1.45094">
        <ele>1396.4</ele>
        <time>2015-10-31T09:51:17.887Z</time>
      </trkpt>
      <trkpt lat="42.89443" lon="1.45092">
        <ele>1398.4</ele>
        <time>2015-10-31T09:51:25.914Z</time>
      </trkpt>
      <trkpt lat="42.89441" lon="1.45092">
        <ele>1398.7</ele>
        <time>2015-10-31T09:51:26.887Z</time>
      </trkpt>
      <trkpt lat="42.89432" lon="1.45091">
        <ele>1400.3</ele>
        <time>2015-10-31T09:51:32.912Z</time>
      </trkpt>
      <trkpt lat="42.89431" lon="1.45091">
        <ele>1400.5</ele>
        <time>2015-10-31T09:51:33.887Z</time>
      </trkpt>
      <trkpt lat="42.89422" lon="1.45091">
        <ele>1402.3</ele>
        <time>2015-10-31T09:51:39.911Z</time>
      </trkpt>
      <trkpt lat="42.89421" lon="1.45091">
        <ele>1402.6</ele>
        <time>2015-10-31T09:51:40.887Z</time>
      </trkpt>
      <trkpt lat="42.89413" lon="1.45092">
        <ele>1405.4</ele>
        <time>2015-10-31T09:51:49.914Z</time>
      </trkpt>
      <trkpt lat="42.89411" lon="1.45092">
        <ele>1405.9</ele>
        <time>2015-10-31T09:51:50.887Z</time>
      </trkpt>
      <trkpt lat="42.89403" lon="1.45095">
        <ele>1403.9</ele>
        <time>2015-10-31T09:54:02.912Z</time>
      </trkpt>
      <trkpt lat="42.89402" lon="1.45096">
        <ele>1403.9</ele>
        <time>2015-10-31T09:54:03.887Z</time>
      </trkpt>
      <trkpt lat="42.89393" lon="1.45096">
        <ele>1403.6</ele>
        <time>2015-10-31T09:54:08.912Z</time>
      </trkpt>
      <trkpt lat="42.89392" lon="1.45096">
        <ele>1403.6</ele>
        <time>2015-10-31T09:54:09.887Z</time>
      </trkpt>
      <trkpt lat="42.89384" lon="1.45098">
        <ele>1403.5</ele>
        <time>2015-10-31T09:54:14.912Z</time>
      </trkpt>
      <trkpt lat="42.89382" lon="1.45098">
        <ele>1403.5</ele>
        <time>2015-10-31T09:54:15.887Z</time>
      </trkpt>
      <trkpt lat="42.89374" lon="1.451">
        <ele>1403.3</ele>
        <time>2015-10-31T09:54:21.912Z</time>
      </trkpt>
      <trkpt lat="42.89372" lon="1.45101">
        <ele>1403.3</ele>
        <time>2015-10-31T09:54:22.887Z</time>
      </trkpt>
      <trkpt lat="42.89363" lon="1.45102">
        <ele>1402.9</ele>
        <time>2015-10-31T09:54:28.912Z</time>
      </trkpt>
      <trkpt lat="42.89361" lon="1.45102">
        <ele>1402.8</ele>
        <time>2015-10-31T09:54:29.887Z</time>
      </trkpt>
      <trkpt lat="42.89353" lon="1.45106">
        <ele>1402.4</ele>
        <time>2015-10-31T09:54:36.912Z</time>
      </trkpt>
      <trkpt lat="42.89352" lon="1.45106">
        <ele>1402.4</ele>
        <time>2015-10-31T09:54:37.889Z</time>
      </trkpt>
      <trkpt lat="42.89343" lon="1.45105">
        <ele>1402.5</ele>
        <time>2015-10-31T09:54:43.914Z</time>
      </trkpt>
      <trkpt lat="42.89342" lon="1.45105">
        <ele>1402.6</ele>
        <time>2015-10-31T09:54:44.887Z</time>
      </trkpt>
      <trkpt lat="42.89334" lon="1.45106">
        <ele>1402.9</ele>
        <time>2015-10-31T09:54:52.912Z</time>
      </trkpt>
      <trkpt lat="42.89332" lon="1.45105">
        <ele>1403</ele>
        <time>2015-10-31T09:54:53.887Z</time>
      </trkpt>
      <trkpt lat="42.89323" lon="1.45103">
        <ele>1403.9</ele>
        <time>2015-10-31T09:55:00.921Z</time>
      </trkpt>
      <trkpt lat="42.89322" lon="1.45103">
        <ele>1404.1</ele>
        <time>2015-10-31T09:55:01.889Z</time>
      </trkpt>
      <trkpt lat="42.89315" lon="1.45106">
        <ele>1405.1</ele>
        <time>2015-10-31T09:55:09.913Z</time>
      </trkpt>
      <trkpt lat="42.89314" lon="1.45106">
        <ele>1405.3</ele>
        <time>2015-10-31T09:55:10.887Z</time>
      </trkpt>
      <trkpt lat="42.89305" lon="1.45109">
        <ele>1406.2</ele>
        <time>2015-10-31T09:55:17.912Z</time>
      </trkpt>
      <trkpt lat="42.89304" lon="1.4511">
        <ele>1406.4</ele>
        <time>2015-10-31T09:55:18.887Z</time>
      </trkpt>
      <trkpt lat="42.89296" lon="1.45112">
        <ele>1408.7</ele>
        <time>2015-10-31T09:55:27.912Z</time>
      </trkpt>
      <trkpt lat="42.89295" lon="1.45111">
        <ele>1408.9</ele>
        <time>2015-10-31T09:55:28.887Z</time>
      </trkpt>
      <trkpt lat="42.89286" lon="1.45111">
        <ele>1410.6</ele>
        <time>2015-10-31T09:55:37.915Z</time>
      </trkpt>
      <trkpt lat="42.89284" lon="1.45111">
        <ele>1410.9</ele>
        <time>2015-10-31T09:55:38.887Z</time>
      </trkpt>
      <trkpt lat="42.89276" lon="1.45112">
        <ele>1413.2</ele>
        <time>2015-10-31T09:55:47.913Z</time>
      </trkpt>
      <trkpt lat="42.89275" lon="1.45111">
        <ele>1413.6</ele>
        <time>2015-10-31T09:55:48.887Z</time>
      </trkpt>
      <trkpt lat="42.89268" lon="1.45105">
        <ele>1415.7</ele>
        <time>2015-10-31T09:55:55.913Z</time>
      </trkpt>
      <trkpt lat="42.89267" lon="1.45104">
        <ele>1416.1</ele>
        <time>2015-10-31T09:55:56.887Z</time>
      </trkpt>
      <trkpt lat="42.89259" lon="1.45105">
        <ele>1419.3</ele>
        <time>2015-10-31T09:56:07.928Z</time>
      </trkpt>
      <trkpt lat="42.89258" lon="1.45106">
        <ele>1419.5</ele>
        <time>2015-10-31T09:56:08.887Z</time>
      </trkpt>
      <trkpt lat="42.89252" lon="1.45116">
        <ele>1422</ele>
        <time>2015-10-31T09:56:18.927Z</time>
      </trkpt>
      <trkpt lat="42.89252" lon="1.45116">
        <ele>1422.3</ele>
        <time>2015-10-31T09:56:19.888Z</time>
      </trkpt>
      <trkpt lat="42.89244" lon="1.45121">
        <ele>1425</ele>
        <time>2015-10-31T09:56:30.913Z</time>
      </trkpt>
      <trkpt lat="42.89243" lon="1.45121">
        <ele>1425.3</ele>
        <time>2015-10-31T09:56:31.889Z</time>
      </trkpt>
      <trkpt lat="42.89235" lon="1.45126">
        <ele>1428.5</ele>
        <time>2015-10-31T09:56:43.913Z</time>
      </trkpt>
      <trkpt lat="42.89234" lon="1.45126">
        <ele>1428.7</ele>
        <time>2015-10-31T09:56:44.887Z</time>
      </trkpt>
      <trkpt lat="42.89226" lon="1.45128">
        <ele>1432.4</ele>
        <time>2015-10-31T09:56:56.981Z</time>
      </trkpt>
      <trkpt lat="42.89225" lon="1.45129">
        <ele>1432.7</ele>
        <time>2015-10-31T09:56:57.905Z</time>
      </trkpt>
      <trkpt lat="42.89217" lon="1.45133">
        <ele>1436.1</ele>
        <time>2015-10-31T09:57:09.927Z</time>
      </trkpt>
      <trkpt lat="42.89216" lon="1.45134">
        <ele>1436.3</ele>
        <time>2015-10-31T09:57:10.887Z</time>
      </trkpt>
      <trkpt lat="42.89208" lon="1.45139">
        <ele>1438.5</ele>
        <time>2015-10-31T09:57:20.912Z</time>
      </trkpt>
      <trkpt lat="42.89208" lon="1.4514">
        <ele>1438.7</ele>
        <time>2015-10-31T09:57:21.887Z</time>
      </trkpt>
      <trkpt lat="42.89202" lon="1.45147">
        <ele>1441.3</ele>
        <time>2015-10-31T09:57:30.912Z</time>
      </trkpt>
      <trkpt lat="42.89201" lon="1.45148">
        <ele>1441.5</ele>
        <time>2015-10-31T09:57:31.888Z</time>
      </trkpt>
      <trkpt lat="42.89194" lon="1.45154">
        <ele>1443.7</ele>
        <time>2015-10-31T09:57:40.912Z</time>
      </trkpt>
      <trkpt lat="42.89193" lon="1.45155">
        <ele>1444</ele>
        <time>2015-10-31T09:57:41.887Z</time>
      </trkpt>
      <trkpt lat="42.89187" lon="1.45163">
        <ele>1445.5</ele>
        <time>2015-10-31T09:57:48.912Z</time>
      </trkpt>
      <trkpt lat="42.89186" lon="1.45164">
        <ele>1445.8</ele>
        <time>2015-10-31T09:57:49.888Z</time>
      </trkpt>
      <trkpt lat="42.89183" lon="1.45174">
        <ele>1447</ele>
        <time>2015-10-31T09:57:54.911Z</time>
      </trkpt>
      <trkpt lat="42.89182" lon="1.45176">
        <ele>1447.2</ele>
        <time>2015-10-31T09:57:55.890Z</time>
      </trkpt>
      <trkpt lat="42.89177" lon="1.45184">
        <ele>1448.7</ele>
        <time>2015-10-31T09:58:00.981Z</time>
      </trkpt>
      <trkpt lat="42.89176" lon="1.45186">
        <ele>1448.9</ele>
        <time>2015-10-31T09:58:01.890Z</time>
      </trkpt>
      <trkpt lat="42.8917" lon="1.45195">
        <ele>1450.6</ele>
        <time>2015-10-31T09:58:07.914Z</time>
      </trkpt>
      <trkpt lat="42.89169" lon="1.45197">
        <ele>1450.9</ele>
        <time>2015-10-31T09:58:08.887Z</time>
      </trkpt>
      <trkpt lat="42.89163" lon="1.45205">
        <ele>1452.7</ele>
        <time>2015-10-31T09:58:14.912Z</time>
      </trkpt>
      <trkpt lat="42.89162" lon="1.45206">
        <ele>1453</ele>
        <time>2015-10-31T09:58:15.887Z</time>
      </trkpt>
      <trkpt lat="42.89154" lon="1.45211">
        <ele>1455</ele>
        <time>2015-10-31T09:58:22.913Z</time>
      </trkpt>
      <trkpt lat="42.89153" lon="1.45213">
        <ele>1455.4</ele>
        <time>2015-10-31T09:58:23.887Z</time>
      </trkpt>
      <trkpt lat="42.89146" lon="1.45219">
        <ele>1457.8</ele>
        <time>2015-10-31T09:58:31.914Z</time>
      </trkpt>
      <trkpt lat="42.89145" lon="1.4522">
        <ele>1458.1</ele>
        <time>2015-10-31T09:58:32.887Z</time>
      </trkpt>
      <trkpt lat="42.89136" lon="1.45219">
        <ele>1461.4</ele>
        <time>2015-10-31T09:58:43.914Z</time>
      </trkpt>
      <trkpt lat="42.89135" lon="1.45219">
        <ele>1461.7</ele>
        <time>2015-10-31T09:58:44.887Z</time>
      </trkpt>
      <trkpt lat="42.89126" lon="1.4522">
        <ele>1465</ele>
        <time>2015-10-31T09:58:54.912Z</time>
      </trkpt>
      <trkpt lat="42.89125" lon="1.4522">
        <ele>1465.2</ele>
        <time>2015-10-31T09:58:55.888Z</time>
      </trkpt>
      <trkpt lat="42.89117" lon="1.45221">
        <ele>1467.2</ele>
        <time>2015-10-31T09:59:02.928Z</time>
      </trkpt>
      <trkpt lat="42.89115" lon="1.45221">
        <ele>1467.6</ele>
        <time>2015-10-31T09:59:03.887Z</time>
      </trkpt>
      <trkpt lat="42.89107" lon="1.45218">
        <ele>1470.6</ele>
        <time>2015-10-31T09:59:12.912Z</time>
      </trkpt>
      <trkpt lat="42.89106" lon="1.45218">
        <ele>1471</ele>
        <time>2015-10-31T09:59:13.889Z</time>
      </trkpt>
      <trkpt lat="42.89099" lon="1.45211">
        <ele>1474.9</ele>
        <time>2015-10-31T09:59:24.913Z</time>
      </trkpt>
      <trkpt lat="42.89098" lon="1.4521">
        <ele>1475.2</ele>
        <time>2015-10-31T09:59:25.888Z</time>
      </trkpt>
      <trkpt lat="42.89091" lon="1.45205">
        <ele>1479.6</ele>
        <time>2015-10-31T09:59:39.912Z</time>
      </trkpt>
      <trkpt lat="42.8909" lon="1.45204">
        <ele>1479.8</ele>
        <time>2015-10-31T09:59:40.887Z</time>
      </trkpt>
      <trkpt lat="42.89087" lon="1.45193">
        <ele>1483</ele>
        <time>2015-10-31T09:59:52.912Z</time>
      </trkpt>
      <trkpt lat="42.89087" lon="1.45192">
        <ele>1483.2</ele>
        <time>2015-10-31T09:59:53.887Z</time>
      </trkpt>
      <trkpt lat="42.89082" lon="1.45183">
        <ele>1486.6</ele>
        <time>2015-10-31T10:00:06.911Z</time>
      </trkpt>
      <trkpt lat="42.89082" lon="1.45182">
        <ele>1487</ele>
        <time>2015-10-31T10:00:07.888Z</time>
      </trkpt>
      <trkpt lat="42.8908" lon="1.4517">
        <ele>1490.4</ele>
        <time>2015-10-31T10:00:20.911Z</time>
      </trkpt>
      <trkpt lat="42.89079" lon="1.45169">
        <ele>1490.7</ele>
        <time>2015-10-31T10:00:21.887Z</time>
      </trkpt>
      <trkpt lat="42.89073" lon="1.4516">
        <ele>1495</ele>
        <time>2015-10-31T10:00:37.915Z</time>
      </trkpt>
      <trkpt lat="42.89073" lon="1.45159">
        <ele>1495.3</ele>
        <time>2015-10-31T10:00:38.886Z</time>
      </trkpt>
      <trkpt lat="42.89069" lon="1.45148">
        <ele>1499.3</ele>
        <time>2015-10-31T10:00:54.912Z</time>
      </trkpt>
      <trkpt lat="42.89069" lon="1.45147">
        <ele>1499.5</ele>
        <time>2015-10-31T10:00:55.887Z</time>
      </trkpt>
      <trkpt lat="42.89062" lon="1.4514">
        <ele>1504.2</ele>
        <time>2015-10-31T10:01:10.029Z</time>
      </trkpt>
      <trkpt lat="42.89061" lon="1.4514">
        <ele>1504.6</ele>
        <time>2015-10-31T10:01:10.886Z</time>
      </trkpt>
      <trkpt lat="42.89055" lon="1.45132">
        <ele>1507.6</ele>
        <time>2015-10-31T10:01:22.911Z</time>
      </trkpt>
      <trkpt lat="42.89055" lon="1.45131">
        <ele>1508</ele>
        <time>2015-10-31T10:01:23.886Z</time>
      </trkpt>
      <trkpt lat="42.89046" lon="1.45131">
        <ele>1510.8</ele>
        <time>2015-10-31T10:01:39.913Z</time>
      </trkpt>
      <trkpt lat="42.89044" lon="1.4513">
        <ele>1510.7</ele>
        <time>2015-10-31T10:01:40.886Z</time>
      </trkpt>
      <trkpt lat="42.89037" lon="1.45128">
        <ele>1511.1</ele>
        <time>2015-10-31T10:01:46.971Z</time>
      </trkpt>
      <trkpt lat="42.89035" lon="1.45127">
        <ele>1511</ele>
        <time>2015-10-31T10:01:47.886Z</time>
      </trkpt>
      <trkpt lat="42.89027" lon="1.45124">
        <ele>1511.5</ele>
        <time>2015-10-31T10:01:53.911Z</time>
      </trkpt>
      <trkpt lat="42.89025" lon="1.45124">
        <ele>1511.6</ele>
        <time>2015-10-31T10:01:54.886Z</time>
      </trkpt>
      <trkpt lat="42.89017" lon="1.45122">
        <ele>1512</ele>
        <time>2015-10-31T10:02:00.920Z</time>
      </trkpt>
      <trkpt lat="42.89016" lon="1.45121">
        <ele>1512.1</ele>
        <time>2015-10-31T10:02:01.883Z</time>
      </trkpt>
      <trkpt lat="42.89008" lon="1.45118">
        <ele>1512.5</ele>
        <time>2015-10-31T10:02:07.913Z</time>
      </trkpt>
      <trkpt lat="42.89006" lon="1.45117">
        <ele>1512.5</ele>
        <time>2015-10-31T10:02:08.887Z</time>
      </trkpt>
      <trkpt lat="42.88998" lon="1.45115">
        <ele>1512.5</ele>
        <time>2015-10-31T10:02:14.912Z</time>
      </trkpt>
      <trkpt lat="42.88997" lon="1.45116">
        <ele>1512.6</ele>
        <time>2015-10-31T10:02:15.886Z</time>
      </trkpt>
      <trkpt lat="42.88989" lon="1.45114">
        <ele>1512.8</ele>
        <time>2015-10-31T10:02:20.981Z</time>
      </trkpt>
      <trkpt lat="42.88988" lon="1.45113">
        <ele>1513</ele>
        <time>2015-10-31T10:02:21.886Z</time>
      </trkpt>
      <trkpt lat="42.8898" lon="1.45112">
        <ele>1513.2</ele>
        <time>2015-10-31T10:02:26.929Z</time>
      </trkpt>
      <trkpt lat="42.88978" lon="1.45112">
        <ele>1513.3</ele>
        <time>2015-10-31T10:02:27.886Z</time>
      </trkpt>
      <trkpt lat="42.88971" lon="1.45106">
        <ele>1513.6</ele>
        <time>2015-10-31T10:02:34.912Z</time>
      </trkpt>
      <trkpt lat="42.8897" lon="1.45105">
        <ele>1513.6</ele>
        <time>2015-10-31T10:02:35.890Z</time>
      </trkpt>
      <trkpt lat="42.88963" lon="1.45098">
        <ele>1512.9</ele>
        <time>2015-10-31T10:02:44.911Z</time>
      </trkpt>
      <trkpt lat="42.88962" lon="1.45097">
        <ele>1512.8</ele>
        <time>2015-10-31T10:02:45.885Z</time>
      </trkpt>
      <trkpt lat="42.88956" lon="1.4509">
        <ele>1513</ele>
        <time>2015-10-31T10:02:54.911Z</time>
      </trkpt>
      <trkpt lat="42.88955" lon="1.45088">
        <ele>1512.9</ele>
        <time>2015-10-31T10:02:55.888Z</time>
      </trkpt>
      <trkpt lat="42.88951" lon="1.45078">
        <ele>1512.6</ele>
        <time>2015-10-31T10:03:01.914Z</time>
      </trkpt>
      <trkpt lat="42.8895" lon="1.45076">
        <ele>1512.5</ele>
        <time>2015-10-31T10:03:02.886Z</time>
      </trkpt>
      <trkpt lat="42.88947" lon="1.45065">
        <ele>1511.7</ele>
        <time>2015-10-31T10:03:09.911Z</time>
      </trkpt>
      <trkpt lat="42.88947" lon="1.45063">
        <ele>1511.6</ele>
        <time>2015-10-31T10:03:10.886Z</time>
      </trkpt>
      <trkpt lat="42.88944" lon="1.45054">
        <ele>1511.4</ele>
        <time>2015-10-31T10:03:17.912Z</time>
      </trkpt>
      <trkpt lat="42.88943" lon="1.45052">
        <ele>1511.5</ele>
        <time>2015-10-31T10:03:18.901Z</time>
      </trkpt>
      <trkpt lat="42.88938" lon="1.45042">
        <ele>1510.6</ele>
        <time>2015-10-31T10:03:24.911Z</time>
      </trkpt>
      <trkpt lat="42.88938" lon="1.4504">
        <ele>1510.6</ele>
        <time>2015-10-31T10:03:25.888Z</time>
      </trkpt>
      <trkpt lat="42.88933" lon="1.45031">
        <ele>1510.2</ele>
        <time>2015-10-31T10:03:30.911Z</time>
      </trkpt>
      <trkpt lat="42.88932" lon="1.45029">
        <ele>1510.1</ele>
        <time>2015-10-31T10:03:31.888Z</time>
      </trkpt>
      <trkpt lat="42.88929" lon="1.45018">
        <ele>1509.8</ele>
        <time>2015-10-31T10:03:37.914Z</time>
      </trkpt>
      <trkpt lat="42.88928" lon="1.45016">
        <ele>1509.8</ele>
        <time>2015-10-31T10:03:38.886Z</time>
      </trkpt>
      <trkpt lat="42.88923" lon="1.45006">
        <ele>1509.1</ele>
        <time>2015-10-31T10:03:45.926Z</time>
      </trkpt>
      <trkpt lat="42.88923" lon="1.45005">
        <ele>1509.1</ele>
        <time>2015-10-31T10:03:46.886Z</time>
      </trkpt>
      <trkpt lat="42.88915" lon="1.44997">
        <ele>1509.1</ele>
        <time>2015-10-31T10:03:53.911Z</time>
      </trkpt>
      <trkpt lat="42.88915" lon="1.44997">
        <ele>1509.1</ele>
        <time>2015-10-31T10:03:54.886Z</time>
      </trkpt>
      <trkpt lat="42.88907" lon="1.44991">
        <ele>1509.3</ele>
        <time>2015-10-31T10:04:01.967Z</time>
      </trkpt>
      <trkpt lat="42.88906" lon="1.4499">
        <ele>1509.1</ele>
        <time>2015-10-31T10:04:02.886Z</time>
      </trkpt>
      <trkpt lat="42.88898" lon="1.44985">
        <ele>1509.9</ele>
        <time>2015-10-31T10:04:10.911Z</time>
      </trkpt>
      <trkpt lat="42.88897" lon="1.44985">
        <ele>1509.9</ele>
        <time>2015-10-31T10:04:11.886Z</time>
      </trkpt>
      <trkpt lat="42.88888" lon="1.44981">
        <ele>1510.9</ele>
        <time>2015-10-31T10:04:19.913Z</time>
      </trkpt>
      <trkpt lat="42.88888" lon="1.4498">
        <ele>1511</ele>
        <time>2015-10-31T10:04:20.886Z</time>
      </trkpt>
      <trkpt lat="42.8888" lon="1.44976">
        <ele>1511.9</ele>
        <time>2015-10-31T10:04:26.911Z</time>
      </trkpt>
      <trkpt lat="42.88878" lon="1.44975">
        <ele>1512.1</ele>
        <time>2015-10-31T10:04:27.890Z</time>
      </trkpt>
      <trkpt lat="42.8887" lon="1.44972">
        <ele>1513.5</ele>
        <time>2015-10-31T10:04:33.912Z</time>
      </trkpt>
      <trkpt lat="42.88869" lon="1.44972">
        <ele>1513.7</ele>
        <time>2015-10-31T10:04:34.886Z</time>
      </trkpt>
      <trkpt lat="42.88861" lon="1.44969">
        <ele>1514.9</ele>
        <time>2015-10-31T10:04:40.911Z</time>
      </trkpt>
      <trkpt lat="42.88859" lon="1.44969">
        <ele>1515.2</ele>
        <time>2015-10-31T10:04:41.886Z</time>
      </trkpt>
      <trkpt lat="42.88852" lon="1.44964">
        <ele>1516.3</ele>
        <time>2015-10-31T10:04:47.912Z</time>
      </trkpt>
      <trkpt lat="42.88851" lon="1.44964">
        <ele>1516.5</ele>
        <time>2015-10-31T10:04:48.886Z</time>
      </trkpt>
      <trkpt lat="42.88843" lon="1.44963">
        <ele>1517.9</ele>
        <time>2015-10-31T10:04:54.912Z</time>
      </trkpt>
      <trkpt lat="42.88842" lon="1.44963">
        <ele>1518.2</ele>
        <time>2015-10-31T10:04:55.888Z</time>
      </trkpt>
      <trkpt lat="42.88835" lon="1.44958">
        <ele>1519</ele>
        <time>2015-10-31T10:05:00.912Z</time>
      </trkpt>
      <trkpt lat="42.88834" lon="1.44957">
        <ele>1519.2</ele>
        <time>2015-10-31T10:05:01.888Z</time>
      </trkpt>
      <trkpt lat="42.88826" lon="1.44952">
        <ele>1520.5</ele>
        <time>2015-10-31T10:05:08.911Z</time>
      </trkpt>
      <trkpt lat="42.88825" lon="1.44952">
        <ele>1520.7</ele>
        <time>2015-10-31T10:05:09.886Z</time>
      </trkpt>
      <trkpt lat="42.88817" lon="1.44947">
        <ele>1521.5</ele>
        <time>2015-10-31T10:05:15.927Z</time>
      </trkpt>
      <trkpt lat="42.88816" lon="1.44946">
        <ele>1521.6</ele>
        <time>2015-10-31T10:05:16.886Z</time>
      </trkpt>
      <trkpt lat="42.88808" lon="1.44943">
        <ele>1522.5</ele>
        <time>2015-10-31T10:05:24.911Z</time>
      </trkpt>
      <trkpt lat="42.88807" lon="1.44943">
        <ele>1522.5</ele>
        <time>2015-10-31T10:05:25.888Z</time>
      </trkpt>
      <trkpt lat="42.88799" lon="1.44944">
        <ele>1522.7</ele>
        <time>2015-10-31T10:05:31.912Z</time>
      </trkpt>
      <trkpt lat="42.88798" lon="1.44945">
        <ele>1522.7</ele>
        <time>2015-10-31T10:05:32.962Z</time>
      </trkpt>
      <trkpt lat="42.8879" lon="1.4495">
        <ele>1522.9</ele>
        <time>2015-10-31T10:05:39.911Z</time>
      </trkpt>
      <trkpt lat="42.88788" lon="1.44952">
        <ele>1523.2</ele>
        <time>2015-10-31T10:05:40.886Z</time>
      </trkpt>
      <trkpt lat="42.8878" lon="1.4495">
        <ele>1524.7</ele>
        <time>2015-10-31T10:06:01.913Z</time>
      </trkpt>
      <trkpt lat="42.88779" lon="1.44951">
        <ele>1524.7</ele>
        <time>2015-10-31T10:06:02.886Z</time>
      </trkpt>
      <trkpt lat="42.88771" lon="1.44955">
        <ele>1525.1</ele>
        <time>2015-10-31T10:06:11.911Z</time>
      </trkpt>
      <trkpt lat="42.8877" lon="1.44955">
        <ele>1525.1</ele>
        <time>2015-10-31T10:06:12.887Z</time>
      </trkpt>
      <trkpt lat="42.88761" lon="1.44958">
        <ele>1525.8</ele>
        <time>2015-10-31T10:06:20.911Z</time>
      </trkpt>
      <trkpt lat="42.8876" lon="1.44958">
        <ele>1525.9</ele>
        <time>2015-10-31T10:06:21.886Z</time>
      </trkpt>
      <trkpt lat="42.88751" lon="1.44957">
        <ele>1526.7</ele>
        <time>2015-10-31T10:06:29.911Z</time>
      </trkpt>
      <trkpt lat="42.8875" lon="1.44956">
        <ele>1526.9</ele>
        <time>2015-10-31T10:06:30.886Z</time>
      </trkpt>
      <trkpt lat="42.88741" lon="1.44956">
        <ele>1527.7</ele>
        <time>2015-10-31T10:06:38.911Z</time>
      </trkpt>
      <trkpt lat="42.8874" lon="1.44957">
        <ele>1527.8</ele>
        <time>2015-10-31T10:06:39.886Z</time>
      </trkpt>
      <trkpt lat="42.88733" lon="1.44961">
        <ele>1528.7</ele>
        <time>2015-10-31T10:06:47.911Z</time>
      </trkpt>
      <trkpt lat="42.88731" lon="1.44961">
        <ele>1528.8</ele>
        <time>2015-10-31T10:06:48.886Z</time>
      </trkpt>
      <trkpt lat="42.88724" lon="1.44958">
        <ele>1529.5</ele>
        <time>2015-10-31T10:06:55.928Z</time>
      </trkpt>
      <trkpt lat="42.88722" lon="1.44959">
        <ele>1529.5</ele>
        <time>2015-10-31T10:06:56.887Z</time>
      </trkpt>
      <trkpt lat="42.88714" lon="1.44963">
        <ele>1530</ele>
        <time>2015-10-31T10:07:03.912Z</time>
      </trkpt>
      <trkpt lat="42.88713" lon="1.44964">
        <ele>1530</ele>
        <time>2015-10-31T10:07:04.886Z</time>
      </trkpt>
      <trkpt lat="42.88705" lon="1.44966">
        <ele>1530.4</ele>
        <time>2015-10-31T10:07:10.912Z</time>
      </trkpt>
      <trkpt lat="42.88703" lon="1.44966">
        <ele>1530.5</ele>
        <time>2015-10-31T10:07:11.887Z</time>
      </trkpt>
      <trkpt lat="42.88695" lon="1.44968">
        <ele>1530.5</ele>
        <time>2015-10-31T10:07:18.926Z</time>
      </trkpt>
      <trkpt lat="42.88693" lon="1.44968">
        <ele>1530.5</ele>
        <time>2015-10-31T10:07:19.887Z</time>
      </trkpt>
      <trkpt lat="42.88685" lon="1.44968">
        <ele>1530.6</ele>
        <time>2015-10-31T10:07:25.913Z</time>
      </trkpt>
      <trkpt lat="42.88684" lon="1.44969">
        <ele>1530.4</ele>
        <time>2015-10-31T10:07:26.886Z</time>
      </trkpt>
      <trkpt lat="42.88676" lon="1.44971">
        <ele>1530.6</ele>
        <time>2015-10-31T10:07:35.918Z</time>
      </trkpt>
      <trkpt lat="42.88675" lon="1.4497">
        <ele>1530.6</ele>
        <time>2015-10-31T10:07:36.887Z</time>
      </trkpt>
      <trkpt lat="42.88666" lon="1.44968">
        <ele>1530.8</ele>
        <time>2015-10-31T10:07:43.913Z</time>
      </trkpt>
      <trkpt lat="42.88666" lon="1.44968">
        <ele>1530.9</ele>
        <time>2015-10-31T10:07:44.901Z</time>
      </trkpt>
      <trkpt lat="42.88659" lon="1.44962">
        <ele>1531.8</ele>
        <time>2015-10-31T10:07:51.911Z</time>
      </trkpt>
      <trkpt lat="42.88658" lon="1.44961">
        <ele>1532</ele>
        <time>2015-10-31T10:07:52.887Z</time>
      </trkpt>
      <trkpt lat="42.8865" lon="1.44963">
        <ele>1532.5</ele>
        <time>2015-10-31T10:08:00.925Z</time>
      </trkpt>
      <trkpt lat="42.88649" lon="1.44963">
        <ele>1532.6</ele>
        <time>2015-10-31T10:08:01.888Z</time>
      </trkpt>
      <trkpt lat="42.8864" lon="1.4496">
        <ele>1533.6</ele>
        <time>2015-10-31T10:08:10.911Z</time>
      </trkpt>
      <trkpt lat="42.88639" lon="1.4496">
        <ele>1533.7</ele>
        <time>2015-10-31T10:08:11.886Z</time>
      </trkpt>
      <trkpt lat="42.88631" lon="1.44958">
        <ele>1534.5</ele>
        <time>2015-10-31T10:08:21.910Z</time>
      </trkpt>
      <trkpt lat="42.8863" lon="1.44958">
        <ele>1534.5</ele>
        <time>2015-10-31T10:08:22.887Z</time>
      </trkpt>
      <trkpt lat="42.88621" lon="1.4496">
        <ele>1534.8</ele>
        <time>2015-10-31T10:08:29.911Z</time>
      </trkpt>
      <trkpt lat="42.8862" lon="1.44961">
        <ele>1534.8</ele>
        <time>2015-10-31T10:08:30.886Z</time>
      </trkpt>
      <trkpt lat="42.88612" lon="1.44959">
        <ele>1535.6</ele>
        <time>2015-10-31T10:08:36.911Z</time>
      </trkpt>
      <trkpt lat="42.88611" lon="1.4496">
        <ele>1535.6</ele>
        <time>2015-10-31T10:08:37.887Z</time>
      </trkpt>
      <trkpt lat="42.88603" lon="1.44962">
        <ele>1536.3</ele>
        <time>2015-10-31T10:08:44.911Z</time>
      </trkpt>
      <trkpt lat="42.88602" lon="1.44962">
        <ele>1536.4</ele>
        <time>2015-10-31T10:08:45.886Z</time>
      </trkpt>
      <trkpt lat="42.88593" lon="1.4496">
        <ele>1537.4</ele>
        <time>2015-10-31T10:08:51.911Z</time>
      </trkpt>
      <trkpt lat="42.88592" lon="1.4496">
        <ele>1537.5</ele>
        <time>2015-10-31T10:08:52.886Z</time>
      </trkpt>
      <trkpt lat="42.88584" lon="1.44962">
        <ele>1537.9</ele>
        <time>2015-10-31T10:08:58.910Z</time>
      </trkpt>
      <trkpt lat="42.88583" lon="1.44962">
        <ele>1538</ele>
        <time>2015-10-31T10:08:59.887Z</time>
      </trkpt>
      <trkpt lat="42.88575" lon="1.4496">
        <ele>1538.2</ele>
        <time>2015-10-31T10:09:08.911Z</time>
      </trkpt>
      <trkpt lat="42.88574" lon="1.44961">
        <ele>1538.3</ele>
        <time>2015-10-31T10:09:09.886Z</time>
      </trkpt>
      <trkpt lat="42.88565" lon="1.4496">
        <ele>1538</ele>
        <time>2015-10-31T10:09:19.913Z</time>
      </trkpt>
      <trkpt lat="42.88564" lon="1.4496">
        <ele>1538</ele>
        <time>2015-10-31T10:09:20.886Z</time>
      </trkpt>
      <trkpt lat="42.88557" lon="1.44965">
        <ele>1539.2</ele>
        <time>2015-10-31T10:09:31.913Z</time>
      </trkpt>
      <trkpt lat="42.88556" lon="1.44965">
        <ele>1539.4</ele>
        <time>2015-10-31T10:09:32.886Z</time>
      </trkpt>
      <trkpt lat="42.88547" lon="1.4497">
        <ele>1539.9</ele>
        <time>2015-10-31T10:09:42.911Z</time>
      </trkpt>
      <trkpt lat="42.88546" lon="1.4497">
        <ele>1539.9</ele>
        <time>2015-10-31T10:09:43.883Z</time>
      </trkpt>
      <trkpt lat="42.88539" lon="1.44967">
        <ele>1540.4</ele>
        <time>2015-10-31T10:09:53.924Z</time>
      </trkpt>
      <trkpt lat="42.88538" lon="1.44966">
        <ele>1540.6</ele>
        <time>2015-10-31T10:09:54.886Z</time>
      </trkpt>
      <trkpt lat="42.88531" lon="1.44958">
        <ele>1541.9</ele>
        <time>2015-10-31T10:10:06.912Z</time>
      </trkpt>
      <trkpt lat="42.8853" lon="1.44958">
        <ele>1541.9</ele>
        <time>2015-10-31T10:10:07.888Z</time>
      </trkpt>
      <trkpt lat="42.88522" lon="1.44956">
        <ele>1542.6</ele>
        <time>2015-10-31T10:10:16.911Z</time>
      </trkpt>
      <trkpt lat="42.88521" lon="1.44955">
        <ele>1542.6</ele>
        <time>2015-10-31T10:10:17.886Z</time>
      </trkpt>
      <trkpt lat="42.88513" lon="1.44951">
        <ele>1542.7</ele>
        <time>2015-10-31T10:10:24.969Z</time>
      </trkpt>
      <trkpt lat="42.88511" lon="1.4495">
        <ele>1542.7</ele>
        <time>2015-10-31T10:10:25.888Z</time>
      </trkpt>
      <trkpt lat="42.88503" lon="1.44948">
        <ele>1542.8</ele>
        <time>2015-10-31T10:10:31.913Z</time>
      </trkpt>
      <trkpt lat="42.88502" lon="1.44948">
        <ele>1542.8</ele>
        <time>2015-10-31T10:10:32.887Z</time>
      </trkpt>
      <trkpt lat="42.88493" lon="1.44946">
        <ele>1542.8</ele>
        <time>2015-10-31T10:10:38.911Z</time>
      </trkpt>
      <trkpt lat="42.88492" lon="1.44945">
        <ele>1543</ele>
        <time>2015-10-31T10:10:39.886Z</time>
      </trkpt>
      <trkpt lat="42.88484" lon="1.44948">
        <ele>1542.9</ele>
        <time>2015-10-31T10:10:45.926Z</time>
      </trkpt>
      <trkpt lat="42.88482" lon="1.44948">
        <ele>1542.9</ele>
        <time>2015-10-31T10:10:46.886Z</time>
      </trkpt>
      <trkpt lat="42.88474" lon="1.44952">
        <ele>1543.4</ele>
        <time>2015-10-31T10:10:52.911Z</time>
      </trkpt>
      <trkpt lat="42.88473" lon="1.44952">
        <ele>1543.4</ele>
        <time>2015-10-31T10:10:53.886Z</time>
      </trkpt>
      <trkpt lat="42.88465" lon="1.44956">
        <ele>1543.9</ele>
        <time>2015-10-31T10:11:01.914Z</time>
      </trkpt>
      <trkpt lat="42.88464" lon="1.44956">
        <ele>1544</ele>
        <time>2015-10-31T10:11:02.886Z</time>
      </trkpt>
      <trkpt lat="42.88455" lon="1.44959">
        <ele>1545.7</ele>
        <time>2015-10-31T10:11:11.912Z</time>
      </trkpt>
      <trkpt lat="42.88454" lon="1.4496">
        <ele>1545.9</ele>
        <time>2015-10-31T10:11:12.888Z</time>
      </trkpt>
      <trkpt lat="42.88448" lon="1.44967">
        <ele>1548.1</ele>
        <time>2015-10-31T10:11:21.911Z</time>
      </trkpt>
      <trkpt lat="42.88447" lon="1.44968">
        <ele>1548.5</ele>
        <time>2015-10-31T10:11:22.887Z</time>
      </trkpt>
      <trkpt lat="42.88441" lon="1.44976">
        <ele>1550.4</ele>
        <time>2015-10-31T10:11:28.912Z</time>
      </trkpt>
      <trkpt lat="42.8844" lon="1.44977">
        <ele>1550.8</ele>
        <time>2015-10-31T10:11:29.886Z</time>
      </trkpt>
      <trkpt lat="42.88434" lon="1.44983">
        <ele>1553.4</ele>
        <time>2015-10-31T10:11:35.911Z</time>
      </trkpt>
      <trkpt lat="42.88433" lon="1.44984">
        <ele>1553.7</ele>
        <time>2015-10-31T10:11:36.894Z</time>
      </trkpt>
      <trkpt lat="42.88425" lon="1.44988">
        <ele>1555.8</ele>
        <time>2015-10-31T10:11:42.911Z</time>
      </trkpt>
      <trkpt lat="42.88423" lon="1.44989">
        <ele>1556.3</ele>
        <time>2015-10-31T10:11:43.888Z</time>
      </trkpt>
      <trkpt lat="42.88415" lon="1.4499">
        <ele>1557.7</ele>
        <time>2015-10-31T10:11:49.914Z</time>
      </trkpt>
      <trkpt lat="42.88414" lon="1.44991">
        <ele>1558.1</ele>
        <time>2015-10-31T10:11:50.887Z</time>
      </trkpt>
      <trkpt lat="42.88408" lon="1.44999">
        <ele>1558.8</ele>
        <time>2015-10-31T10:11:56.911Z</time>
      </trkpt>
      <trkpt lat="42.88407" lon="1.45001">
        <ele>1558.9</ele>
        <time>2015-10-31T10:11:57.899Z</time>
      </trkpt>
      <trkpt lat="42.88403" lon="1.45012">
        <ele>1559.6</ele>
        <time>2015-10-31T10:12:03.911Z</time>
      </trkpt>
      <trkpt lat="42.88402" lon="1.45013">
        <ele>1559.6</ele>
        <time>2015-10-31T10:12:04.886Z</time>
      </trkpt>
      <trkpt lat="42.88396" lon="1.45022">
        <ele>1560.3</ele>
        <time>2015-10-31T10:12:10.911Z</time>
      </trkpt>
      <trkpt lat="42.88395" lon="1.45023">
        <ele>1560.4</ele>
        <time>2015-10-31T10:12:11.887Z</time>
      </trkpt>
      <trkpt lat="42.88392" lon="1.45033">
        <ele>1560.9</ele>
        <time>2015-10-31T10:12:17.911Z</time>
      </trkpt>
      <trkpt lat="42.88392" lon="1.45035">
        <ele>1561</ele>
        <time>2015-10-31T10:12:18.887Z</time>
      </trkpt>
      <trkpt lat="42.88388" lon="1.45045">
        <ele>1562.6</ele>
        <time>2015-10-31T10:12:25.913Z</time>
      </trkpt>
      <trkpt lat="42.88387" lon="1.45046">
        <ele>1562.8</ele>
        <time>2015-10-31T10:12:26.887Z</time>
      </trkpt>
      <trkpt lat="42.88382" lon="1.45056">
        <ele>1563.9</ele>
        <time>2015-10-31T10:12:32.911Z</time>
      </trkpt>
      <trkpt lat="42.88382" lon="1.45057">
        <ele>1564</ele>
        <time>2015-10-31T10:12:33.887Z</time>
      </trkpt>
      <trkpt lat="42.88376" lon="1.45065">
        <ele>1564.8</ele>
        <time>2015-10-31T10:12:40.912Z</time>
      </trkpt>
      <trkpt lat="42.88375" lon="1.45066">
        <ele>1564.9</ele>
        <time>2015-10-31T10:12:41.887Z</time>
      </trkpt>
      <trkpt lat="42.88371" lon="1.45076">
        <ele>1564.9</ele>
        <time>2015-10-31T10:12:47.921Z</time>
      </trkpt>
      <trkpt lat="42.8837" lon="1.45078">
        <ele>1564.9</ele>
        <time>2015-10-31T10:12:48.886Z</time>
      </trkpt>
      <trkpt lat="42.88366" lon="1.45087">
        <ele>1564.8</ele>
        <time>2015-10-31T10:12:53.911Z</time>
      </trkpt>
      <trkpt lat="42.88365" lon="1.45089">
        <ele>1564.7</ele>
        <time>2015-10-31T10:12:54.886Z</time>
      </trkpt>
      <trkpt lat="42.8836" lon="1.45098">
        <ele>1564.5</ele>
        <time>2015-10-31T10:13:00.912Z</time>
      </trkpt>
      <trkpt lat="42.88359" lon="1.45099">
        <ele>1564.6</ele>
        <time>2015-10-31T10:13:01.888Z</time>
      </trkpt>
      <trkpt lat="42.88352" lon="1.45105">
        <ele>1564.6</ele>
        <time>2015-10-31T10:13:08.911Z</time>
      </trkpt>
      <trkpt lat="42.88351" lon="1.45105">
        <ele>1564.6</ele>
        <time>2015-10-31T10:13:09.887Z</time>
      </trkpt>
      <trkpt lat="42.88343" lon="1.45108">
        <ele>1564.7</ele>
        <time>2015-10-31T10:13:15.911Z</time>
      </trkpt>
      <trkpt lat="42.88341" lon="1.45108">
        <ele>1564.7</ele>
        <time>2015-10-31T10:13:16.887Z</time>
      </trkpt>
      <trkpt lat="42.88333" lon="1.45112">
        <ele>1563.7</ele>
        <time>2015-10-31T10:13:22.912Z</time>
      </trkpt>
      <trkpt lat="42.88331" lon="1.45114">
        <ele>1563.5</ele>
        <time>2015-10-31T10:13:23.887Z</time>
      </trkpt>
      <trkpt lat="42.88325" lon="1.45122">
        <ele>1562.9</ele>
        <time>2015-10-31T10:13:29.026Z</time>
      </trkpt>
      <trkpt lat="42.88324" lon="1.45123">
        <ele>1562.9</ele>
        <time>2015-10-31T10:13:29.887Z</time>
      </trkpt>
      <trkpt lat="42.88316" lon="1.45129">
        <ele>1562.7</ele>
        <time>2015-10-31T10:13:34.911Z</time>
      </trkpt>
      <trkpt lat="42.88314" lon="1.45131">
        <ele>1562.6</ele>
        <time>2015-10-31T10:13:35.886Z</time>
      </trkpt>
      <trkpt lat="42.88307" lon="1.45137">
        <ele>1562.5</ele>
        <time>2015-10-31T10:13:40.911Z</time>
      </trkpt>
      <trkpt lat="42.88306" lon="1.45138">
        <ele>1562.5</ele>
        <time>2015-10-31T10:13:41.886Z</time>
      </trkpt>
      <trkpt lat="42.88299" lon="1.45143">
        <ele>1562.5</ele>
        <time>2015-10-31T10:13:46.913Z</time>
      </trkpt>
      <trkpt lat="42.88297" lon="1.45144">
        <ele>1562.6</ele>
        <time>2015-10-31T10:13:47.887Z</time>
      </trkpt>
      <trkpt lat="42.88291" lon="1.4515">
        <ele>1562.5</ele>
        <time>2015-10-31T10:13:52.912Z</time>
      </trkpt>
      <trkpt lat="42.8829" lon="1.45152">
        <ele>1562.5</ele>
        <time>2015-10-31T10:13:53.887Z</time>
      </trkpt>
      <trkpt lat="42.88283" lon="1.45157">
        <ele>1562.4</ele>
        <time>2015-10-31T10:13:58.912Z</time>
      </trkpt>
      <trkpt lat="42.88282" lon="1.45158">
        <ele>1562.4</ele>
        <time>2015-10-31T10:13:59.887Z</time>
      </trkpt>
      <trkpt lat="42.88274" lon="1.45163">
        <ele>1562.5</ele>
        <time>2015-10-31T10:14:04.912Z</time>
      </trkpt>
      <trkpt lat="42.88272" lon="1.45164">
        <ele>1562.4</ele>
        <time>2015-10-31T10:14:05.886Z</time>
      </trkpt>
      <trkpt lat="42.88264" lon="1.45167">
        <ele>1562.7</ele>
        <time>2015-10-31T10:14:10.911Z</time>
      </trkpt>
      <trkpt lat="42.88262" lon="1.45168">
        <ele>1562.7</ele>
        <time>2015-10-31T10:14:11.887Z</time>
      </trkpt>
      <trkpt lat="42.88255" lon="1.45173">
        <ele>1562.9</ele>
        <time>2015-10-31T10:14:16.912Z</time>
      </trkpt>
      <trkpt lat="42.88254" lon="1.45174">
        <ele>1563</ele>
        <time>2015-10-31T10:14:17.887Z</time>
      </trkpt>
      <trkpt lat="42.88247" lon="1.45179">
        <ele>1564.1</ele>
        <time>2015-10-31T10:14:23.911Z</time>
      </trkpt>
      <trkpt lat="42.88245" lon="1.4518">
        <ele>1564.2</ele>
        <time>2015-10-31T10:14:24.886Z</time>
      </trkpt>
      <trkpt lat="42.88238" lon="1.45185">
        <ele>1565.4</ele>
        <time>2015-10-31T10:14:30.912Z</time>
      </trkpt>
      <trkpt lat="42.88237" lon="1.45186">
        <ele>1565.6</ele>
        <time>2015-10-31T10:14:31.888Z</time>
      </trkpt>
      <trkpt lat="42.88228" lon="1.45189">
        <ele>1567.5</ele>
        <time>2015-10-31T10:14:37.913Z</time>
      </trkpt>
      <trkpt lat="42.88227" lon="1.4519">
        <ele>1567.7</ele>
        <time>2015-10-31T10:14:38.887Z</time>
      </trkpt>
      <trkpt lat="42.88219" lon="1.45194">
        <ele>1569.4</ele>
        <time>2015-10-31T10:14:44.911Z</time>
      </trkpt>
      <trkpt lat="42.88218" lon="1.45195">
        <ele>1569.7</ele>
        <time>2015-10-31T10:14:45.886Z</time>
      </trkpt>
      <trkpt lat="42.8821" lon="1.452">
        <ele>1572</ele>
        <time>2015-10-31T10:14:52.913Z</time>
      </trkpt>
      <trkpt lat="42.88209" lon="1.452">
        <ele>1572.3</ele>
        <time>2015-10-31T10:14:53.886Z</time>
      </trkpt>
      <trkpt lat="42.88201" lon="1.45203">
        <ele>1574</ele>
        <time>2015-10-31T10:14:59.912Z</time>
      </trkpt>
      <trkpt lat="42.882" lon="1.45203">
        <ele>1574.2</ele>
        <time>2015-10-31T10:15:00.893Z</time>
      </trkpt>
      <trkpt lat="42.88192" lon="1.45206">
        <ele>1575.6</ele>
        <time>2015-10-31T10:15:06.926Z</time>
      </trkpt>
      <trkpt lat="42.88191" lon="1.45206">
        <ele>1575.8</ele>
        <time>2015-10-31T10:15:07.888Z</time>
      </trkpt>
      <trkpt lat="42.88183" lon="1.4521">
        <ele>1577</ele>
        <time>2015-10-31T10:15:13.913Z</time>
      </trkpt>
      <trkpt lat="42.88181" lon="1.4521">
        <ele>1577.3</ele>
        <time>2015-10-31T10:15:14.887Z</time>
      </trkpt>
      <trkpt lat="42.88173" lon="1.4521">
        <ele>1578.5</ele>
        <time>2015-10-31T10:15:19.912Z</time>
      </trkpt>
      <trkpt lat="42.88172" lon="1.45211">
        <ele>1578.8</ele>
        <time>2015-10-31T10:15:20.887Z</time>
      </trkpt>
      <trkpt lat="42.88164" lon="1.45214">
        <ele>1580.4</ele>
        <time>2015-10-31T10:15:26.913Z</time>
      </trkpt>
      <trkpt lat="42.88162" lon="1.45215">
        <ele>1580.6</ele>
        <time>2015-10-31T10:15:27.887Z</time>
      </trkpt>
      <trkpt lat="42.88154" lon="1.45216">
        <ele>1582</ele>
        <time>2015-10-31T10:15:34.911Z</time>
      </trkpt>
      <trkpt lat="42.88153" lon="1.45217">
        <ele>1582.2</ele>
        <time>2015-10-31T10:15:35.887Z</time>
      </trkpt>
      <trkpt lat="42.88146" lon="1.45222">
        <ele>1583.1</ele>
        <time>2015-10-31T10:15:41.911Z</time>
      </trkpt>
      <trkpt lat="42.88145" lon="1.45223">
        <ele>1583.2</ele>
        <time>2015-10-31T10:15:42.887Z</time>
      </trkpt>
      <trkpt lat="42.88136" lon="1.45224">
        <ele>1581.6</ele>
        <time>2015-10-31T10:15:58.912Z</time>
      </trkpt>
      <trkpt lat="42.88134" lon="1.45224">
        <ele>1581.8</ele>
        <time>2015-10-31T10:15:59.887Z</time>
      </trkpt>
      <trkpt lat="42.88128" lon="1.4523">
        <ele>1581.7</ele>
        <time>2015-10-31T10:16:04.926Z</time>
      </trkpt>
      <trkpt lat="42.88127" lon="1.45231">
        <ele>1581.8</ele>
        <time>2015-10-31T10:16:05.887Z</time>
      </trkpt>
      <trkpt lat="42.88118" lon="1.45235">
        <ele>1582.2</ele>
        <time>2015-10-31T10:16:11.912Z</time>
      </trkpt>
      <trkpt lat="42.88117" lon="1.45235">
        <ele>1582.2</ele>
        <time>2015-10-31T10:16:12.887Z</time>
      </trkpt>
      <trkpt lat="42.8811" lon="1.45238">
        <ele>1582.5</ele>
        <time>2015-10-31T10:16:18.911Z</time>
      </trkpt>
      <trkpt lat="42.88108" lon="1.45238">
        <ele>1582.6</ele>
        <time>2015-10-31T10:16:19.888Z</time>
      </trkpt>
      <trkpt lat="42.88101" lon="1.45238">
        <ele>1582.8</ele>
        <time>2015-10-31T10:16:24.911Z</time>
      </trkpt>
      <trkpt lat="42.88099" lon="1.45238">
        <ele>1582.8</ele>
        <time>2015-10-31T10:16:25.888Z</time>
      </trkpt>
      <trkpt lat="42.8809" lon="1.45238">
        <ele>1583</ele>
        <time>2015-10-31T10:16:31.913Z</time>
      </trkpt>
      <trkpt lat="42.88089" lon="1.45239">
        <ele>1583.1</ele>
        <time>2015-10-31T10:16:32.887Z</time>
      </trkpt>
      <trkpt lat="42.88081" lon="1.45241">
        <ele>1583.5</ele>
        <time>2015-10-31T10:16:37.913Z</time>
      </trkpt>
      <trkpt lat="42.8808" lon="1.45242">
        <ele>1583.5</ele>
        <time>2015-10-31T10:16:38.886Z</time>
      </trkpt>
      <trkpt lat="42.88072" lon="1.45247">
        <ele>1583.8</ele>
        <time>2015-10-31T10:16:44.912Z</time>
      </trkpt>
      <trkpt lat="42.88071" lon="1.45248">
        <ele>1583.9</ele>
        <time>2015-10-31T10:16:45.886Z</time>
      </trkpt>
      <trkpt lat="42.88062" lon="1.45251">
        <ele>1584.3</ele>
        <time>2015-10-31T10:16:51.912Z</time>
      </trkpt>
      <trkpt lat="42.8806" lon="1.45251">
        <ele>1584.4</ele>
        <time>2015-10-31T10:16:52.887Z</time>
      </trkpt>
      <trkpt lat="42.88052" lon="1.45255">
        <ele>1585</ele>
        <time>2015-10-31T10:16:59.021Z</time>
      </trkpt>
      <trkpt lat="42.8805" lon="1.45255">
        <ele>1585.1</ele>
        <time>2015-10-31T10:16:59.887Z</time>
      </trkpt>
      <trkpt lat="42.88043" lon="1.45255">
        <ele>1585.7</ele>
        <time>2015-10-31T10:17:04.911Z</time>
      </trkpt>
      <trkpt lat="42.88041" lon="1.45255">
        <ele>1585.9</ele>
        <time>2015-10-31T10:17:05.886Z</time>
      </trkpt>
      <trkpt lat="42.88033" lon="1.45254">
        <ele>1587</ele>
        <time>2015-10-31T10:17:10.912Z</time>
      </trkpt>
      <trkpt lat="42.88031" lon="1.45254">
        <ele>1587.2</ele>
        <time>2015-10-31T10:17:11.887Z</time>
      </trkpt>
      <trkpt lat="42.88023" lon="1.45255">
        <ele>1588.4</ele>
        <time>2015-10-31T10:17:18.026Z</time>
      </trkpt>
      <trkpt lat="42.88022" lon="1.45256">
        <ele>1588.6</ele>
        <time>2015-10-31T10:17:18.886Z</time>
      </trkpt>
      <trkpt lat="42.88014" lon="1.45258">
        <ele>1589.5</ele>
        <time>2015-10-31T10:17:24.911Z</time>
      </trkpt>
      <trkpt lat="42.88012" lon="1.45259">
        <ele>1589.7</ele>
        <time>2015-10-31T10:17:25.888Z</time>
      </trkpt>
      <trkpt lat="42.88004" lon="1.4526">
        <ele>1590.6</ele>
        <time>2015-10-31T10:17:31.913Z</time>
      </trkpt>
      <trkpt lat="42.88002" lon="1.4526">
        <ele>1590.8</ele>
        <time>2015-10-31T10:17:32.882Z</time>
      </trkpt>
      <trkpt lat="42.87995" lon="1.45263">
        <ele>1591.5</ele>
        <time>2015-10-31T10:17:38.912Z</time>
      </trkpt>
      <trkpt lat="42.87993" lon="1.45263">
        <ele>1591.7</ele>
        <time>2015-10-31T10:17:39.887Z</time>
      </trkpt>
      <trkpt lat="42.87986" lon="1.45264">
        <ele>1592.2</ele>
        <time>2015-10-31T10:17:44.912Z</time>
      </trkpt>
      <trkpt lat="42.87984" lon="1.45263">
        <ele>1592.3</ele>
        <time>2015-10-31T10:17:45.886Z</time>
      </trkpt>
      <trkpt lat="42.87975" lon="1.45264">
        <ele>1592.7</ele>
        <time>2015-10-31T10:17:51.912Z</time>
      </trkpt>
      <trkpt lat="42.87974" lon="1.45264">
        <ele>1593</ele>
        <time>2015-10-31T10:17:52.898Z</time>
      </trkpt>
      <trkpt lat="42.87965" lon="1.45266">
        <ele>1593.8</ele>
        <time>2015-10-31T10:17:58.911Z</time>
      </trkpt>
      <trkpt lat="42.87964" lon="1.45266">
        <ele>1593.8</ele>
        <time>2015-10-31T10:17:59.887Z</time>
      </trkpt>
      <trkpt lat="42.87955" lon="1.45269">
        <ele>1593.7</ele>
        <time>2015-10-31T10:18:05.911Z</time>
      </trkpt>
      <trkpt lat="42.87954" lon="1.45269">
        <ele>1593.7</ele>
        <time>2015-10-31T10:18:06.887Z</time>
      </trkpt>
      <trkpt lat="42.87946" lon="1.45271">
        <ele>1593.8</ele>
        <time>2015-10-31T10:18:11.911Z</time>
      </trkpt>
      <trkpt lat="42.87944" lon="1.45271">
        <ele>1593.8</ele>
        <time>2015-10-31T10:18:12.887Z</time>
      </trkpt>
      <trkpt lat="42.87936" lon="1.45272">
        <ele>1594.2</ele>
        <time>2015-10-31T10:18:17.911Z</time>
      </trkpt>
      <trkpt lat="42.87934" lon="1.45272">
        <ele>1594.1</ele>
        <time>2015-10-31T10:18:18.886Z</time>
      </trkpt>
      <trkpt lat="42.87926" lon="1.45272">
        <ele>1594.2</ele>
        <time>2015-10-31T10:18:23.911Z</time>
      </trkpt>
      <trkpt lat="42.87924" lon="1.45271">
        <ele>1594.4</ele>
        <time>2015-10-31T10:18:24.887Z</time>
      </trkpt>
      <trkpt lat="42.87916" lon="1.4527">
        <ele>1594.5</ele>
        <time>2015-10-31T10:18:28.912Z</time>
      </trkpt>
      <trkpt lat="42.87914" lon="1.4527">
        <ele>1594.5</ele>
        <time>2015-10-31T10:18:29.886Z</time>
      </trkpt>
      <trkpt lat="42.87907" lon="1.45271">
        <ele>1594.4</ele>
        <time>2015-10-31T10:18:34.912Z</time>
      </trkpt>
      <trkpt lat="42.87905" lon="1.45271">
        <ele>1594.3</ele>
        <time>2015-10-31T10:18:35.887Z</time>
      </trkpt>
      <trkpt lat="42.87897" lon="1.45275">
        <ele>1594.6</ele>
        <time>2015-10-31T10:18:41.911Z</time>
      </trkpt>
      <trkpt lat="42.87895" lon="1.45276">
        <ele>1594.6</ele>
        <time>2015-10-31T10:18:42.886Z</time>
      </trkpt>
      <trkpt lat="42.87887" lon="1.45277">
        <ele>1595.5</ele>
        <time>2015-10-31T10:18:48.926Z</time>
      </trkpt>
      <trkpt lat="42.87885" lon="1.45278">
        <ele>1595.7</ele>
        <time>2015-10-31T10:18:49.888Z</time>
      </trkpt>
      <trkpt lat="42.87878" lon="1.45279">
        <ele>1596.1</ele>
        <time>2015-10-31T10:18:54.911Z</time>
      </trkpt>
      <trkpt lat="42.87876" lon="1.45279">
        <ele>1596.1</ele>
        <time>2015-10-31T10:18:55.888Z</time>
      </trkpt>
      <trkpt lat="42.87868" lon="1.45278">
        <ele>1591.3</ele>
        <time>2015-10-31T10:19:47.913Z</time>
      </trkpt>
      <trkpt lat="42.87866" lon="1.45278">
        <ele>1591.4</ele>
        <time>2015-10-31T10:19:48.887Z</time>
      </trkpt>
      <trkpt lat="42.87858" lon="1.4528">
        <ele>1591.3</ele>
        <time>2015-10-31T10:19:53.912Z</time>
      </trkpt>
      <trkpt lat="42.87857" lon="1.45279">
        <ele>1591.3</ele>
        <time>2015-10-31T10:19:54.887Z</time>
      </trkpt>
      <trkpt lat="42.87849" lon="1.45278">
        <ele>1590.9</ele>
        <time>2015-10-31T10:19:59.912Z</time>
      </trkpt>
      <trkpt lat="42.87847" lon="1.45278">
        <ele>1590.9</ele>
        <time>2015-10-31T10:20:00.887Z</time>
      </trkpt>
      <trkpt lat="42.87838" lon="1.45277">
        <ele>1590.6</ele>
        <time>2015-10-31T10:20:06.984Z</time>
      </trkpt>
      <trkpt lat="42.87837" lon="1.45276">
        <ele>1590.6</ele>
        <time>2015-10-31T10:20:07.888Z</time>
      </trkpt>
      <trkpt lat="42.87828" lon="1.45276">
        <ele>1590.2</ele>
        <time>2015-10-31T10:20:12.990Z</time>
      </trkpt>
      <trkpt lat="42.87826" lon="1.45276">
        <ele>1590.1</ele>
        <time>2015-10-31T10:20:13.888Z</time>
      </trkpt>
      <trkpt lat="42.87818" lon="1.45274">
        <ele>1589.8</ele>
        <time>2015-10-31T10:20:18.928Z</time>
      </trkpt>
      <trkpt lat="42.87817" lon="1.45274">
        <ele>1589.8</ele>
        <time>2015-10-31T10:20:19.888Z</time>
      </trkpt>
      <trkpt lat="42.8781" lon="1.4527">
        <ele>1589.6</ele>
        <time>2015-10-31T10:20:24.912Z</time>
      </trkpt>
      <trkpt lat="42.87808" lon="1.4527">
        <ele>1589.6</ele>
        <time>2015-10-31T10:20:25.888Z</time>
      </trkpt>
      <trkpt lat="42.87801" lon="1.45268">
        <ele>1589.5</ele>
        <time>2015-10-31T10:20:30.912Z</time>
      </trkpt>
      <trkpt lat="42.87799" lon="1.45268">
        <ele>1589.5</ele>
        <time>2015-10-31T10:20:31.888Z</time>
      </trkpt>
      <trkpt lat="42.87791" lon="1.45265">
        <ele>1588.9</ele>
        <time>2015-10-31T10:20:36.911Z</time>
      </trkpt>
      <trkpt lat="42.8779" lon="1.45264">
        <ele>1588.6</ele>
        <time>2015-10-31T10:20:37.888Z</time>
      </trkpt>
      <trkpt lat="42.87782" lon="1.45262">
        <ele>1587.8</ele>
        <time>2015-10-31T10:20:42.917Z</time>
      </trkpt>
      <trkpt lat="42.8778" lon="1.45262">
        <ele>1587.6</ele>
        <time>2015-10-31T10:20:43.888Z</time>
      </trkpt>
      <trkpt lat="42.87772" lon="1.45259">
        <ele>1587.3</ele>
        <time>2015-10-31T10:20:49.912Z</time>
      </trkpt>
      <trkpt lat="42.8777" lon="1.45259">
        <ele>1587.4</ele>
        <time>2015-10-31T10:20:50.887Z</time>
      </trkpt>
      <trkpt lat="42.87762" lon="1.45257">
        <ele>1587.2</ele>
        <time>2015-10-31T10:20:55.913Z</time>
      </trkpt>
      <trkpt lat="42.8776" lon="1.45256">
        <ele>1587.1</ele>
        <time>2015-10-31T10:20:56.887Z</time>
      </trkpt>
      <trkpt lat="42.87753" lon="1.45253">
        <ele>1586.8</ele>
        <time>2015-10-31T10:21:01.915Z</time>
      </trkpt>
      <trkpt lat="42.87751" lon="1.45252">
        <ele>1586.8</ele>
        <time>2015-10-31T10:21:02.887Z</time>
      </trkpt>
      <trkpt lat="42.87742" lon="1.45252">
        <ele>1586.7</ele>
        <time>2015-10-31T10:21:08.925Z</time>
      </trkpt>
      <trkpt lat="42.87741" lon="1.45251">
        <ele>1586.7</ele>
        <time>2015-10-31T10:21:09.886Z</time>
      </trkpt>
      <trkpt lat="42.87733" lon="1.45247">
        <ele>1586.5</ele>
        <time>2015-10-31T10:21:14.912Z</time>
      </trkpt>
      <trkpt lat="42.87732" lon="1.45247">
        <ele>1586.4</ele>
        <time>2015-10-31T10:21:15.887Z</time>
      </trkpt>
      <trkpt lat="42.87723" lon="1.45247">
        <ele>1586.5</ele>
        <time>2015-10-31T10:21:20.911Z</time>
      </trkpt>
      <trkpt lat="42.87721" lon="1.45247">
        <ele>1586.6</ele>
        <time>2015-10-31T10:21:21.887Z</time>
      </trkpt>
      <trkpt lat="42.87713" lon="1.45243">
        <ele>1587.1</ele>
        <time>2015-10-31T10:21:26.911Z</time>
      </trkpt>
      <trkpt lat="42.87711" lon="1.45242">
        <ele>1587.2</ele>
        <time>2015-10-31T10:21:27.887Z</time>
      </trkpt>
      <trkpt lat="42.87704" lon="1.45239">
        <ele>1587.6</ele>
        <time>2015-10-31T10:21:32.912Z</time>
      </trkpt>
      <trkpt lat="42.87702" lon="1.45238">
        <ele>1587.6</ele>
        <time>2015-10-31T10:21:33.887Z</time>
      </trkpt>
      <trkpt lat="42.87694" lon="1.45233">
        <ele>1587.7</ele>
        <time>2015-10-31T10:21:39.990Z</time>
      </trkpt>
      <trkpt lat="42.87693" lon="1.45232">
        <ele>1587.8</ele>
        <time>2015-10-31T10:21:40.887Z</time>
      </trkpt>
      <trkpt lat="42.87685" lon="1.45228">
        <ele>1587.8</ele>
        <time>2015-10-31T10:21:46.912Z</time>
      </trkpt>
      <trkpt lat="42.87683" lon="1.45227">
        <ele>1587.8</ele>
        <time>2015-10-31T10:21:47.887Z</time>
      </trkpt>
      <trkpt lat="42.87675" lon="1.45226">
        <ele>1588.1</ele>
        <time>2015-10-31T10:21:53.912Z</time>
      </trkpt>
      <trkpt lat="42.87674" lon="1.45225">
        <ele>1588.2</ele>
        <time>2015-10-31T10:21:54.882Z</time>
      </trkpt>
      <trkpt lat="42.87666" lon="1.45223">
        <ele>1588.3</ele>
        <time>2015-10-31T10:21:59.926Z</time>
      </trkpt>
      <trkpt lat="42.87664" lon="1.45223">
        <ele>1588.3</ele>
        <time>2015-10-31T10:22:00.887Z</time>
      </trkpt>
      <trkpt lat="42.87657" lon="1.45218">
        <ele>1588.1</ele>
        <time>2015-10-31T10:22:05.912Z</time>
      </trkpt>
      <trkpt lat="42.87655" lon="1.45216">
        <ele>1588.1</ele>
        <time>2015-10-31T10:22:06.887Z</time>
      </trkpt>
      <trkpt lat="42.87648" lon="1.45212">
        <ele>1587.6</ele>
        <time>2015-10-31T10:22:11.911Z</time>
      </trkpt>
      <trkpt lat="42.87646" lon="1.45212">
        <ele>1587.5</ele>
        <time>2015-10-31T10:22:12.887Z</time>
      </trkpt>
      <trkpt lat="42.87637" lon="1.4521">
        <ele>1586.7</ele>
        <time>2015-10-31T10:22:18.911Z</time>
      </trkpt>
      <trkpt lat="42.87636" lon="1.4521">
        <ele>1586.5</ele>
        <time>2015-10-31T10:22:19.888Z</time>
      </trkpt>
      <trkpt lat="42.87628" lon="1.45206">
        <ele>1586</ele>
        <time>2015-10-31T10:22:25.926Z</time>
      </trkpt>
      <trkpt lat="42.87626" lon="1.45205">
        <ele>1586</ele>
        <time>2015-10-31T10:22:26.887Z</time>
      </trkpt>
      <trkpt lat="42.8762" lon="1.45198">
        <ele>1585.8</ele>
        <time>2015-10-31T10:22:31.913Z</time>
      </trkpt>
      <trkpt lat="42.87618" lon="1.45196">
        <ele>1585.9</ele>
        <time>2015-10-31T10:22:32.887Z</time>
      </trkpt>
      <trkpt lat="42.87612" lon="1.45191">
        <ele>1586</ele>
        <time>2015-10-31T10:22:37.941Z</time>
      </trkpt>
      <trkpt lat="42.87611" lon="1.4519">
        <ele>1586</ele>
        <time>2015-10-31T10:22:38.887Z</time>
      </trkpt>
      <trkpt lat="42.87603" lon="1.45183">
        <ele>1585.8</ele>
        <time>2015-10-31T10:22:44.912Z</time>
      </trkpt>
      <trkpt lat="42.87602" lon="1.45182">
        <ele>1585.7</ele>
        <time>2015-10-31T10:22:45.886Z</time>
      </trkpt>
      <trkpt lat="42.87595" lon="1.45176">
        <ele>1585.5</ele>
        <time>2015-10-31T10:22:50.912Z</time>
      </trkpt>
      <trkpt lat="42.87594" lon="1.45176">
        <ele>1585.4</ele>
        <time>2015-10-31T10:22:51.887Z</time>
      </trkpt>
      <trkpt lat="42.87586" lon="1.45172">
        <ele>1584.9</ele>
        <time>2015-10-31T10:22:57.915Z</time>
      </trkpt>
      <trkpt lat="42.87585" lon="1.45171">
        <ele>1584.7</ele>
        <time>2015-10-31T10:22:58.887Z</time>
      </trkpt>
      <trkpt lat="42.87576" lon="1.45167">
        <ele>1584</ele>
        <time>2015-10-31T10:23:03.911Z</time>
      </trkpt>
      <trkpt lat="42.87574" lon="1.45166">
        <ele>1584</ele>
        <time>2015-10-31T10:23:04.887Z</time>
      </trkpt>
      <trkpt lat="42.87567" lon="1.45165">
        <ele>1583.9</ele>
        <time>2015-10-31T10:23:09.911Z</time>
      </trkpt>
      <trkpt lat="42.87565" lon="1.45164">
        <ele>1583.9</ele>
        <time>2015-10-31T10:23:10.887Z</time>
      </trkpt>
      <trkpt lat="42.87558" lon="1.45159">
        <ele>1583.4</ele>
        <time>2015-10-31T10:23:15.911Z</time>
      </trkpt>
      <trkpt lat="42.87557" lon="1.45157">
        <ele>1583.4</ele>
        <time>2015-10-31T10:23:16.887Z</time>
      </trkpt>
      <trkpt lat="42.8755" lon="1.4515">
        <ele>1583.4</ele>
        <time>2015-10-31T10:23:21.912Z</time>
      </trkpt>
      <trkpt lat="42.8755" lon="1.45149">
        <ele>1583.4</ele>
        <time>2015-10-31T10:23:22.887Z</time>
      </trkpt>
      <trkpt lat="42.87542" lon="1.45145">
        <ele>1583.1</ele>
        <time>2015-10-31T10:23:28.911Z</time>
      </trkpt>
      <trkpt lat="42.87541" lon="1.45145">
        <ele>1583</ele>
        <time>2015-10-31T10:23:29.887Z</time>
      </trkpt>
      <trkpt lat="42.87532" lon="1.45143">
        <ele>1582.5</ele>
        <time>2015-10-31T10:23:35.911Z</time>
      </trkpt>
      <trkpt lat="42.8753" lon="1.45142">
        <ele>1582.4</ele>
        <time>2015-10-31T10:23:36.887Z</time>
      </trkpt>
      <trkpt lat="42.87522" lon="1.4514">
        <ele>1581.8</ele>
        <time>2015-10-31T10:23:42.912Z</time>
      </trkpt>
      <trkpt lat="42.8752" lon="1.45138">
        <ele>1581.8</ele>
        <time>2015-10-31T10:23:43.888Z</time>
      </trkpt>
      <trkpt lat="42.87513" lon="1.45134">
        <ele>1581.4</ele>
        <time>2015-10-31T10:23:49.913Z</time>
      </trkpt>
      <trkpt lat="42.87511" lon="1.45133">
        <ele>1581.4</ele>
        <time>2015-10-31T10:23:50.887Z</time>
      </trkpt>
      <trkpt lat="42.87503" lon="1.45134">
        <ele>1581.4</ele>
        <time>2015-10-31T10:23:56.911Z</time>
      </trkpt>
      <trkpt lat="42.87501" lon="1.45134">
        <ele>1581.4</ele>
        <time>2015-10-31T10:23:57.887Z</time>
      </trkpt>
      <trkpt lat="42.87492" lon="1.45132">
        <ele>1581.6</ele>
        <time>2015-10-31T10:24:02.912Z</time>
      </trkpt>
      <trkpt lat="42.87491" lon="1.45132">
        <ele>1581.5</ele>
        <time>2015-10-31T10:24:03.887Z</time>
      </trkpt>
      <trkpt lat="42.87482" lon="1.45132">
        <ele>1581.2</ele>
        <time>2015-10-31T10:24:08.912Z</time>
      </trkpt>
      <trkpt lat="42.8748" lon="1.45132">
        <ele>1581.1</ele>
        <time>2015-10-31T10:24:09.887Z</time>
      </trkpt>
      <trkpt lat="42.87473" lon="1.45136">
        <ele>1581</ele>
        <time>2015-10-31T10:24:14.912Z</time>
      </trkpt>
      <trkpt lat="42.87471" lon="1.45136">
        <ele>1581</ele>
        <time>2015-10-31T10:24:15.886Z</time>
      </trkpt>
      <trkpt lat="42.87462" lon="1.45136">
        <ele>1581.3</ele>
        <time>2015-10-31T10:24:20.911Z</time>
      </trkpt>
      <trkpt lat="42.8746" lon="1.45136">
        <ele>1581.4</ele>
        <time>2015-10-31T10:24:21.887Z</time>
      </trkpt>
      <trkpt lat="42.87452" lon="1.45137">
        <ele>1581.3</ele>
        <time>2015-10-31T10:24:27.912Z</time>
      </trkpt>
      <trkpt lat="42.8745" lon="1.45138">
        <ele>1581.3</ele>
        <time>2015-10-31T10:24:28.887Z</time>
      </trkpt>
      <trkpt lat="42.87443" lon="1.4514">
        <ele>1581.6</ele>
        <time>2015-10-31T10:24:33.912Z</time>
      </trkpt>
      <trkpt lat="42.87441" lon="1.4514">
        <ele>1581.6</ele>
        <time>2015-10-31T10:24:34.887Z</time>
      </trkpt>
      <trkpt lat="42.87433" lon="1.45139">
        <ele>1581.9</ele>
        <time>2015-10-31T10:24:39.911Z</time>
      </trkpt>
      <trkpt lat="42.87431" lon="1.45139">
        <ele>1581.9</ele>
        <time>2015-10-31T10:24:40.887Z</time>
      </trkpt>
      <trkpt lat="42.87424" lon="1.4514">
        <ele>1581.8</ele>
        <time>2015-10-31T10:24:45.912Z</time>
      </trkpt>
      <trkpt lat="42.87422" lon="1.4514">
        <ele>1581.7</ele>
        <time>2015-10-31T10:24:46.887Z</time>
      </trkpt>
      <trkpt lat="42.87414" lon="1.45144">
        <ele>1581.7</ele>
        <time>2015-10-31T10:24:52.912Z</time>
      </trkpt>
      <trkpt lat="42.87412" lon="1.45143">
        <ele>1581.6</ele>
        <time>2015-10-31T10:24:53.887Z</time>
      </trkpt>
      <trkpt lat="42.87404" lon="1.45147">
        <ele>1581.8</ele>
        <time>2015-10-31T10:25:00.207Z</time>
      </trkpt>
      <trkpt lat="42.87403" lon="1.45147">
        <ele>1581.8</ele>
        <time>2015-10-31T10:25:00.900Z</time>
      </trkpt>
      <trkpt lat="42.87395" lon="1.45147">
        <ele>1581.8</ele>
        <time>2015-10-31T10:25:06.040Z</time>
      </trkpt>
      <trkpt lat="42.87393" lon="1.45147">
        <ele>1581.8</ele>
        <time>2015-10-31T10:25:06.887Z</time>
      </trkpt>
      <trkpt lat="42.87386" lon="1.45147">
        <ele>1581.9</ele>
        <time>2015-10-31T10:25:11.912Z</time>
      </trkpt>
      <trkpt lat="42.87384" lon="1.45147">
        <ele>1582</ele>
        <time>2015-10-31T10:25:12.887Z</time>
      </trkpt>
      <trkpt lat="42.87376" lon="1.45146">
        <ele>1582</ele>
        <time>2015-10-31T10:25:17.912Z</time>
      </trkpt>
      <trkpt lat="42.87375" lon="1.45146">
        <ele>1582.1</ele>
        <time>2015-10-31T10:25:18.887Z</time>
      </trkpt>
      <trkpt lat="42.87366" lon="1.45147">
        <ele>1582.6</ele>
        <time>2015-10-31T10:25:23.912Z</time>
      </trkpt>
      <trkpt lat="42.87365" lon="1.45147">
        <ele>1582.5</ele>
        <time>2015-10-31T10:25:24.887Z</time>
      </trkpt>
      <trkpt lat="42.87357" lon="1.4515">
        <ele>1582.1</ele>
        <time>2015-10-31T10:25:29.912Z</time>
      </trkpt>
      <trkpt lat="42.87356" lon="1.45151">
        <ele>1582</ele>
        <time>2015-10-31T10:25:30.887Z</time>
      </trkpt>
      <trkpt lat="42.87348" lon="1.45152">
        <ele>1581.6</ele>
        <time>2015-10-31T10:25:35.912Z</time>
      </trkpt>
      <trkpt lat="42.87347" lon="1.45151">
        <ele>1581.6</ele>
        <time>2015-10-31T10:25:36.887Z</time>
      </trkpt>
      <trkpt lat="42.87338" lon="1.4515">
        <ele>1581.5</ele>
        <time>2015-10-31T10:25:41.960Z</time>
      </trkpt>
      <trkpt lat="42.87336" lon="1.45149">
        <ele>1581.4</ele>
        <time>2015-10-31T10:25:42.887Z</time>
      </trkpt>
      <trkpt lat="42.87328" lon="1.4515">
        <ele>1580.8</ele>
        <time>2015-10-31T10:25:47.912Z</time>
      </trkpt>
      <trkpt lat="42.87326" lon="1.4515">
        <ele>1580.6</ele>
        <time>2015-10-31T10:25:48.887Z</time>
      </trkpt>
      <trkpt lat="42.87318" lon="1.45149">
        <ele>1579.7</ele>
        <time>2015-10-31T10:25:53.912Z</time>
      </trkpt>
      <trkpt lat="42.87317" lon="1.4515">
        <ele>1579.5</ele>
        <time>2015-10-31T10:25:54.887Z</time>
      </trkpt>
      <trkpt lat="42.87308" lon="1.45152">
        <ele>1578.6</ele>
        <time>2015-10-31T10:26:00.912Z</time>
      </trkpt>
      <trkpt lat="42.87307" lon="1.45153">
        <ele>1578.5</ele>
        <time>2015-10-31T10:26:01.888Z</time>
      </trkpt>
      <trkpt lat="42.87298" lon="1.45154">
        <ele>1577.8</ele>
        <time>2015-10-31T10:26:07.913Z</time>
      </trkpt>
      <trkpt lat="42.87296" lon="1.45154">
        <ele>1577.7</ele>
        <time>2015-10-31T10:26:08.887Z</time>
      </trkpt>
      <trkpt lat="42.87287" lon="1.45154">
        <ele>1577.1</ele>
        <time>2015-10-31T10:26:15.029Z</time>
      </trkpt>
      <trkpt lat="42.87286" lon="1.45154">
        <ele>1577.1</ele>
        <time>2015-10-31T10:26:15.887Z</time>
      </trkpt>
      <trkpt lat="42.87278" lon="1.45157">
        <ele>1577.1</ele>
        <time>2015-10-31T10:26:21.912Z</time>
      </trkpt>
      <trkpt lat="42.87276" lon="1.45157">
        <ele>1577</ele>
        <time>2015-10-31T10:26:22.887Z</time>
      </trkpt>
      <trkpt lat="42.87269" lon="1.45161">
        <ele>1577.1</ele>
        <time>2015-10-31T10:26:28.912Z</time>
      </trkpt>
      <trkpt lat="42.87267" lon="1.45162">
        <ele>1577.1</ele>
        <time>2015-10-31T10:26:29.887Z</time>
      </trkpt>
      <trkpt lat="42.87259" lon="1.45162">
        <ele>1577.2</ele>
        <time>2015-10-31T10:26:35.912Z</time>
      </trkpt>
      <trkpt lat="42.87258" lon="1.45162">
        <ele>1577.1</ele>
        <time>2015-10-31T10:26:36.887Z</time>
      </trkpt>
      <trkpt lat="42.87249" lon="1.4516">
        <ele>1577.1</ele>
        <time>2015-10-31T10:26:42.913Z</time>
      </trkpt>
      <trkpt lat="42.87248" lon="1.4516">
        <ele>1577.2</ele>
        <time>2015-10-31T10:26:43.888Z</time>
      </trkpt>
      <trkpt lat="42.8724" lon="1.45156">
        <ele>1577.5</ele>
        <time>2015-10-31T10:26:59.913Z</time>
      </trkpt>
      <trkpt lat="42.87239" lon="1.45155">
        <ele>1577.7</ele>
        <time>2015-10-31T10:27:00.887Z</time>
      </trkpt>
      <trkpt lat="42.8723" lon="1.45151">
        <ele>1578.5</ele>
        <time>2015-10-31T10:27:08.927Z</time>
      </trkpt>
      <trkpt lat="42.87229" lon="1.4515">
        <ele>1578.5</ele>
        <time>2015-10-31T10:27:09.886Z</time>
      </trkpt>
      <trkpt lat="42.87222" lon="1.45144">
        <ele>1578.8</ele>
        <time>2015-10-31T10:27:14.913Z</time>
      </trkpt>
      <trkpt lat="42.87221" lon="1.45144">
        <ele>1578.9</ele>
        <time>2015-10-31T10:27:15.886Z</time>
      </trkpt>
      <trkpt lat="42.87213" lon="1.45139">
        <ele>1579.2</ele>
        <time>2015-10-31T10:27:21.912Z</time>
      </trkpt>
      <trkpt lat="42.87211" lon="1.45138">
        <ele>1579.2</ele>
        <time>2015-10-31T10:27:22.887Z</time>
      </trkpt>
      <trkpt lat="42.87204" lon="1.45132">
        <ele>1579.6</ele>
        <time>2015-10-31T10:27:27.912Z</time>
      </trkpt>
      <trkpt lat="42.87203" lon="1.45131">
        <ele>1579.7</ele>
        <time>2015-10-31T10:27:28.887Z</time>
      </trkpt>
      <trkpt lat="42.87195" lon="1.45125">
        <ele>1580</ele>
        <time>2015-10-31T10:27:34.912Z</time>
      </trkpt>
      <trkpt lat="42.87194" lon="1.45125">
        <ele>1580.2</ele>
        <time>2015-10-31T10:27:35.887Z</time>
      </trkpt>
      <trkpt lat="42.87187" lon="1.45118">
        <ele>1581.2</ele>
        <time>2015-10-31T10:27:41.913Z</time>
      </trkpt>
      <trkpt lat="42.87186" lon="1.45117">
        <ele>1581.4</ele>
        <time>2015-10-31T10:27:43.045Z</time>
      </trkpt>
      <trkpt lat="42.87179" lon="1.45111">
        <ele>1582</ele>
        <time>2015-10-31T10:27:47.919Z</time>
      </trkpt>
      <trkpt lat="42.87178" lon="1.4511">
        <ele>1582.1</ele>
        <time>2015-10-31T10:27:48.889Z</time>
      </trkpt>
      <trkpt lat="42.87171" lon="1.45104">
        <ele>1582.9</ele>
        <time>2015-10-31T10:27:54.934Z</time>
      </trkpt>
      <trkpt lat="42.8717" lon="1.45103">
        <ele>1583</ele>
        <time>2015-10-31T10:27:55.907Z</time>
      </trkpt>
      <trkpt lat="42.87163" lon="1.45096">
        <ele>1583.4</ele>
        <time>2015-10-31T10:28:00.916Z</time>
      </trkpt>
      <trkpt lat="42.87162" lon="1.45095">
        <ele>1583.5</ele>
        <time>2015-10-31T10:28:01.890Z</time>
      </trkpt>
      <trkpt lat="42.87155" lon="1.45087">
        <ele>1583.8</ele>
        <time>2015-10-31T10:28:07.915Z</time>
      </trkpt>
      <trkpt lat="42.87155" lon="1.45086">
        <ele>1583.9</ele>
        <time>2015-10-31T10:28:08.887Z</time>
      </trkpt>
      <trkpt lat="42.87149" lon="1.45077">
        <ele>1584.5</ele>
        <time>2015-10-31T10:28:13.918Z</time>
      </trkpt>
      <trkpt lat="42.87147" lon="1.45077">
        <ele>1584.7</ele>
        <time>2015-10-31T10:28:14.888Z</time>
      </trkpt>
      <trkpt lat="42.87141" lon="1.4507">
        <ele>1585.5</ele>
        <time>2015-10-31T10:28:19.917Z</time>
      </trkpt>
      <trkpt lat="42.8714" lon="1.4507">
        <ele>1585.7</ele>
        <time>2015-10-31T10:28:20.887Z</time>
      </trkpt>
      <trkpt lat="42.87133" lon="1.45065">
        <ele>1586.4</ele>
        <time>2015-10-31T10:28:25.924Z</time>
      </trkpt>
      <trkpt lat="42.87131" lon="1.45064">
        <ele>1586.6</ele>
        <time>2015-10-31T10:28:26.887Z</time>
      </trkpt>
      <trkpt lat="42.87124" lon="1.45061">
        <ele>1587.1</ele>
        <time>2015-10-31T10:28:31.915Z</time>
      </trkpt>
      <trkpt lat="42.87123" lon="1.4506">
        <ele>1587.2</ele>
        <time>2015-10-31T10:28:32.887Z</time>
      </trkpt>
      <trkpt lat="42.87114" lon="1.45059">
        <ele>1587.4</ele>
        <time>2015-10-31T10:28:38.915Z</time>
      </trkpt>
      <trkpt lat="42.87112" lon="1.45058">
        <ele>1587.5</ele>
        <time>2015-10-31T10:28:39.888Z</time>
      </trkpt>
      <trkpt lat="42.87104" lon="1.45056">
        <ele>1588</ele>
        <time>2015-10-31T10:28:46.914Z</time>
      </trkpt>
      <trkpt lat="42.87102" lon="1.45054">
        <ele>1588.1</ele>
        <time>2015-10-31T10:28:47.888Z</time>
      </trkpt>
      <trkpt lat="42.87096" lon="1.45047">
        <ele>1589</ele>
        <time>2015-10-31T10:28:54.913Z</time>
      </trkpt>
      <trkpt lat="42.87095" lon="1.45047">
        <ele>1588.8</ele>
        <time>2015-10-31T10:28:55.890Z</time>
      </trkpt>
      <trkpt lat="42.87086" lon="1.45046">
        <ele>1584</ele>
        <time>2015-10-31T10:32:37.914Z</time>
      </trkpt>
      <trkpt lat="42.87085" lon="1.45044">
        <ele>1584.1</ele>
        <time>2015-10-31T10:32:38.887Z</time>
      </trkpt>
      <trkpt lat="42.87079" lon="1.45041">
        <ele>1584.8</ele>
        <time>2015-10-31T10:32:52.913Z</time>
      </trkpt>
      <trkpt lat="42.87075" lon="1.4504">
        <ele>1585</ele>
        <time>2015-10-31T10:32:53.887Z</time>
      </trkpt>
      <trkpt lat="42.87067" lon="1.45037">
        <ele>1585</ele>
        <time>2015-10-31T10:33:00.914Z</time>
      </trkpt>
      <trkpt lat="42.87066" lon="1.45037">
        <ele>1585</ele>
        <time>2015-10-31T10:33:01.888Z</time>
      </trkpt>
      <trkpt lat="42.87058" lon="1.45032">
        <ele>1585.5</ele>
        <time>2015-10-31T10:33:08.912Z</time>
      </trkpt>
      <trkpt lat="42.87057" lon="1.45032">
        <ele>1585.5</ele>
        <time>2015-10-31T10:33:09.887Z</time>
      </trkpt>
      <trkpt lat="42.87049" lon="1.45029">
        <ele>1585.7</ele>
        <time>2015-10-31T10:33:16.912Z</time>
      </trkpt>
      <trkpt lat="42.87048" lon="1.45029">
        <ele>1585.7</ele>
        <time>2015-10-31T10:33:17.887Z</time>
      </trkpt>
      <trkpt lat="42.87041" lon="1.45021">
        <ele>1586</ele>
        <time>2015-10-31T10:33:24.912Z</time>
      </trkpt>
      <trkpt lat="42.8704" lon="1.45021">
        <ele>1586.1</ele>
        <time>2015-10-31T10:33:25.889Z</time>
      </trkpt>
      <trkpt lat="42.87033" lon="1.45016">
        <ele>1586.6</ele>
        <time>2015-10-31T10:33:32.913Z</time>
      </trkpt>
      <trkpt lat="42.87031" lon="1.45015">
        <ele>1586.6</ele>
        <time>2015-10-31T10:33:33.887Z</time>
      </trkpt>
      <trkpt lat="42.87023" lon="1.45014">
        <ele>1587.4</ele>
        <time>2015-10-31T10:33:41.913Z</time>
      </trkpt>
      <trkpt lat="42.87022" lon="1.45014">
        <ele>1587.4</ele>
        <time>2015-10-31T10:33:42.888Z</time>
      </trkpt>
      <trkpt lat="42.87013" lon="1.45011">
        <ele>1588</ele>
        <time>2015-10-31T10:33:49.914Z</time>
      </trkpt>
      <trkpt lat="42.87012" lon="1.45011">
        <ele>1588.1</ele>
        <time>2015-10-31T10:33:50.887Z</time>
      </trkpt>
      <trkpt lat="42.87004" lon="1.45009">
        <ele>1589.5</ele>
        <time>2015-10-31T10:33:59.912Z</time>
      </trkpt>
      <trkpt lat="42.87003" lon="1.45009">
        <ele>1589.8</ele>
        <time>2015-10-31T10:34:00.887Z</time>
      </trkpt>
      <trkpt lat="42.86995" lon="1.45007">
        <ele>1591.7</ele>
        <time>2015-10-31T10:34:10.912Z</time>
      </trkpt>
      <trkpt lat="42.86994" lon="1.45006">
        <ele>1592.1</ele>
        <time>2015-10-31T10:34:11.887Z</time>
      </trkpt>
      <trkpt lat="42.86987" lon="1.44999">
        <ele>1595.6</ele>
        <time>2015-10-31T10:34:25.914Z</time>
      </trkpt>
      <trkpt lat="42.86987" lon="1.44999">
        <ele>1595.8</ele>
        <time>2015-10-31T10:34:26.887Z</time>
      </trkpt>
      <trkpt lat="42.86978" lon="1.44998">
        <ele>1599.7</ele>
        <time>2015-10-31T10:34:42.912Z</time>
      </trkpt>
      <trkpt lat="42.86977" lon="1.44998">
        <ele>1599.9</ele>
        <time>2015-10-31T10:34:43.888Z</time>
      </trkpt>
      <trkpt lat="42.86968" lon="1.44998">
        <ele>1604.3</ele>
        <time>2015-10-31T10:35:03.912Z</time>
      </trkpt>
      <trkpt lat="42.86968" lon="1.44998">
        <ele>1604.5</ele>
        <time>2015-10-31T10:35:04.887Z</time>
      </trkpt>
      <trkpt lat="42.86961" lon="1.44994">
        <ele>1608.9</ele>
        <time>2015-10-31T10:35:22.912Z</time>
      </trkpt>
      <trkpt lat="42.8696" lon="1.44993">
        <ele>1609.2</ele>
        <time>2015-10-31T10:35:23.887Z</time>
      </trkpt>
      <trkpt lat="42.86951" lon="1.44994">
        <ele>1613.1</ele>
        <time>2015-10-31T10:35:39.912Z</time>
      </trkpt>
      <trkpt lat="42.8695" lon="1.44994">
        <ele>1613.3</ele>
        <time>2015-10-31T10:35:40.887Z</time>
      </trkpt>
      <trkpt lat="42.86942" lon="1.4499">
        <ele>1617.1</ele>
        <time>2015-10-31T10:35:57.912Z</time>
      </trkpt>
      <trkpt lat="42.86941" lon="1.44989">
        <ele>1617.4</ele>
        <time>2015-10-31T10:35:58.887Z</time>
      </trkpt>
      <trkpt lat="42.86933" lon="1.44986">
        <ele>1621</ele>
        <time>2015-10-31T10:36:14.913Z</time>
      </trkpt>
      <trkpt lat="42.86932" lon="1.44985">
        <ele>1621.2</ele>
        <time>2015-10-31T10:36:15.887Z</time>
      </trkpt>
      <trkpt lat="42.86924" lon="1.44985">
        <ele>1623.9</ele>
        <time>2015-10-31T10:36:29.032Z</time>
      </trkpt>
      <trkpt lat="42.86923" lon="1.44985">
        <ele>1624.1</ele>
        <time>2015-10-31T10:36:29.887Z</time>
      </trkpt>
      <trkpt lat="42.86914" lon="1.44985">
        <ele>1626.7</ele>
        <time>2015-10-31T10:36:44.912Z</time>
      </trkpt>
      <trkpt lat="42.86914" lon="1.44984">
        <ele>1626.9</ele>
        <time>2015-10-31T10:36:45.888Z</time>
      </trkpt>
      <trkpt lat="42.86905" lon="1.44982">
        <ele>1628.7</ele>
        <time>2015-10-31T10:36:54.914Z</time>
      </trkpt>
      <trkpt lat="42.86904" lon="1.44983">
        <ele>1628.9</ele>
        <time>2015-10-31T10:36:55.890Z</time>
      </trkpt>
      <trkpt lat="42.86896" lon="1.44985">
        <ele>1631.9</ele>
        <time>2015-10-31T10:37:09.913Z</time>
      </trkpt>
      <trkpt lat="42.86895" lon="1.44985">
        <ele>1632.1</ele>
        <time>2015-10-31T10:37:10.888Z</time>
      </trkpt>
      <trkpt lat="42.86887" lon="1.44989">
        <ele>1635</ele>
        <time>2015-10-31T10:37:23.912Z</time>
      </trkpt>
      <trkpt lat="42.86886" lon="1.4499">
        <ele>1635.3</ele>
        <time>2015-10-31T10:37:24.888Z</time>
      </trkpt>
      <trkpt lat="42.86878" lon="1.44994">
        <ele>1638.4</ele>
        <time>2015-10-31T10:37:38.913Z</time>
      </trkpt>
      <trkpt lat="42.86877" lon="1.44995">
        <ele>1638.7</ele>
        <time>2015-10-31T10:37:39.888Z</time>
      </trkpt>
      <trkpt lat="42.8687" lon="1.45001">
        <ele>1641.3</ele>
        <time>2015-10-31T10:37:51.913Z</time>
      </trkpt>
      <trkpt lat="42.86869" lon="1.45002">
        <ele>1641.5</ele>
        <time>2015-10-31T10:37:52.888Z</time>
      </trkpt>
      <trkpt lat="42.86862" lon="1.45009">
        <ele>1644.3</ele>
        <time>2015-10-31T10:38:06.912Z</time>
      </trkpt>
      <trkpt lat="42.86861" lon="1.45009">
        <ele>1644.6</ele>
        <time>2015-10-31T10:38:07.889Z</time>
      </trkpt>
      <trkpt lat="42.86853" lon="1.45012">
        <ele>1647.8</ele>
        <time>2015-10-31T10:38:21.928Z</time>
      </trkpt>
      <trkpt lat="42.86852" lon="1.45012">
        <ele>1648</ele>
        <time>2015-10-31T10:38:22.887Z</time>
      </trkpt>
      <trkpt lat="42.86843" lon="1.45011">
        <ele>1651.4</ele>
        <time>2015-10-31T10:38:35.913Z</time>
      </trkpt>
      <trkpt lat="42.86842" lon="1.4501">
        <ele>1651.7</ele>
        <time>2015-10-31T10:38:36.887Z</time>
      </trkpt>
      <trkpt lat="42.86834" lon="1.45008">
        <ele>1654.8</ele>
        <time>2015-10-31T10:38:49.913Z</time>
      </trkpt>
      <trkpt lat="42.86833" lon="1.45008">
        <ele>1655.1</ele>
        <time>2015-10-31T10:38:50.887Z</time>
      </trkpt>
      <trkpt lat="42.86825" lon="1.45005">
        <ele>1657.3</ele>
        <time>2015-10-31T10:39:00.912Z</time>
      </trkpt>
      <trkpt lat="42.86824" lon="1.45005">
        <ele>1657.5</ele>
        <time>2015-10-31T10:39:01.888Z</time>
      </trkpt>
      <trkpt lat="42.86816" lon="1.45003">
        <ele>1659.3</ele>
        <time>2015-10-31T10:39:10.912Z</time>
      </trkpt>
      <trkpt lat="42.86815" lon="1.45003">
        <ele>1659.4</ele>
        <time>2015-10-31T10:39:11.887Z</time>
      </trkpt>
      <trkpt lat="42.86806" lon="1.45003">
        <ele>1660.9</ele>
        <time>2015-10-31T10:39:19.914Z</time>
      </trkpt>
      <trkpt lat="42.86805" lon="1.45003">
        <ele>1661.1</ele>
        <time>2015-10-31T10:39:20.888Z</time>
      </trkpt>
      <trkpt lat="42.86797" lon="1.45">
        <ele>1663.3</ele>
        <time>2015-10-31T10:39:30.921Z</time>
      </trkpt>
      <trkpt lat="42.86796" lon="1.44999">
        <ele>1663.5</ele>
        <time>2015-10-31T10:39:31.889Z</time>
      </trkpt>
      <trkpt lat="42.86787" lon="1.44997">
        <ele>1665.9</ele>
        <time>2015-10-31T10:39:43.914Z</time>
      </trkpt>
      <trkpt lat="42.86786" lon="1.44996">
        <ele>1666.1</ele>
        <time>2015-10-31T10:39:44.887Z</time>
      </trkpt>
      <trkpt lat="42.86778" lon="1.44993">
        <ele>1667.8</ele>
        <time>2015-10-31T10:39:52.913Z</time>
      </trkpt>
      <trkpt lat="42.86777" lon="1.44992">
        <ele>1668</ele>
        <time>2015-10-31T10:39:53.887Z</time>
      </trkpt>
      <trkpt lat="42.86769" lon="1.44991">
        <ele>1669.8</ele>
        <time>2015-10-31T10:40:02.911Z</time>
      </trkpt>
      <trkpt lat="42.86768" lon="1.44991">
        <ele>1670.1</ele>
        <time>2015-10-31T10:40:03.887Z</time>
      </trkpt>
      <trkpt lat="42.8676" lon="1.44989">
        <ele>1672.2</ele>
        <time>2015-10-31T10:40:11.912Z</time>
      </trkpt>
      <trkpt lat="42.86759" lon="1.44989">
        <ele>1672.4</ele>
        <time>2015-10-31T10:40:12.887Z</time>
      </trkpt>
      <trkpt lat="42.8675" lon="1.44988">
        <ele>1674.5</ele>
        <time>2015-10-31T10:40:21.912Z</time>
      </trkpt>
      <trkpt lat="42.86749" lon="1.44987">
        <ele>1674.7</ele>
        <time>2015-10-31T10:40:22.887Z</time>
      </trkpt>
      <trkpt lat="42.86742" lon="1.44987">
        <ele>1677.8</ele>
        <time>2015-10-31T10:41:09.912Z</time>
      </trkpt>
      <trkpt lat="42.8674" lon="1.44987">
        <ele>1676.8</ele>
        <time>2015-10-31T10:41:10.887Z</time>
      </trkpt>
      <trkpt lat="42.86732" lon="1.44989">
        <ele>1677.5</ele>
        <time>2015-10-31T10:41:17.913Z</time>
      </trkpt>
      <trkpt lat="42.86731" lon="1.44989">
        <ele>1677.5</ele>
        <time>2015-10-31T10:41:18.887Z</time>
      </trkpt>
      <trkpt lat="42.86722" lon="1.44991">
        <ele>1678.2</ele>
        <time>2015-10-31T10:41:27.912Z</time>
      </trkpt>
      <trkpt lat="42.86721" lon="1.44991">
        <ele>1678.3</ele>
        <time>2015-10-31T10:41:28.887Z</time>
      </trkpt>
      <trkpt lat="42.86713" lon="1.44991">
        <ele>1678.9</ele>
        <time>2015-10-31T10:41:37.914Z</time>
      </trkpt>
      <trkpt lat="42.86712" lon="1.44991">
        <ele>1679</ele>
        <time>2015-10-31T10:41:38.887Z</time>
      </trkpt>
      <trkpt lat="42.86704" lon="1.44988">
        <ele>1679.8</ele>
        <time>2015-10-31T10:41:49.914Z</time>
      </trkpt>
      <trkpt lat="42.86703" lon="1.44988">
        <ele>1679.9</ele>
        <time>2015-10-31T10:41:50.887Z</time>
      </trkpt>
      <trkpt lat="42.86696" lon="1.44995">
        <ele>1680.9</ele>
        <time>2015-10-31T10:42:00.920Z</time>
      </trkpt>
      <trkpt lat="42.86696" lon="1.44995">
        <ele>1681.1</ele>
        <time>2015-10-31T10:42:01.889Z</time>
      </trkpt>
      <trkpt lat="42.86688" lon="1.4499">
        <ele>1683</ele>
        <time>2015-10-31T10:42:15.027Z</time>
      </trkpt>
      <trkpt lat="42.86687" lon="1.4499">
        <ele>1683.2</ele>
        <time>2015-10-31T10:42:15.887Z</time>
      </trkpt>
      <trkpt lat="42.86678" lon="1.4499">
        <ele>1685</ele>
        <time>2015-10-31T10:42:28.912Z</time>
      </trkpt>
      <trkpt lat="42.86677" lon="1.44991">
        <ele>1685.1</ele>
        <time>2015-10-31T10:42:29.887Z</time>
      </trkpt>
      <trkpt lat="42.86669" lon="1.44994">
        <ele>1687</ele>
        <time>2015-10-31T10:42:42.912Z</time>
      </trkpt>
      <trkpt lat="42.86668" lon="1.44995">
        <ele>1687.2</ele>
        <time>2015-10-31T10:42:43.889Z</time>
      </trkpt>
      <trkpt lat="42.86661" lon="1.45002">
        <ele>1689.9</ele>
        <time>2015-10-31T10:42:59.912Z</time>
      </trkpt>
      <trkpt lat="42.8666" lon="1.45002">
        <ele>1690.2</ele>
        <time>2015-10-31T10:43:00.887Z</time>
      </trkpt>
      <trkpt lat="42.86655" lon="1.45011">
        <ele>1692</ele>
        <time>2015-10-31T10:43:12.912Z</time>
      </trkpt>
      <trkpt lat="42.86655" lon="1.45012">
        <ele>1692.1</ele>
        <time>2015-10-31T10:43:13.889Z</time>
      </trkpt>
      <trkpt lat="42.86649" lon="1.4502">
        <ele>1694.7</ele>
        <time>2015-10-31T10:43:27.912Z</time>
      </trkpt>
      <trkpt lat="42.86649" lon="1.45021">
        <ele>1694.8</ele>
        <time>2015-10-31T10:43:28.887Z</time>
      </trkpt>
      <trkpt lat="42.86643" lon="1.4503">
        <ele>1698</ele>
        <time>2015-10-31T10:43:44.912Z</time>
      </trkpt>
      <trkpt lat="42.86642" lon="1.4503">
        <ele>1698.2</ele>
        <time>2015-10-31T10:43:46.008Z</time>
      </trkpt>
      <trkpt lat="42.86634" lon="1.4503">
        <ele>1701.1</ele>
        <time>2015-10-31T10:43:59.912Z</time>
      </trkpt>
      <trkpt lat="42.86633" lon="1.45031">
        <ele>1701.3</ele>
        <time>2015-10-31T10:44:00.887Z</time>
      </trkpt>
      <trkpt lat="42.86625" lon="1.45031">
        <ele>1705.3</ele>
        <time>2015-10-31T10:44:20.912Z</time>
      </trkpt>
      <trkpt lat="42.86624" lon="1.45031">
        <ele>1705.6</ele>
        <time>2015-10-31T10:44:21.887Z</time>
      </trkpt>
      <trkpt lat="42.86615" lon="1.45033">
        <ele>1709.9</ele>
        <time>2015-10-31T10:44:40.913Z</time>
      </trkpt>
      <trkpt lat="42.86614" lon="1.45032">
        <ele>1710.1</ele>
        <time>2015-10-31T10:44:41.887Z</time>
      </trkpt>
      <trkpt lat="42.86606" lon="1.45031">
        <ele>1714.7</ele>
        <time>2015-10-31T10:45:01.915Z</time>
      </trkpt>
      <trkpt lat="42.86605" lon="1.4503">
        <ele>1714.9</ele>
        <time>2015-10-31T10:45:02.887Z</time>
      </trkpt>
      <trkpt lat="42.86597" lon="1.45026">
        <ele>1718.8</ele>
        <time>2015-10-31T10:45:18.912Z</time>
      </trkpt>
      <trkpt lat="42.86596" lon="1.45025">
        <ele>1719</ele>
        <time>2015-10-31T10:45:19.889Z</time>
      </trkpt>
      <trkpt lat="42.86588" lon="1.45021">
        <ele>1722.3</ele>
        <time>2015-10-31T10:45:32.912Z</time>
      </trkpt>
      <trkpt lat="42.86588" lon="1.4502">
        <ele>1722.5</ele>
        <time>2015-10-31T10:45:33.887Z</time>
      </trkpt>
      <trkpt lat="42.8658" lon="1.45021">
        <ele>1726</ele>
        <time>2015-10-31T10:45:48.913Z</time>
      </trkpt>
      <trkpt lat="42.86579" lon="1.45022">
        <ele>1726.2</ele>
        <time>2015-10-31T10:45:49.889Z</time>
      </trkpt>
      <trkpt lat="42.8657" lon="1.45023">
        <ele>1730.3</ele>
        <time>2015-10-31T10:46:06.912Z</time>
      </trkpt>
      <trkpt lat="42.86569" lon="1.45023">
        <ele>1730.5</ele>
        <time>2015-10-31T10:46:07.889Z</time>
      </trkpt>
      <trkpt lat="42.8656" lon="1.45019">
        <ele>1733.1</ele>
        <time>2015-10-31T10:46:20.912Z</time>
      </trkpt>
      <trkpt lat="42.8656" lon="1.45019">
        <ele>1733.4</ele>
        <time>2015-10-31T10:46:21.887Z</time>
      </trkpt>
      <trkpt lat="42.86552" lon="1.45015">
        <ele>1737.7</ele>
        <time>2015-10-31T10:46:39.912Z</time>
      </trkpt>
      <trkpt lat="42.86552" lon="1.45014">
        <ele>1737.9</ele>
        <time>2015-10-31T10:46:40.887Z</time>
      </trkpt>
      <trkpt lat="42.86544" lon="1.45009">
        <ele>1742.8</ele>
        <time>2015-10-31T10:46:58.912Z</time>
      </trkpt>
      <trkpt lat="42.86543" lon="1.45009">
        <ele>1743</ele>
        <time>2015-10-31T10:46:59.887Z</time>
      </trkpt>
      <trkpt lat="42.86536" lon="1.45002">
        <ele>1746.7</ele>
        <time>2015-10-31T10:47:15.923Z</time>
      </trkpt>
      <trkpt lat="42.86535" lon="1.45001">
        <ele>1747</ele>
        <time>2015-10-31T10:47:16.887Z</time>
      </trkpt>
      <trkpt lat="42.86527" lon="1.44998">
        <ele>1751.7</ele>
        <time>2015-10-31T10:47:34.912Z</time>
      </trkpt>
      <trkpt lat="42.86526" lon="1.44997">
        <ele>1751.9</ele>
        <time>2015-10-31T10:47:35.887Z</time>
      </trkpt>
      <trkpt lat="42.86519" lon="1.44991">
        <ele>1754.4</ele>
        <time>2015-10-31T10:47:46.913Z</time>
      </trkpt>
      <trkpt lat="42.86517" lon="1.44992">
        <ele>1754.7</ele>
        <time>2015-10-31T10:47:47.890Z</time>
      </trkpt>
      <trkpt lat="42.86516" lon="1.45003">
        <ele>1758.8</ele>
        <time>2015-10-31T10:48:16.914Z</time>
      </trkpt>
      <trkpt lat="42.86516" lon="1.45004">
        <ele>1758.9</ele>
        <time>2015-10-31T10:48:17.887Z</time>
      </trkpt>
      <trkpt lat="42.86513" lon="1.45016">
        <ele>1761</ele>
        <time>2015-10-31T10:48:31.914Z</time>
      </trkpt>
      <trkpt lat="42.86513" lon="1.45017">
        <ele>1761.1</ele>
        <time>2015-10-31T10:48:32.882Z</time>
      </trkpt>
      <trkpt lat="42.86511" lon="1.45029">
        <ele>1763.3</ele>
        <time>2015-10-31T10:48:47.912Z</time>
      </trkpt>
      <trkpt lat="42.86511" lon="1.45029">
        <ele>1763.4</ele>
        <time>2015-10-31T10:48:48.887Z</time>
      </trkpt>
      <trkpt lat="42.86509" lon="1.45041">
        <ele>1765.5</ele>
        <time>2015-10-31T10:49:03.911Z</time>
      </trkpt>
      <trkpt lat="42.86509" lon="1.45042">
        <ele>1765.7</ele>
        <time>2015-10-31T10:49:04.887Z</time>
      </trkpt>
      <trkpt lat="42.86505" lon="1.45052">
        <ele>1768.3</ele>
        <time>2015-10-31T10:49:19.914Z</time>
      </trkpt>
      <trkpt lat="42.86505" lon="1.45053">
        <ele>1768.4</ele>
        <time>2015-10-31T10:49:20.887Z</time>
      </trkpt>
      <trkpt lat="42.86501" lon="1.45064">
        <ele>1771.1</ele>
        <time>2015-10-31T10:49:35.912Z</time>
      </trkpt>
      <trkpt lat="42.86501" lon="1.45065">
        <ele>1771.2</ele>
        <time>2015-10-31T10:49:36.886Z</time>
      </trkpt>
      <trkpt lat="42.86496" lon="1.45073">
        <ele>1773</ele>
        <time>2015-10-31T10:49:49.023Z</time>
      </trkpt>
      <trkpt lat="42.86495" lon="1.45074">
        <ele>1773.2</ele>
        <time>2015-10-31T10:49:49.889Z</time>
      </trkpt>
      <trkpt lat="42.86486" lon="1.45076">
        <ele>1775.3</ele>
        <time>2015-10-31T10:50:01.915Z</time>
      </trkpt>
      <trkpt lat="42.86486" lon="1.45077">
        <ele>1775.5</ele>
        <time>2015-10-31T10:50:02.886Z</time>
      </trkpt>
      <trkpt lat="42.86477" lon="1.45077">
        <ele>1779.7</ele>
        <time>2015-10-31T10:50:19.913Z</time>
      </trkpt>
      <trkpt lat="42.86476" lon="1.45078">
        <ele>1779.9</ele>
        <time>2015-10-31T10:50:20.887Z</time>
      </trkpt>
      <trkpt lat="42.86468" lon="1.45079">
        <ele>1783.5</ele>
        <time>2015-10-31T10:50:37.914Z</time>
      </trkpt>
      <trkpt lat="42.86467" lon="1.45078">
        <ele>1783.7</ele>
        <time>2015-10-31T10:50:38.886Z</time>
      </trkpt>
      <trkpt lat="42.86458" lon="1.45078">
        <ele>1786.5</ele>
        <time>2015-10-31T10:50:53.911Z</time>
      </trkpt>
      <trkpt lat="42.86458" lon="1.45077">
        <ele>1786.8</ele>
        <time>2015-10-31T10:50:54.886Z</time>
      </trkpt>
      <trkpt lat="42.8645" lon="1.45078">
        <ele>1789.8</ele>
        <time>2015-10-31T10:51:09.912Z</time>
      </trkpt>
      <trkpt lat="42.86449" lon="1.45079">
        <ele>1790.1</ele>
        <time>2015-10-31T10:51:10.886Z</time>
      </trkpt>
      <trkpt lat="42.8644" lon="1.4508">
        <ele>1794</ele>
        <time>2015-10-31T10:51:28.911Z</time>
      </trkpt>
      <trkpt lat="42.86439" lon="1.4508">
        <ele>1794.3</ele>
        <time>2015-10-31T10:51:29.886Z</time>
      </trkpt>
      <trkpt lat="42.8643" lon="1.45078">
        <ele>1797.6</ele>
        <time>2015-10-31T10:51:45.913Z</time>
      </trkpt>
      <trkpt lat="42.8643" lon="1.45078">
        <ele>1797.8</ele>
        <time>2015-10-31T10:51:46.886Z</time>
      </trkpt>
      <trkpt lat="42.86421" lon="1.45076">
        <ele>1801.5</ele>
        <time>2015-10-31T10:52:01.914Z</time>
      </trkpt>
      <trkpt lat="42.8642" lon="1.45076">
        <ele>1801.8</ele>
        <time>2015-10-31T10:52:02.886Z</time>
      </trkpt>
      <trkpt lat="42.86412" lon="1.45074">
        <ele>1805.6</ele>
        <time>2015-10-31T10:52:18.925Z</time>
      </trkpt>
      <trkpt lat="42.86411" lon="1.45073">
        <ele>1805.8</ele>
        <time>2015-10-31T10:52:19.888Z</time>
      </trkpt>
      <trkpt lat="42.86403" lon="1.45068">
        <ele>1809</ele>
        <time>2015-10-31T10:52:32.911Z</time>
      </trkpt>
      <trkpt lat="42.86403" lon="1.45068">
        <ele>1809.3</ele>
        <time>2015-10-31T10:52:33.886Z</time>
      </trkpt>
      <trkpt lat="42.86395" lon="1.45067">
        <ele>1811.7</ele>
        <time>2015-10-31T10:52:44.912Z</time>
      </trkpt>
      <trkpt lat="42.86394" lon="1.45067">
        <ele>1811.9</ele>
        <time>2015-10-31T10:52:45.886Z</time>
      </trkpt>
      <trkpt lat="42.86386" lon="1.45062">
        <ele>1813.3</ele>
        <time>2015-10-31T10:53:07.913Z</time>
      </trkpt>
      <trkpt lat="42.86385" lon="1.45061">
        <ele>1813.3</ele>
        <time>2015-10-31T10:53:08.886Z</time>
      </trkpt>
      <trkpt lat="42.86377" lon="1.45058">
        <ele>1813.6</ele>
        <time>2015-10-31T10:53:16.912Z</time>
      </trkpt>
      <trkpt lat="42.86376" lon="1.45057">
        <ele>1813.6</ele>
        <time>2015-10-31T10:53:17.886Z</time>
      </trkpt>
      <trkpt lat="42.8637" lon="1.45047">
        <ele>1813.8</ele>
        <time>2015-10-31T10:53:23.927Z</time>
      </trkpt>
      <trkpt lat="42.8637" lon="1.45045">
        <ele>1813.8</ele>
        <time>2015-10-31T10:53:24.886Z</time>
      </trkpt>
      <trkpt lat="42.86365" lon="1.45037">
        <ele>1814</ele>
        <time>2015-10-31T10:53:32.911Z</time>
      </trkpt>
      <trkpt lat="42.86364" lon="1.45036">
        <ele>1814</ele>
        <time>2015-10-31T10:53:33.886Z</time>
      </trkpt>
      <trkpt lat="42.86357" lon="1.45029">
        <ele>1814.2</ele>
        <time>2015-10-31T10:53:40.911Z</time>
      </trkpt>
      <trkpt lat="42.86356" lon="1.45028">
        <ele>1814.1</ele>
        <time>2015-10-31T10:53:41.886Z</time>
      </trkpt>
      <trkpt lat="42.86348" lon="1.45034">
        <ele>1813.8</ele>
        <time>2015-10-31T10:53:50.911Z</time>
      </trkpt>
      <trkpt lat="42.86347" lon="1.45035">
        <ele>1813.8</ele>
        <time>2015-10-31T10:53:51.886Z</time>
      </trkpt>
      <trkpt lat="42.8634" lon="1.4504">
        <ele>1813.7</ele>
        <time>2015-10-31T10:53:59.990Z</time>
      </trkpt>
      <trkpt lat="42.86339" lon="1.45041">
        <ele>1813.7</ele>
        <time>2015-10-31T10:54:00.886Z</time>
      </trkpt>
      <trkpt lat="42.8633" lon="1.45044">
        <ele>1813.7</ele>
        <time>2015-10-31T10:54:09.911Z</time>
      </trkpt>
      <trkpt lat="42.86329" lon="1.45045">
        <ele>1813.7</ele>
        <time>2015-10-31T10:54:10.886Z</time>
      </trkpt>
      <trkpt lat="42.86321" lon="1.45049">
        <ele>1813.8</ele>
        <time>2015-10-31T10:54:19.913Z</time>
      </trkpt>
      <trkpt lat="42.86321" lon="1.45049">
        <ele>1813.8</ele>
        <time>2015-10-31T10:54:20.886Z</time>
      </trkpt>
      <trkpt lat="42.86312" lon="1.45048">
        <ele>1814.2</ele>
        <time>2015-10-31T10:54:30.911Z</time>
      </trkpt>
      <trkpt lat="42.86311" lon="1.45047">
        <ele>1814.2</ele>
        <time>2015-10-31T10:54:31.928Z</time>
      </trkpt>
      <trkpt lat="42.86304" lon="1.45041">
        <ele>1814.4</ele>
        <time>2015-10-31T10:54:39.910Z</time>
      </trkpt>
      <trkpt lat="42.86303" lon="1.4504">
        <ele>1814.4</ele>
        <time>2015-10-31T10:54:40.886Z</time>
      </trkpt>
      <trkpt lat="42.86295" lon="1.45041">
        <ele>1815.5</ele>
        <time>2015-10-31T10:54:52.911Z</time>
      </trkpt>
      <trkpt lat="42.86294" lon="1.45041">
        <ele>1815.6</ele>
        <time>2015-10-31T10:54:53.886Z</time>
      </trkpt>
      <trkpt lat="42.86285" lon="1.45038">
        <ele>1817.4</ele>
        <time>2015-10-31T10:55:07.928Z</time>
      </trkpt>
      <trkpt lat="42.86285" lon="1.45038">
        <ele>1817.7</ele>
        <time>2015-10-31T10:55:08.886Z</time>
      </trkpt>
      <trkpt lat="42.86278" lon="1.45044">
        <ele>1819.3</ele>
        <time>2015-10-31T10:55:19.041Z</time>
      </trkpt>
      <trkpt lat="42.86276" lon="1.45044">
        <ele>1819.5</ele>
        <time>2015-10-31T10:55:19.888Z</time>
      </trkpt>
      <trkpt lat="42.86268" lon="1.45047">
        <ele>1821.9</ele>
        <time>2015-10-31T10:55:33.911Z</time>
      </trkpt>
      <trkpt lat="42.86268" lon="1.45047">
        <ele>1822</ele>
        <time>2015-10-31T10:55:34.886Z</time>
      </trkpt>
      <trkpt lat="42.86259" lon="1.45051">
        <ele>1823.2</ele>
        <time>2015-10-31T10:55:43.913Z</time>
      </trkpt>
      <trkpt lat="42.86259" lon="1.45052">
        <ele>1823.2</ele>
        <time>2015-10-31T10:55:44.886Z</time>
      </trkpt>
      <trkpt lat="42.86251" lon="1.45059">
        <ele>1824.1</ele>
        <time>2015-10-31T10:55:51.912Z</time>
      </trkpt>
      <trkpt lat="42.8625" lon="1.45059">
        <ele>1824.2</ele>
        <time>2015-10-31T10:55:52.886Z</time>
      </trkpt>
      <trkpt lat="42.86242" lon="1.4506">
        <ele>1827.2</ele>
        <time>2015-10-31T10:56:27.911Z</time>
      </trkpt>
      <trkpt lat="42.86241" lon="1.45061">
        <ele>1827.2</ele>
        <time>2015-10-31T10:56:28.886Z</time>
      </trkpt>
      <trkpt lat="42.86232" lon="1.45056">
        <ele>1827.9</ele>
        <time>2015-10-31T10:56:38.911Z</time>
      </trkpt>
      <trkpt lat="42.86232" lon="1.45056">
        <ele>1827.9</ele>
        <time>2015-10-31T10:56:39.886Z</time>
      </trkpt>
      <trkpt lat="42.86223" lon="1.45053">
        <ele>1829.7</ele>
        <time>2015-10-31T10:57:04.911Z</time>
      </trkpt>
      <trkpt lat="42.86223" lon="1.45053">
        <ele>1829.8</ele>
        <time>2015-10-31T10:57:05.886Z</time>
      </trkpt>
      <trkpt lat="42.86215" lon="1.45059">
        <ele>1832.5</ele>
        <time>2015-10-31T10:57:31.922Z</time>
      </trkpt>
      <trkpt lat="42.86215" lon="1.4506">
        <ele>1832.6</ele>
        <time>2015-10-31T10:57:32.886Z</time>
      </trkpt>
      <trkpt lat="42.86208" lon="1.45068">
        <ele>1836.5</ele>
        <time>2015-10-31T10:57:58.911Z</time>
      </trkpt>
      <trkpt lat="42.86208" lon="1.45067">
        <ele>1836.7</ele>
        <time>2015-10-31T10:57:59.886Z</time>
      </trkpt>
      <trkpt lat="42.862" lon="1.45062">
        <ele>1841.6</ele>
        <time>2015-10-31T10:58:29.911Z</time>
      </trkpt>
      <trkpt lat="42.86199" lon="1.45061">
        <ele>1841.8</ele>
        <time>2015-10-31T10:58:30.886Z</time>
      </trkpt>
      <trkpt lat="42.86191" lon="1.45057">
        <ele>1853.3</ele>
        <time>2015-10-31T10:59:39.912Z</time>
      </trkpt>
      <trkpt lat="42.86189" lon="1.45055">
        <ele>1855.4</ele>
        <time>2015-10-31T10:59:40.886Z</time>
      </trkpt>
      <trkpt lat="42.8618" lon="1.45053">
        <ele>1864.4</ele>
        <time>2015-10-31T11:00:13.914Z</time>
      </trkpt>
      <trkpt lat="42.86179" lon="1.45052">
        <ele>1864.7</ele>
        <time>2015-10-31T11:00:14.886Z</time>
      </trkpt>
      <trkpt lat="42.86173" lon="1.45043">
        <ele>1868.1</ele>
        <time>2015-10-31T11:00:25.914Z</time>
      </trkpt>
      <trkpt lat="42.86173" lon="1.45042">
        <ele>1868.4</ele>
        <time>2015-10-31T11:00:26.887Z</time>
      </trkpt>
      <trkpt lat="42.86164" lon="1.45041">
        <ele>1871.6</ele>
        <time>2015-10-31T11:00:47.911Z</time>
      </trkpt>
      <trkpt lat="42.86163" lon="1.45042">
        <ele>1871.8</ele>
        <time>2015-10-31T11:00:48.887Z</time>
      </trkpt>
      <trkpt lat="42.8616" lon="1.4504">
        <ele>1872.6</ele>
        <time>2015-10-31T11:02:01.913Z</time>
      </trkpt>
      <trkpt lat="42.86153" lon="1.45039">
        <ele>1872.9</ele>
        <time>2015-10-31T11:02:02.886Z</time>
      </trkpt>
      <trkpt lat="42.86145" lon="1.45042">
        <ele>1872.6</ele>
        <time>2015-10-31T11:02:56.912Z</time>
      </trkpt>
      <trkpt lat="42.86144" lon="1.45043">
        <ele>1872.6</ele>
        <time>2015-10-31T11:02:58.008Z</time>
      </trkpt>
      <trkpt lat="42.86137" lon="1.4505">
        <ele>1869.8</ele>
        <time>2015-10-31T11:03:41.912Z</time>
      </trkpt>
      <trkpt lat="42.86135" lon="1.45053">
        <ele>1869.8</ele>
        <time>2015-10-31T11:03:42.887Z</time>
      </trkpt>
      <trkpt lat="42.86127" lon="1.4505">
        <ele>1867.4</ele>
        <time>2015-10-31T11:04:10.912Z</time>
      </trkpt>
      <trkpt lat="42.86126" lon="1.45049">
        <ele>1867.3</ele>
        <time>2015-10-31T11:04:11.887Z</time>
      </trkpt>
      <trkpt lat="42.86118" lon="1.45047">
        <ele>1866.7</ele>
        <time>2015-10-31T11:04:18.912Z</time>
      </trkpt>
      <trkpt lat="42.86117" lon="1.45046">
        <ele>1866.7</ele>
        <time>2015-10-31T11:04:19.888Z</time>
      </trkpt>
      <trkpt lat="42.86108" lon="1.45049">
        <ele>1866.1</ele>
        <time>2015-10-31T11:04:25.913Z</time>
      </trkpt>
      <trkpt lat="42.86107" lon="1.4505">
        <ele>1866.1</ele>
        <time>2015-10-31T11:04:26.886Z</time>
      </trkpt>
      <trkpt lat="42.86098" lon="1.45049">
        <ele>1864.1</ele>
        <time>2015-10-31T11:04:54.045Z</time>
      </trkpt>
      <trkpt lat="42.86098" lon="1.45048">
        <ele>1864</ele>
        <time>2015-10-31T11:04:54.887Z</time>
      </trkpt>
      <trkpt lat="42.86092" lon="1.45041">
        <ele>1864</ele>
        <time>2015-10-31T11:05:01.915Z</time>
      </trkpt>
      <trkpt lat="42.86091" lon="1.45039">
        <ele>1864</ele>
        <time>2015-10-31T11:05:02.887Z</time>
      </trkpt>
      <trkpt lat="42.86085" lon="1.4503">
        <ele>1864</ele>
        <time>2015-10-31T11:05:11.912Z</time>
      </trkpt>
      <trkpt lat="42.86085" lon="1.4503">
        <ele>1864</ele>
        <time>2015-10-31T11:05:12.887Z</time>
      </trkpt>
      <trkpt lat="42.86078" lon="1.45024">
        <ele>1863.9</ele>
        <time>2015-10-31T11:05:18.913Z</time>
      </trkpt>
      <trkpt lat="42.86076" lon="1.45024">
        <ele>1863.8</ele>
        <time>2015-10-31T11:05:19.888Z</time>
      </trkpt>
      <trkpt lat="42.86067" lon="1.45022">
        <ele>1862.3</ele>
        <time>2015-10-31T11:05:30.913Z</time>
      </trkpt>
      <trkpt lat="42.86067" lon="1.45022">
        <ele>1862.2</ele>
        <time>2015-10-31T11:05:31.888Z</time>
      </trkpt>
      <trkpt lat="42.86059" lon="1.45028">
        <ele>1856.6</ele>
        <time>2015-10-31T11:06:40.912Z</time>
      </trkpt>
      <trkpt lat="42.86059" lon="1.45028">
        <ele>1856.6</ele>
        <time>2015-10-31T11:06:41.887Z</time>
      </trkpt>
      <trkpt lat="42.86051" lon="1.4503">
        <ele>1856.2</ele>
        <time>2015-10-31T11:06:55.921Z</time>
      </trkpt>
      <trkpt lat="42.8605" lon="1.45031">
        <ele>1856.2</ele>
        <time>2015-10-31T11:06:56.887Z</time>
      </trkpt>
      <trkpt lat="42.86043" lon="1.45039">
        <ele>1855.4</ele>
        <time>2015-10-31T11:07:23.912Z</time>
      </trkpt>
      <trkpt lat="42.86043" lon="1.4504">
        <ele>1855.4</ele>
        <time>2015-10-31T11:07:24.887Z</time>
      </trkpt>
      <trkpt lat="42.86036" lon="1.45045">
        <ele>1855.4</ele>
        <time>2015-10-31T11:07:32.914Z</time>
      </trkpt>
      <trkpt lat="42.86034" lon="1.45045">
        <ele>1855.3</ele>
        <time>2015-10-31T11:07:33.888Z</time>
      </trkpt>
      <trkpt lat="42.86026" lon="1.45045">
        <ele>1854.8</ele>
        <time>2015-10-31T11:07:44.915Z</time>
      </trkpt>
      <trkpt lat="42.86025" lon="1.45044">
        <ele>1854.7</ele>
        <time>2015-10-31T11:07:45.888Z</time>
      </trkpt>
      <trkpt lat="42.86019" lon="1.45035">
        <ele>1854.5</ele>
        <time>2015-10-31T11:07:54.990Z</time>
      </trkpt>
      <trkpt lat="42.86019" lon="1.45034">
        <ele>1854.5</ele>
        <time>2015-10-31T11:07:55.896Z</time>
      </trkpt>
      <trkpt lat="42.8601" lon="1.45038">
        <ele>1854.6</ele>
        <time>2015-10-31T11:08:06.927Z</time>
      </trkpt>
      <trkpt lat="42.86009" lon="1.45039">
        <ele>1854.7</ele>
        <time>2015-10-31T11:08:07.889Z</time>
      </trkpt>
      <trkpt lat="42.86005" lon="1.45049">
        <ele>1855</ele>
        <time>2015-10-31T11:08:20.912Z</time>
      </trkpt>
      <trkpt lat="42.86005" lon="1.45049">
        <ele>1855.1</ele>
        <time>2015-10-31T11:08:21.887Z</time>
      </trkpt>
      <trkpt lat="42.86003" lon="1.45061">
        <ele>1855.5</ele>
        <time>2015-10-31T11:08:37.915Z</time>
      </trkpt>
      <trkpt lat="42.86003" lon="1.45062">
        <ele>1855.5</ele>
        <time>2015-10-31T11:08:38.888Z</time>
      </trkpt>
      <trkpt lat="42.85996" lon="1.45057">
        <ele>1857.2</ele>
        <time>2015-10-31T11:09:17.915Z</time>
      </trkpt>
      <trkpt lat="42.85995" lon="1.45057">
        <ele>1857.3</ele>
        <time>2015-10-31T11:09:18.888Z</time>
      </trkpt>
      <trkpt lat="42.85988" lon="1.45051">
        <ele>1858.7</ele>
        <time>2015-10-31T11:09:37.914Z</time>
      </trkpt>
      <trkpt lat="42.85987" lon="1.4505">
        <ele>1858.8</ele>
        <time>2015-10-31T11:09:38.887Z</time>
      </trkpt>
      <trkpt lat="42.85979" lon="1.45053">
        <ele>1860.3</ele>
        <time>2015-10-31T11:09:59.912Z</time>
      </trkpt>
      <trkpt lat="42.85978" lon="1.45053">
        <ele>1860.4</ele>
        <time>2015-10-31T11:10:00.887Z</time>
      </trkpt>
      <trkpt lat="42.85978" lon="1.45065">
        <ele>1866</ele>
        <time>2015-10-31T11:10:34.912Z</time>
      </trkpt>
      <trkpt lat="42.85977" lon="1.45066">
        <ele>1866.1</ele>
        <time>2015-10-31T11:10:35.886Z</time>
      </trkpt>
      <trkpt lat="42.85969" lon="1.45067">
        <ele>1868.6</ele>
        <time>2015-10-31T11:10:49.915Z</time>
      </trkpt>
      <trkpt lat="42.85968" lon="1.45066">
        <ele>1868.7</ele>
        <time>2015-10-31T11:10:50.886Z</time>
      </trkpt>
      <trkpt lat="42.8596" lon="1.45069">
        <ele>1875.9</ele>
        <time>2015-10-31T11:11:32.912Z</time>
      </trkpt>
      <trkpt lat="42.85959" lon="1.45069">
        <ele>1876</ele>
        <time>2015-10-31T11:11:33.886Z</time>
      </trkpt>
      <trkpt lat="42.8595" lon="1.45071">
        <ele>1883.4</ele>
        <time>2015-10-31T11:12:11.939Z</time>
      </trkpt>
      <trkpt lat="42.85949" lon="1.45071">
        <ele>1883.7</ele>
        <time>2015-10-31T11:12:12.886Z</time>
      </trkpt>
      <trkpt lat="42.85945" lon="1.45082">
        <ele>1887.1</ele>
        <time>2015-10-31T11:12:31.914Z</time>
      </trkpt>
      <trkpt lat="42.85944" lon="1.45082">
        <ele>1887.3</ele>
        <time>2015-10-31T11:12:32.887Z</time>
      </trkpt>
      <trkpt lat="42.85938" lon="1.4509">
        <ele>1889.9</ele>
        <time>2015-10-31T11:12:48.004Z</time>
      </trkpt>
      <trkpt lat="42.85937" lon="1.4509">
        <ele>1890.1</ele>
        <time>2015-10-31T11:12:48.886Z</time>
      </trkpt>
      <trkpt lat="42.85934" lon="1.45101">
        <ele>1892.5</ele>
        <time>2015-10-31T11:13:08.926Z</time>
      </trkpt>
      <trkpt lat="42.85934" lon="1.45102">
        <ele>1892.6</ele>
        <time>2015-10-31T11:13:09.886Z</time>
      </trkpt>
      <trkpt lat="42.85933" lon="1.45114">
        <ele>1895.1</ele>
        <time>2015-10-31T11:13:33.911Z</time>
      </trkpt>
      <trkpt lat="42.85933" lon="1.45114">
        <ele>1895.2</ele>
        <time>2015-10-31T11:13:34.886Z</time>
      </trkpt>
      <trkpt lat="42.85928" lon="1.45124">
        <ele>1896.6</ele>
        <time>2015-10-31T11:13:45.911Z</time>
      </trkpt>
      <trkpt lat="42.85928" lon="1.45125">
        <ele>1896.7</ele>
        <time>2015-10-31T11:13:46.886Z</time>
      </trkpt>
      <trkpt lat="42.85922" lon="1.45133">
        <ele>1898.3</ele>
        <time>2015-10-31T11:13:58.911Z</time>
      </trkpt>
      <trkpt lat="42.85922" lon="1.45134">
        <ele>1898.4</ele>
        <time>2015-10-31T11:13:59.901Z</time>
      </trkpt>
      <trkpt lat="42.85916" lon="1.45143">
        <ele>1907.7</ele>
        <time>2015-10-31T11:14:37.914Z</time>
      </trkpt>
      <trkpt lat="42.85914" lon="1.45142">
        <ele>1907.9</ele>
        <time>2015-10-31T11:14:38.886Z</time>
      </trkpt>
      <trkpt lat="42.85909" lon="1.45134">
        <ele>1908.9</ele>
        <time>2015-10-31T11:14:43.914Z</time>
      </trkpt>
      <trkpt lat="42.85908" lon="1.45132">
        <ele>1909.1</ele>
        <time>2015-10-31T11:14:44.886Z</time>
      </trkpt>
      <trkpt lat="42.85905" lon="1.45121">
        <ele>1910.3</ele>
        <time>2015-10-31T11:14:56.912Z</time>
      </trkpt>
      <trkpt lat="42.85906" lon="1.4512">
        <ele>1910.4</ele>
        <time>2015-10-31T11:14:57.893Z</time>
      </trkpt>
      <trkpt lat="42.85914" lon="1.45125">
        <ele>1934.2</ele>
        <time>2015-10-31T11:32:11.911Z</time>
      </trkpt>
      <trkpt lat="42.85915" lon="1.45126">
        <ele>1934.2</ele>
        <time>2015-10-31T11:32:12.887Z</time>
      </trkpt>
      <trkpt lat="42.85918" lon="1.45137">
        <ele>1933.5</ele>
        <time>2015-10-31T11:32:20.911Z</time>
      </trkpt>
      <trkpt lat="42.85919" lon="1.45137">
        <ele>1933.4</ele>
        <time>2015-10-31T11:32:21.886Z</time>
      </trkpt>
      <trkpt lat="42.85927" lon="1.45136">
        <ele>1932.6</ele>
        <time>2015-10-31T11:32:29.925Z</time>
      </trkpt>
      <trkpt lat="42.85928" lon="1.45134">
        <ele>1932.5</ele>
        <time>2015-10-31T11:32:30.886Z</time>
      </trkpt>
      <trkpt lat="42.85934" lon="1.45126">
        <ele>1931.8</ele>
        <time>2015-10-31T11:32:38.912Z</time>
      </trkpt>
      <trkpt lat="42.85935" lon="1.45126">
        <ele>1931.7</ele>
        <time>2015-10-31T11:32:39.887Z</time>
      </trkpt>
      <trkpt lat="42.85937" lon="1.45115">
        <ele>1930.9</ele>
        <time>2015-10-31T11:32:49.914Z</time>
      </trkpt>
      <trkpt lat="42.85937" lon="1.45114">
        <ele>1930.8</ele>
        <time>2015-10-31T11:32:50.887Z</time>
      </trkpt>
      <trkpt lat="42.85939" lon="1.45102">
        <ele>1929.3</ele>
        <time>2015-10-31T11:33:08.912Z</time>
      </trkpt>
      <trkpt lat="42.85939" lon="1.45101">
        <ele>1929.1</ele>
        <time>2015-10-31T11:33:09.886Z</time>
      </trkpt>
      <trkpt lat="42.85944" lon="1.45092">
        <ele>1927.4</ele>
        <time>2015-10-31T11:33:22.034Z</time>
      </trkpt>
      <trkpt lat="42.85944" lon="1.4509">
        <ele>1927.3</ele>
        <time>2015-10-31T11:33:22.886Z</time>
      </trkpt>
      <trkpt lat="42.85947" lon="1.45079">
        <ele>1926.2</ele>
        <time>2015-10-31T11:33:30.912Z</time>
      </trkpt>
      <trkpt lat="42.85948" lon="1.45078">
        <ele>1926</ele>
        <time>2015-10-31T11:33:31.888Z</time>
      </trkpt>
      <trkpt lat="42.85954" lon="1.45071">
        <ele>1924.1</ele>
        <time>2015-10-31T11:33:39.911Z</time>
      </trkpt>
      <trkpt lat="42.85955" lon="1.4507">
        <ele>1923.9</ele>
        <time>2015-10-31T11:33:40.886Z</time>
      </trkpt>
      <trkpt lat="42.85964" lon="1.45072">
        <ele>1920.3</ele>
        <time>2015-10-31T11:33:54.911Z</time>
      </trkpt>
      <trkpt lat="42.85965" lon="1.45072">
        <ele>1920.1</ele>
        <time>2015-10-31T11:33:55.888Z</time>
      </trkpt>
      <trkpt lat="42.85968" lon="1.4506">
        <ele>1916.5</ele>
        <time>2015-10-31T11:34:08.912Z</time>
      </trkpt>
      <trkpt lat="42.85968" lon="1.4506">
        <ele>1916.1</ele>
        <time>2015-10-31T11:34:09.886Z</time>
      </trkpt>
      <trkpt lat="42.85974" lon="1.45069">
        <ele>1911.1</ele>
        <time>2015-10-31T11:34:23.912Z</time>
      </trkpt>
      <trkpt lat="42.85974" lon="1.45069">
        <ele>1910.8</ele>
        <time>2015-10-31T11:34:24.887Z</time>
      </trkpt>
      <trkpt lat="42.8598" lon="1.4506">
        <ele>1907.6</ele>
        <time>2015-10-31T11:34:34.911Z</time>
      </trkpt>
      <trkpt lat="42.8598" lon="1.45059">
        <ele>1907.2</ele>
        <time>2015-10-31T11:34:35.886Z</time>
      </trkpt>
      <trkpt lat="42.85989" lon="1.45059">
        <ele>1899.3</ele>
        <time>2015-10-31T11:34:59.911Z</time>
      </trkpt>
      <trkpt lat="42.85989" lon="1.45059">
        <ele>1899</ele>
        <time>2015-10-31T11:35:00.886Z</time>
      </trkpt>
      <trkpt lat="42.85998" lon="1.45058">
        <ele>1889.8</ele>
        <time>2015-10-31T11:35:29.926Z</time>
      </trkpt>
      <trkpt lat="42.85999" lon="1.45059">
        <ele>1889.6</ele>
        <time>2015-10-31T11:35:30.886Z</time>
      </trkpt>
      <trkpt lat="42.86004" lon="1.45069">
        <ele>1886.6</ele>
        <time>2015-10-31T11:35:43.913Z</time>
      </trkpt>
      <trkpt lat="42.86004" lon="1.45069">
        <ele>1886.4</ele>
        <time>2015-10-31T11:35:44.887Z</time>
      </trkpt>
      <trkpt lat="42.8601" lon="1.4506">
        <ele>1882.7</ele>
        <time>2015-10-31T11:36:01.914Z</time>
      </trkpt>
      <trkpt lat="42.8601" lon="1.45059">
        <ele>1882.5</ele>
        <time>2015-10-31T11:36:02.887Z</time>
      </trkpt>
      <trkpt lat="42.86013" lon="1.45049">
        <ele>1880.5</ele>
        <time>2015-10-31T11:36:08.912Z</time>
      </trkpt>
      <trkpt lat="42.86014" lon="1.45047">
        <ele>1880.2</ele>
        <time>2015-10-31T11:36:09.886Z</time>
      </trkpt>
      <trkpt lat="42.86022" lon="1.45042">
        <ele>1878.3</ele>
        <time>2015-10-31T11:36:15.928Z</time>
      </trkpt>
      <trkpt lat="42.86022" lon="1.45041">
        <ele>1877.9</ele>
        <time>2015-10-31T11:36:16.887Z</time>
      </trkpt>
      <trkpt lat="42.86029" lon="1.45048">
        <ele>1871.7</ele>
        <time>2015-10-31T11:36:29.934Z</time>
      </trkpt>
      <trkpt lat="42.8603" lon="1.45048">
        <ele>1871.4</ele>
        <time>2015-10-31T11:36:30.887Z</time>
      </trkpt>
      <trkpt lat="42.86039" lon="1.45048">
        <ele>1868.2</ele>
        <time>2015-10-31T11:36:40.912Z</time>
      </trkpt>
      <trkpt lat="42.8604" lon="1.45048">
        <ele>1867.9</ele>
        <time>2015-10-31T11:36:41.887Z</time>
      </trkpt>
      <trkpt lat="42.86046" lon="1.4504">
        <ele>1865.5</ele>
        <time>2015-10-31T11:36:50.912Z</time>
      </trkpt>
      <trkpt lat="42.86046" lon="1.45039">
        <ele>1865.3</ele>
        <time>2015-10-31T11:36:51.887Z</time>
      </trkpt>
      <trkpt lat="42.86055" lon="1.45037">
        <ele>1859.7</ele>
        <time>2015-10-31T11:37:20.910Z</time>
      </trkpt>
      <trkpt lat="42.86056" lon="1.45037">
        <ele>1859.5</ele>
        <time>2015-10-31T11:37:21.885Z</time>
      </trkpt>
      <trkpt lat="42.86065" lon="1.45038">
        <ele>1857.8</ele>
        <time>2015-10-31T11:37:31.912Z</time>
      </trkpt>
      <trkpt lat="42.86065" lon="1.45039">
        <ele>1857.7</ele>
        <time>2015-10-31T11:37:32.917Z</time>
      </trkpt>
      <trkpt lat="42.86072" lon="1.45032">
        <ele>1856</ele>
        <time>2015-10-31T11:37:55.039Z</time>
      </trkpt>
      <trkpt lat="42.86073" lon="1.45032">
        <ele>1856</ele>
        <time>2015-10-31T11:37:55.887Z</time>
      </trkpt>
      <trkpt lat="42.86078" lon="1.45022">
        <ele>1856.3</ele>
        <time>2015-10-31T11:38:14.911Z</time>
      </trkpt>
      <trkpt lat="42.86079" lon="1.45022">
        <ele>1856.3</ele>
        <time>2015-10-31T11:38:15.885Z</time>
      </trkpt>
      <trkpt lat="42.86085" lon="1.45029">
        <ele>1857.1</ele>
        <time>2015-10-31T11:38:34.909Z</time>
      </trkpt>
      <trkpt lat="42.86086" lon="1.4503">
        <ele>1857.2</ele>
        <time>2015-10-31T11:38:35.885Z</time>
      </trkpt>
      <trkpt lat="42.86093" lon="1.45036">
        <ele>1857.7</ele>
        <time>2015-10-31T11:38:54.909Z</time>
      </trkpt>
      <trkpt lat="42.86094" lon="1.45036">
        <ele>1857.7</ele>
        <time>2015-10-31T11:38:55.887Z</time>
      </trkpt>
      <trkpt lat="42.86102" lon="1.45037">
        <ele>1857.9</ele>
        <time>2015-10-31T11:39:30.909Z</time>
      </trkpt>
      <trkpt lat="42.86103" lon="1.45038">
        <ele>1857.9</ele>
        <time>2015-10-31T11:39:31.887Z</time>
      </trkpt>
      <trkpt lat="42.86108" lon="1.45048">
        <ele>1856.9</ele>
        <time>2015-10-31T11:39:52.910Z</time>
      </trkpt>
      <trkpt lat="42.86109" lon="1.45047">
        <ele>1856.7</ele>
        <time>2015-10-31T11:39:53.884Z</time>
      </trkpt>
      <trkpt lat="42.86118" lon="1.45046">
        <ele>1856.1</ele>
        <time>2015-10-31T11:40:01.912Z</time>
      </trkpt>
      <trkpt lat="42.86118" lon="1.45047">
        <ele>1856.1</ele>
        <time>2015-10-31T11:40:02.899Z</time>
      </trkpt>
      <trkpt lat="42.86126" lon="1.45044">
        <ele>1855.4</ele>
        <time>2015-10-31T11:40:13.913Z</time>
      </trkpt>
      <trkpt lat="42.86127" lon="1.45044">
        <ele>1855.4</ele>
        <time>2015-10-31T11:40:14.884Z</time>
      </trkpt>
      <trkpt lat="42.86136" lon="1.45044">
        <ele>1854.9</ele>
        <time>2015-10-31T11:40:26.910Z</time>
      </trkpt>
      <trkpt lat="42.86136" lon="1.45044">
        <ele>1854.9</ele>
        <time>2015-10-31T11:40:27.885Z</time>
      </trkpt>
      <trkpt lat="42.86141" lon="1.45034">
        <ele>1856.7</ele>
        <time>2015-10-31T11:41:04.909Z</time>
      </trkpt>
      <trkpt lat="42.86141" lon="1.45034">
        <ele>1856.8</ele>
        <time>2015-10-31T11:41:05.885Z</time>
      </trkpt>
      <trkpt lat="42.8615" lon="1.45032">
        <ele>1859.1</ele>
        <time>2015-10-31T11:41:27.909Z</time>
      </trkpt>
      <trkpt lat="42.86151" lon="1.45034">
        <ele>1859.6</ele>
        <time>2015-10-31T11:41:28.885Z</time>
      </trkpt>
      <trkpt lat="42.86159" lon="1.45034">
        <ele>1864.4</ele>
        <time>2015-10-31T11:42:03.910Z</time>
      </trkpt>
      <trkpt lat="42.8616" lon="1.45034">
        <ele>1864.7</ele>
        <time>2015-10-31T11:42:04.900Z</time>
      </trkpt>
      <trkpt lat="42.86168" lon="1.45037">
        <ele>1867.5</ele>
        <time>2015-10-31T11:42:25.926Z</time>
      </trkpt>
      <trkpt lat="42.86171" lon="1.45039">
        <ele>1868.3</ele>
        <time>2015-10-31T11:42:26.885Z</time>
      </trkpt>
      <trkpt lat="42.86178" lon="1.45046">
        <ele>1871.4</ele>
        <time>2015-10-31T11:43:04.911Z</time>
      </trkpt>
      <trkpt lat="42.8618" lon="1.45048">
        <ele>1874.1</ele>
        <time>2015-10-31T11:43:05.885Z</time>
      </trkpt>
      <trkpt lat="42.86186" lon="1.45056">
        <ele>1874.5</ele>
        <time>2015-10-31T11:43:11.911Z</time>
      </trkpt>
      <trkpt lat="42.86187" lon="1.45057">
        <ele>1874.5</ele>
        <time>2015-10-31T11:43:12.885Z</time>
      </trkpt>
      <trkpt lat="42.86196" lon="1.45055">
        <ele>1874.2</ele>
        <time>2015-10-31T11:43:24.924Z</time>
      </trkpt>
      <trkpt lat="42.86196" lon="1.45055">
        <ele>1874.1</ele>
        <time>2015-10-31T11:43:25.887Z</time>
      </trkpt>
      <trkpt lat="42.86203" lon="1.45062">
        <ele>1872.8</ele>
        <time>2015-10-31T11:43:36.960Z</time>
      </trkpt>
      <trkpt lat="42.86203" lon="1.45063">
        <ele>1872.7</ele>
        <time>2015-10-31T11:43:37.888Z</time>
      </trkpt>
      <trkpt lat="42.86212" lon="1.45062">
        <ele>1869.7</ele>
        <time>2015-10-31T11:44:01.927Z</time>
      </trkpt>
      <trkpt lat="42.86212" lon="1.45063">
        <ele>1869.6</ele>
        <time>2015-10-31T11:44:02.885Z</time>
      </trkpt>
      <trkpt lat="42.86217" lon="1.45063">
        <ele>1867.2</ele>
        <time>2015-10-31T11:44:31.912Z</time>
      </trkpt>
      <trkpt lat="42.8622" lon="1.4507">
        <ele>1866.1</ele>
        <time>2015-10-31T11:44:32.885Z</time>
      </trkpt>
      <trkpt lat="42.86224" lon="1.45067">
        <ele>1864.3</ele>
        <time>2015-10-31T11:45:15.924Z</time>
      </trkpt>
      <trkpt lat="42.86228" lon="1.45062">
        <ele>1861.3</ele>
        <time>2015-10-31T11:45:16.885Z</time>
      </trkpt>
      <trkpt lat="42.86236" lon="1.45057">
        <ele>1856.1</ele>
        <time>2015-10-31T11:45:47.912Z</time>
      </trkpt>
      <trkpt lat="42.86236" lon="1.45057">
        <ele>1856</ele>
        <time>2015-10-31T11:45:48.885Z</time>
      </trkpt>
      <trkpt lat="42.86244" lon="1.45059">
        <ele>1853.1</ele>
        <time>2015-10-31T11:45:59.909Z</time>
      </trkpt>
      <trkpt lat="42.86246" lon="1.45059">
        <ele>1852.9</ele>
        <time>2015-10-31T11:46:00.885Z</time>
      </trkpt>
      <trkpt lat="42.86254" lon="1.45056">
        <ele>1851.2</ele>
        <time>2015-10-31T11:46:07.911Z</time>
      </trkpt>
      <trkpt lat="42.86255" lon="1.45055">
        <ele>1851</ele>
        <time>2015-10-31T11:46:08.885Z</time>
      </trkpt>
      <trkpt lat="42.86261" lon="1.45048">
        <ele>1848.6</ele>
        <time>2015-10-31T11:46:35.910Z</time>
      </trkpt>
      <trkpt lat="42.86265" lon="1.45049">
        <ele>1844.7</ele>
        <time>2015-10-31T11:46:36.885Z</time>
      </trkpt>
      <trkpt lat="42.86271" lon="1.45043">
        <ele>1844.2</ele>
        <time>2015-10-31T11:46:41.029Z</time>
      </trkpt>
      <trkpt lat="42.86273" lon="1.45042">
        <ele>1844.1</ele>
        <time>2015-10-31T11:46:41.885Z</time>
      </trkpt>
      <trkpt lat="42.8628" lon="1.4504">
        <ele>1843.7</ele>
        <time>2015-10-31T11:46:44.909Z</time>
      </trkpt>
      <trkpt lat="42.86282" lon="1.45039">
        <ele>1843.5</ele>
        <time>2015-10-31T11:46:45.885Z</time>
      </trkpt>
      <trkpt lat="42.86288" lon="1.45035">
        <ele>1843.2</ele>
        <time>2015-10-31T11:46:47.926Z</time>
      </trkpt>
      <trkpt lat="42.8629" lon="1.45033">
        <ele>1843</ele>
        <time>2015-10-31T11:46:48.885Z</time>
      </trkpt>
      <trkpt lat="42.86298" lon="1.45038">
        <ele>1840.8</ele>
        <time>2015-10-31T11:46:54.909Z</time>
      </trkpt>
      <trkpt lat="42.863" lon="1.45038">
        <ele>1840.5</ele>
        <time>2015-10-31T11:46:55.913Z</time>
      </trkpt>
      <trkpt lat="42.86308" lon="1.45041">
        <ele>1838.7</ele>
        <time>2015-10-31T11:47:00.924Z</time>
      </trkpt>
      <trkpt lat="42.86309" lon="1.45042">
        <ele>1838.2</ele>
        <time>2015-10-31T11:47:01.887Z</time>
      </trkpt>
      <trkpt lat="42.86316" lon="1.45047">
        <ele>1835.7</ele>
        <time>2015-10-31T11:47:06.910Z</time>
      </trkpt>
      <trkpt lat="42.86319" lon="1.45048">
        <ele>1835.3</ele>
        <time>2015-10-31T11:47:07.887Z</time>
      </trkpt>
      <trkpt lat="42.86325" lon="1.45052">
        <ele>1834</ele>
        <time>2015-10-31T11:47:10.910Z</time>
      </trkpt>
      <trkpt lat="42.86327" lon="1.45053">
        <ele>1833.3</ele>
        <time>2015-10-31T11:47:11.885Z</time>
      </trkpt>
      <trkpt lat="42.86336" lon="1.45055">
        <ele>1830.7</ele>
        <time>2015-10-31T11:47:14.910Z</time>
      </trkpt>
      <trkpt lat="42.86338" lon="1.45055">
        <ele>1830.1</ele>
        <time>2015-10-31T11:47:15.885Z</time>
      </trkpt>
      <trkpt lat="42.86347" lon="1.45057">
        <ele>1827.1</ele>
        <time>2015-10-31T11:47:18.990Z</time>
      </trkpt>
      <trkpt lat="42.86349" lon="1.45058">
        <ele>1825.9</ele>
        <time>2015-10-31T11:47:19.887Z</time>
      </trkpt>
      <trkpt lat="42.86356" lon="1.4506">
        <ele>1824.4</ele>
        <time>2015-10-31T11:47:21.939Z</time>
      </trkpt>
      <trkpt lat="42.86359" lon="1.4506">
        <ele>1822.4</ele>
        <time>2015-10-31T11:47:22.885Z</time>
      </trkpt>
      <trkpt lat="42.86367" lon="1.4506">
        <ele>1819.9</ele>
        <time>2015-10-31T11:47:25.912Z</time>
      </trkpt>
      <trkpt lat="42.86369" lon="1.4506">
        <ele>1819.2</ele>
        <time>2015-10-31T11:47:26.885Z</time>
      </trkpt>
      <trkpt lat="42.86376" lon="1.45058">
        <ele>1816.2</ele>
        <time>2015-10-31T11:47:29.911Z</time>
      </trkpt>
      <trkpt lat="42.86379" lon="1.45058">
        <ele>1815.5</ele>
        <time>2015-10-31T11:47:30.885Z</time>
      </trkpt>
      <trkpt lat="42.86381" lon="1.45047">
        <ele>1811.1</ele>
        <time>2015-10-31T11:47:36.909Z</time>
      </trkpt>
      <trkpt lat="42.86382" lon="1.45045">
        <ele>1810.5</ele>
        <time>2015-10-31T11:47:37.887Z</time>
      </trkpt>
      <trkpt lat="42.86388" lon="1.4504">
        <ele>1807.8</ele>
        <time>2015-10-31T11:47:43.913Z</time>
      </trkpt>
      <trkpt lat="42.8639" lon="1.45039">
        <ele>1807.6</ele>
        <time>2015-10-31T11:47:44.885Z</time>
      </trkpt>
      <trkpt lat="42.86397" lon="1.45037">
        <ele>1807</ele>
        <time>2015-10-31T11:47:50.933Z</time>
      </trkpt>
      <trkpt lat="42.86399" lon="1.45036">
        <ele>1806.8</ele>
        <time>2015-10-31T11:47:51.885Z</time>
      </trkpt>
      <trkpt lat="42.86407" lon="1.45032">
        <ele>1806</ele>
        <time>2015-10-31T11:47:57.909Z</time>
      </trkpt>
      <trkpt lat="42.86408" lon="1.45032">
        <ele>1805.8</ele>
        <time>2015-10-31T11:47:58.885Z</time>
      </trkpt>
      <trkpt lat="42.86417" lon="1.45035">
        <ele>1804.9</ele>
        <time>2015-10-31T11:48:04.910Z</time>
      </trkpt>
      <trkpt lat="42.86419" lon="1.45036">
        <ele>1804.8</ele>
        <time>2015-10-31T11:48:05.885Z</time>
      </trkpt>
      <trkpt lat="42.86427" lon="1.4504">
        <ele>1803.4</ele>
        <time>2015-10-31T11:48:12.911Z</time>
      </trkpt>
      <trkpt lat="42.86428" lon="1.45041">
        <ele>1803</ele>
        <time>2015-10-31T11:48:13.899Z</time>
      </trkpt>
      <trkpt lat="42.86431" lon="1.45042">
        <ele>1802.3</ele>
        <time>2015-10-31T11:48:15.910Z</time>
      </trkpt>
      <trkpt lat="42.86432" lon="1.45043">
        <ele>1802.1</ele>
        <time>2015-10-31T11:48:16.885Z</time>
      </trkpt>
      <trkpt lat="42.86437" lon="1.45049">
        <ele>1800.5</ele>
        <time>2015-10-31T11:48:22.911Z</time>
      </trkpt>
      <trkpt lat="42.86439" lon="1.45051">
        <ele>1800.2</ele>
        <time>2015-10-31T11:48:23.885Z</time>
      </trkpt>
      <trkpt lat="42.86446" lon="1.45054">
        <ele>1798.4</ele>
        <time>2015-10-31T11:48:29.909Z</time>
      </trkpt>
      <trkpt lat="42.86448" lon="1.45055">
        <ele>1798.1</ele>
        <time>2015-10-31T11:48:30.885Z</time>
      </trkpt>
      <trkpt lat="42.86452" lon="1.45065">
        <ele>1796.6</ele>
        <time>2015-10-31T11:48:35.924Z</time>
      </trkpt>
      <trkpt lat="42.86453" lon="1.45066">
        <ele>1796.3</ele>
        <time>2015-10-31T11:48:36.885Z</time>
      </trkpt>
      <trkpt lat="42.86457" lon="1.45075">
        <ele>1794.7</ele>
        <time>2015-10-31T11:48:41.910Z</time>
      </trkpt>
      <trkpt lat="42.86459" lon="1.45076">
        <ele>1794.4</ele>
        <time>2015-10-31T11:48:42.885Z</time>
      </trkpt>
      <trkpt lat="42.86467" lon="1.45075">
        <ele>1793</ele>
        <time>2015-10-31T11:48:47.911Z</time>
      </trkpt>
      <trkpt lat="42.8647" lon="1.45075">
        <ele>1792.5</ele>
        <time>2015-10-31T11:48:48.885Z</time>
      </trkpt>
      <trkpt lat="42.86478" lon="1.45073">
        <ele>1790.8</ele>
        <time>2015-10-31T11:48:52.910Z</time>
      </trkpt>
      <trkpt lat="42.8648" lon="1.45073">
        <ele>1790.4</ele>
        <time>2015-10-31T11:48:53.884Z</time>
      </trkpt>
      <trkpt lat="42.86488" lon="1.45074">
        <ele>1787.7</ele>
        <time>2015-10-31T11:48:57.909Z</time>
      </trkpt>
      <trkpt lat="42.86491" lon="1.45075">
        <ele>1787.5</ele>
        <time>2015-10-31T11:48:58.885Z</time>
      </trkpt>
      <trkpt lat="42.86498" lon="1.45075">
        <ele>1785.7</ele>
        <time>2015-10-31T11:49:01.913Z</time>
      </trkpt>
      <trkpt lat="42.865" lon="1.45074">
        <ele>1785.3</ele>
        <time>2015-10-31T11:49:02.885Z</time>
      </trkpt>
      <trkpt lat="42.86508" lon="1.45074">
        <ele>1782.8</ele>
        <time>2015-10-31T11:49:06.910Z</time>
      </trkpt>
      <trkpt lat="42.8651" lon="1.45074">
        <ele>1782.4</ele>
        <time>2015-10-31T11:49:07.901Z</time>
      </trkpt>
      <trkpt lat="42.86518" lon="1.45073">
        <ele>1778</ele>
        <time>2015-10-31T11:49:12.910Z</time>
      </trkpt>
      <trkpt lat="42.86519" lon="1.45073">
        <ele>1777.6</ele>
        <time>2015-10-31T11:49:13.886Z</time>
      </trkpt>
      <trkpt lat="42.86528" lon="1.4507">
        <ele>1774.3</ele>
        <time>2015-10-31T11:49:20.910Z</time>
      </trkpt>
      <trkpt lat="42.8653" lon="1.45071">
        <ele>1773.8</ele>
        <time>2015-10-31T11:49:21.885Z</time>
      </trkpt>
      <trkpt lat="42.86539" lon="1.45071">
        <ele>1771.7</ele>
        <time>2015-10-31T11:49:35.972Z</time>
      </trkpt>
      <trkpt lat="42.86542" lon="1.45072">
        <ele>1772.9</ele>
        <time>2015-10-31T11:49:36.885Z</time>
      </trkpt>
      <trkpt lat="42.86542" lon="1.45072">
        <ele>1772.9</ele>
        <time>2015-10-31T11:49:36.914Z</time>
      </trkpt>
      <trkpt lat="42.86544" lon="1.45071">
        <ele>1772.9</ele>
        <time>2015-10-31T11:49:37.912Z</time>
      </trkpt>
      <trkpt lat="42.86545" lon="1.45071">
        <ele>1772.8</ele>
        <time>2015-10-31T11:49:38.885Z</time>
      </trkpt>
      <trkpt lat="42.86554" lon="1.45071">
        <ele>1771.2</ele>
        <time>2015-10-31T11:49:45.910Z</time>
      </trkpt>
      <trkpt lat="42.86555" lon="1.45071">
        <ele>1770.7</ele>
        <time>2015-10-31T11:49:46.885Z</time>
      </trkpt>
      <trkpt lat="42.86563" lon="1.45068">
        <ele>1767.2</ele>
        <time>2015-10-31T11:49:53.910Z</time>
      </trkpt>
      <trkpt lat="42.86564" lon="1.45068">
        <ele>1766.7</ele>
        <time>2015-10-31T11:49:54.885Z</time>
      </trkpt>
      <trkpt lat="42.86572" lon="1.45067">
        <ele>1763.7</ele>
        <time>2015-10-31T11:49:59.910Z</time>
      </trkpt>
      <trkpt lat="42.86574" lon="1.45067">
        <ele>1763.1</ele>
        <time>2015-10-31T11:50:00.899Z</time>
      </trkpt>
      <trkpt lat="42.86583" lon="1.45065">
        <ele>1758.1</ele>
        <time>2015-10-31T11:50:07.912Z</time>
      </trkpt>
      <trkpt lat="42.86583" lon="1.45064">
        <ele>1757.6</ele>
        <time>2015-10-31T11:50:08.885Z</time>
      </trkpt>
      <trkpt lat="42.86588" lon="1.45063">
        <ele>1754.3</ele>
        <time>2015-10-31T11:50:21.911Z</time>
      </trkpt>
      <trkpt lat="42.8659" lon="1.45064">
        <ele>1753.9</ele>
        <time>2015-10-31T11:50:22.994Z</time>
      </trkpt>
      <trkpt lat="42.86591" lon="1.45065">
        <ele>1753.7</ele>
        <time>2015-10-31T11:50:23.911Z</time>
      </trkpt>
      <trkpt lat="42.86592" lon="1.45065">
        <ele>1753.5</ele>
        <time>2015-10-31T11:50:24.885Z</time>
      </trkpt>
      <trkpt lat="42.866" lon="1.45062">
        <ele>1751.7</ele>
        <time>2015-10-31T11:50:30.910Z</time>
      </trkpt>
      <trkpt lat="42.86601" lon="1.45062">
        <ele>1751.4</ele>
        <time>2015-10-31T11:50:31.887Z</time>
      </trkpt>
      <trkpt lat="42.86605" lon="1.45051">
        <ele>1747.5</ele>
        <time>2015-10-31T11:50:51.910Z</time>
      </trkpt>
      <trkpt lat="42.86605" lon="1.4505">
        <ele>1747.4</ele>
        <time>2015-10-31T11:50:52.886Z</time>
      </trkpt>
      <trkpt lat="42.86608" lon="1.4504">
        <ele>1745.1</ele>
        <time>2015-10-31T11:51:01.913Z</time>
      </trkpt>
      <trkpt lat="42.86608" lon="1.45038">
        <ele>1744.8</ele>
        <time>2015-10-31T11:51:02.895Z</time>
      </trkpt>
      <trkpt lat="42.86615" lon="1.45032">
        <ele>1737.9</ele>
        <time>2015-10-31T11:51:27.915Z</time>
      </trkpt>
      <trkpt lat="42.86617" lon="1.45032">
        <ele>1737.8</ele>
        <time>2015-10-31T11:51:28.887Z</time>
      </trkpt>
      <trkpt lat="42.86625" lon="1.45033">
        <ele>1737.3</ele>
        <time>2015-10-31T11:51:32.913Z</time>
      </trkpt>
      <trkpt lat="42.86627" lon="1.45033">
        <ele>1737.2</ele>
        <time>2015-10-31T11:51:33.888Z</time>
      </trkpt>
      <trkpt lat="42.86635" lon="1.45031">
        <ele>1735.2</ele>
        <time>2015-10-31T11:51:39.915Z</time>
      </trkpt>
      <trkpt lat="42.86637" lon="1.45031">
        <ele>1734.8</ele>
        <time>2015-10-31T11:51:40.885Z</time>
      </trkpt>
      <trkpt lat="42.86645" lon="1.4503">
        <ele>1732.3</ele>
        <time>2015-10-31T11:51:44.914Z</time>
      </trkpt>
      <trkpt lat="42.86646" lon="1.45028">
        <ele>1731.7</ele>
        <time>2015-10-31T11:51:45.885Z</time>
      </trkpt>
      <trkpt lat="42.86652" lon="1.45022">
        <ele>1728.3</ele>
        <time>2015-10-31T11:51:49.914Z</time>
      </trkpt>
      <trkpt lat="42.86654" lon="1.45021">
        <ele>1727.4</ele>
        <time>2015-10-31T11:51:50.887Z</time>
      </trkpt>
      <trkpt lat="42.86658" lon="1.45013">
        <ele>1724.8</ele>
        <time>2015-10-31T11:51:54.913Z</time>
      </trkpt>
      <trkpt lat="42.8666" lon="1.45011">
        <ele>1724.1</ele>
        <time>2015-10-31T11:51:55.888Z</time>
      </trkpt>
      <trkpt lat="42.86665" lon="1.45005">
        <ele>1722.2</ele>
        <time>2015-10-31T11:51:58.913Z</time>
      </trkpt>
      <trkpt lat="42.86667" lon="1.45003">
        <ele>1721.4</ele>
        <time>2015-10-31T11:51:59.887Z</time>
      </trkpt>
      <trkpt lat="42.86674" lon="1.44997">
        <ele>1719.5</ele>
        <time>2015-10-31T11:52:02.956Z</time>
      </trkpt>
      <trkpt lat="42.86676" lon="1.44996">
        <ele>1718.8</ele>
        <time>2015-10-31T11:52:03.887Z</time>
      </trkpt>
      <trkpt lat="42.86683" lon="1.44997">
        <ele>1715.9</ele>
        <time>2015-10-31T11:52:06.911Z</time>
      </trkpt>
      <trkpt lat="42.86685" lon="1.44996">
        <ele>1715.1</ele>
        <time>2015-10-31T11:52:07.887Z</time>
      </trkpt>
      <trkpt lat="42.86692" lon="1.44992">
        <ele>1713.4</ele>
        <time>2015-10-31T11:52:10.911Z</time>
      </trkpt>
      <trkpt lat="42.86694" lon="1.44992">
        <ele>1712.5</ele>
        <time>2015-10-31T11:52:11.886Z</time>
      </trkpt>
      <trkpt lat="42.86702" lon="1.4499">
        <ele>1708.9</ele>
        <time>2015-10-31T11:52:15.913Z</time>
      </trkpt>
      <trkpt lat="42.86704" lon="1.4499">
        <ele>1708.3</ele>
        <time>2015-10-31T11:52:16.885Z</time>
      </trkpt>
      <trkpt lat="42.86712" lon="1.44994">
        <ele>1703.4</ele>
        <time>2015-10-31T11:52:21.914Z</time>
      </trkpt>
      <trkpt lat="42.86714" lon="1.44994">
        <ele>1702.7</ele>
        <time>2015-10-31T11:52:22.886Z</time>
      </trkpt>
      <trkpt lat="42.86722" lon="1.44994">
        <ele>1697.8</ele>
        <time>2015-10-31T11:52:26.912Z</time>
      </trkpt>
      <trkpt lat="42.86723" lon="1.44994">
        <ele>1696.7</ele>
        <time>2015-10-31T11:52:27.886Z</time>
      </trkpt>
      <trkpt lat="42.86731" lon="1.44992">
        <ele>1694</ele>
        <time>2015-10-31T11:52:31.913Z</time>
      </trkpt>
      <trkpt lat="42.86733" lon="1.44991">
        <ele>1693.5</ele>
        <time>2015-10-31T11:52:32.886Z</time>
      </trkpt>
      <trkpt lat="42.86739" lon="1.44988">
        <ele>1691.5</ele>
        <time>2015-10-31T11:52:34.911Z</time>
      </trkpt>
      <trkpt lat="42.86742" lon="1.44988">
        <ele>1690.4</ele>
        <time>2015-10-31T11:52:35.887Z</time>
      </trkpt>
      <trkpt lat="42.8675" lon="1.44988">
        <ele>1688.3</ele>
        <time>2015-10-31T11:52:38.911Z</time>
      </trkpt>
      <trkpt lat="42.86752" lon="1.44988">
        <ele>1687.5</ele>
        <time>2015-10-31T11:52:39.887Z</time>
      </trkpt>
      <trkpt lat="42.8676" lon="1.44989">
        <ele>1684.3</ele>
        <time>2015-10-31T11:52:42.912Z</time>
      </trkpt>
      <trkpt lat="42.86762" lon="1.44989">
        <ele>1684.4</ele>
        <time>2015-10-31T11:52:43.889Z</time>
      </trkpt>
      <trkpt lat="42.86771" lon="1.44989">
        <ele>1681.9</ele>
        <time>2015-10-31T11:52:47.912Z</time>
      </trkpt>
      <trkpt lat="42.86773" lon="1.4499">
        <ele>1680.6</ele>
        <time>2015-10-31T11:52:48.886Z</time>
      </trkpt>
      <trkpt lat="42.86781" lon="1.44991">
        <ele>1678.5</ele>
        <time>2015-10-31T11:52:51.911Z</time>
      </trkpt>
      <trkpt lat="42.86783" lon="1.44992">
        <ele>1677.9</ele>
        <time>2015-10-31T11:52:52.886Z</time>
      </trkpt>
      <trkpt lat="42.8679" lon="1.44994">
        <ele>1675.3</ele>
        <time>2015-10-31T11:52:55.915Z</time>
      </trkpt>
      <trkpt lat="42.86792" lon="1.44995">
        <ele>1674.2</ele>
        <time>2015-10-31T11:52:56.886Z</time>
      </trkpt>
      <trkpt lat="42.86801" lon="1.44996">
        <ele>1670.3</ele>
        <time>2015-10-31T11:53:00.912Z</time>
      </trkpt>
      <trkpt lat="42.86803" lon="1.44997">
        <ele>1669</ele>
        <time>2015-10-31T11:53:01.889Z</time>
      </trkpt>
      <trkpt lat="42.86811" lon="1.44998">
        <ele>1665.6</ele>
        <time>2015-10-31T11:53:04.912Z</time>
      </trkpt>
      <trkpt lat="42.86814" lon="1.44998">
        <ele>1664.7</ele>
        <time>2015-10-31T11:53:05.898Z</time>
      </trkpt>
      <trkpt lat="42.86823" lon="1.45">
        <ele>1663.3</ele>
        <time>2015-10-31T11:53:09.912Z</time>
      </trkpt>
      <trkpt lat="42.86824" lon="1.45001">
        <ele>1662.7</ele>
        <time>2015-10-31T11:53:10.886Z</time>
      </trkpt>
      <trkpt lat="42.8683" lon="1.45005">
        <ele>1660.7</ele>
        <time>2015-10-31T11:53:13.914Z</time>
      </trkpt>
      <trkpt lat="42.86833" lon="1.45007">
        <ele>1660.4</ele>
        <time>2015-10-31T11:53:14.885Z</time>
      </trkpt>
      <trkpt lat="42.8684" lon="1.45009">
        <ele>1658.3</ele>
        <time>2015-10-31T11:53:17.911Z</time>
      </trkpt>
      <trkpt lat="42.86842" lon="1.4501">
        <ele>1657.5</ele>
        <time>2015-10-31T11:53:18.886Z</time>
      </trkpt>
      <trkpt lat="42.8685" lon="1.45011">
        <ele>1654.5</ele>
        <time>2015-10-31T11:53:22.912Z</time>
      </trkpt>
      <trkpt lat="42.86853" lon="1.4501">
        <ele>1653.7</ele>
        <time>2015-10-31T11:53:23.885Z</time>
      </trkpt>
      <trkpt lat="42.86861" lon="1.45006">
        <ele>1650.4</ele>
        <time>2015-10-31T11:53:28.919Z</time>
      </trkpt>
      <trkpt lat="42.86862" lon="1.45005">
        <ele>1649.6</ele>
        <time>2015-10-31T11:53:29.887Z</time>
      </trkpt>
      <trkpt lat="42.86869" lon="1.45002">
        <ele>1647.2</ele>
        <time>2015-10-31T11:53:32.912Z</time>
      </trkpt>
      <trkpt lat="42.86872" lon="1.45">
        <ele>1646.8</ele>
        <time>2015-10-31T11:53:33.885Z</time>
      </trkpt>
      <trkpt lat="42.86877" lon="1.44995">
        <ele>1645.8</ele>
        <time>2015-10-31T11:53:36.028Z</time>
      </trkpt>
      <trkpt lat="42.86879" lon="1.44993">
        <ele>1645.2</ele>
        <time>2015-10-31T11:53:36.886Z</time>
      </trkpt>
      <trkpt lat="42.86887" lon="1.44987">
        <ele>1642.6</ele>
        <time>2015-10-31T11:53:40.912Z</time>
      </trkpt>
      <trkpt lat="42.86889" lon="1.44986">
        <ele>1642.1</ele>
        <time>2015-10-31T11:53:41.886Z</time>
      </trkpt>
      <trkpt lat="42.86895" lon="1.44981">
        <ele>1640.1</ele>
        <time>2015-10-31T11:53:44.913Z</time>
      </trkpt>
      <trkpt lat="42.86897" lon="1.4498">
        <ele>1639.1</ele>
        <time>2015-10-31T11:53:45.886Z</time>
      </trkpt>
      <trkpt lat="42.86906" lon="1.4498">
        <ele>1636.1</ele>
        <time>2015-10-31T11:53:49.915Z</time>
      </trkpt>
      <trkpt lat="42.86908" lon="1.4498">
        <ele>1635.4</ele>
        <time>2015-10-31T11:53:50.886Z</time>
      </trkpt>
      <trkpt lat="42.86917" lon="1.44982">
        <ele>1632.8</ele>
        <time>2015-10-31T11:53:54.913Z</time>
      </trkpt>
      <trkpt lat="42.86919" lon="1.44982">
        <ele>1632.2</ele>
        <time>2015-10-31T11:53:55.887Z</time>
      </trkpt>
      <trkpt lat="42.86926" lon="1.44983">
        <ele>1630</ele>
        <time>2015-10-31T11:53:58.912Z</time>
      </trkpt>
      <trkpt lat="42.86928" lon="1.44983">
        <ele>1629.2</ele>
        <time>2015-10-31T11:53:59.886Z</time>
      </trkpt>
      <trkpt lat="42.86936" lon="1.44986">
        <ele>1627.5</ele>
        <time>2015-10-31T11:54:02.914Z</time>
      </trkpt>
      <trkpt lat="42.86938" lon="1.44987">
        <ele>1626.2</ele>
        <time>2015-10-31T11:54:03.900Z</time>
      </trkpt>
      <trkpt lat="42.86946" lon="1.44989">
        <ele>1623.2</ele>
        <time>2015-10-31T11:54:07.913Z</time>
      </trkpt>
      <trkpt lat="42.86948" lon="1.4499">
        <ele>1622.5</ele>
        <time>2015-10-31T11:54:08.885Z</time>
      </trkpt>
      <trkpt lat="42.86957" lon="1.44992">
        <ele>1619.7</ele>
        <time>2015-10-31T11:54:12.912Z</time>
      </trkpt>
      <trkpt lat="42.86959" lon="1.44992">
        <ele>1618.9</ele>
        <time>2015-10-31T11:54:13.888Z</time>
      </trkpt>
      <trkpt lat="42.86967" lon="1.44992">
        <ele>1615.8</ele>
        <time>2015-10-31T11:54:17.911Z</time>
      </trkpt>
      <trkpt lat="42.86969" lon="1.44992">
        <ele>1615.1</ele>
        <time>2015-10-31T11:54:18.885Z</time>
      </trkpt>
      <trkpt lat="42.86976" lon="1.44995">
        <ele>1611.4</ele>
        <time>2015-10-31T11:54:23.912Z</time>
      </trkpt>
      <trkpt lat="42.86978" lon="1.44996">
        <ele>1610.9</ele>
        <time>2015-10-31T11:54:24.900Z</time>
      </trkpt>
      <trkpt lat="42.86982" lon="1.44996">
        <ele>1608.9</ele>
        <time>2015-10-31T11:54:27.912Z</time>
      </trkpt>
      <trkpt lat="42.86983" lon="1.44996">
        <ele>1608.4</ele>
        <time>2015-10-31T11:54:28.886Z</time>
      </trkpt>
      <trkpt lat="42.86991" lon="1.44998">
        <ele>1604.1</ele>
        <time>2015-10-31T11:54:35.910Z</time>
      </trkpt>
      <trkpt lat="42.86994" lon="1.44998">
        <ele>1603.2</ele>
        <time>2015-10-31T11:54:36.886Z</time>
      </trkpt>
      <trkpt lat="42.87002" lon="1.45002">
        <ele>1601.2</ele>
        <time>2015-10-31T11:54:39.910Z</time>
      </trkpt>
      <trkpt lat="42.87004" lon="1.45003">
        <ele>1600.5</ele>
        <time>2015-10-31T11:54:40.885Z</time>
      </trkpt>
      <trkpt lat="42.8701" lon="1.45007">
        <ele>1599.5</ele>
        <time>2015-10-31T11:54:42.911Z</time>
      </trkpt>
      <trkpt lat="42.87013" lon="1.45008">
        <ele>1598.9</ele>
        <time>2015-10-31T11:54:44.005Z</time>
      </trkpt>
      <trkpt lat="42.87019" lon="1.45011">
        <ele>1597.7</ele>
        <time>2015-10-31T11:54:45.912Z</time>
      </trkpt>
      <trkpt lat="42.87023" lon="1.45012">
        <ele>1597.2</ele>
        <time>2015-10-31T11:54:46.885Z</time>
      </trkpt>
      <trkpt lat="42.87029" lon="1.45013">
        <ele>1596.2</ele>
        <time>2015-10-31T11:54:48.911Z</time>
      </trkpt>
      <trkpt lat="42.87032" lon="1.45015">
        <ele>1595.9</ele>
        <time>2015-10-31T11:54:49.888Z</time>
      </trkpt>
      <trkpt lat="42.87039" lon="1.45017">
        <ele>1595.3</ele>
        <time>2015-10-31T11:54:53.911Z</time>
      </trkpt>
      <trkpt lat="42.87041" lon="1.45018">
        <ele>1594.8</ele>
        <time>2015-10-31T11:54:54.885Z</time>
      </trkpt>
      <trkpt lat="42.87047" lon="1.45024">
        <ele>1593.1</ele>
        <time>2015-10-31T11:54:58.911Z</time>
      </trkpt>
      <trkpt lat="42.87049" lon="1.45025">
        <ele>1592.8</ele>
        <time>2015-10-31T11:54:59.885Z</time>
      </trkpt>
      <trkpt lat="42.87056" lon="1.45028">
        <ele>1590.8</ele>
        <time>2015-10-31T11:55:02.911Z</time>
      </trkpt>
      <trkpt lat="42.87058" lon="1.45029">
        <ele>1590.1</ele>
        <time>2015-10-31T11:55:03.886Z</time>
      </trkpt>
      <trkpt lat="42.87064" lon="1.45033">
        <ele>1588.6</ele>
        <time>2015-10-31T11:55:06.910Z</time>
      </trkpt>
      <trkpt lat="42.87066" lon="1.45034">
        <ele>1588.5</ele>
        <time>2015-10-31T11:55:07.888Z</time>
      </trkpt>
      <trkpt lat="42.87075" lon="1.45037">
        <ele>1586.7</ele>
        <time>2015-10-31T11:55:12.912Z</time>
      </trkpt>
      <trkpt lat="42.87077" lon="1.45038">
        <ele>1586.3</ele>
        <time>2015-10-31T11:55:13.888Z</time>
      </trkpt>
      <trkpt lat="42.87084" lon="1.45036">
        <ele>1584.5</ele>
        <time>2015-10-31T11:55:19.914Z</time>
      </trkpt>
      <trkpt lat="42.87086" lon="1.45036">
        <ele>1584.2</ele>
        <time>2015-10-31T11:55:20.886Z</time>
      </trkpt>
      <trkpt lat="42.87095" lon="1.45039">
        <ele>1584.1</ele>
        <time>2015-10-31T11:55:26.911Z</time>
      </trkpt>
      <trkpt lat="42.87096" lon="1.4504">
        <ele>1584.1</ele>
        <time>2015-10-31T11:55:27.885Z</time>
      </trkpt>
      <trkpt lat="42.87102" lon="1.45045">
        <ele>1583.3</ele>
        <time>2015-10-31T11:55:32.927Z</time>
      </trkpt>
      <trkpt lat="42.87103" lon="1.45047">
        <ele>1583.2</ele>
        <time>2015-10-31T11:55:33.886Z</time>
      </trkpt>
      <trkpt lat="42.8711" lon="1.45054">
        <ele>1582.3</ele>
        <time>2015-10-31T11:55:39.912Z</time>
      </trkpt>
      <trkpt lat="42.87111" lon="1.45054">
        <ele>1582</ele>
        <time>2015-10-31T11:55:40.886Z</time>
      </trkpt>
      <trkpt lat="42.87118" lon="1.45057">
        <ele>1581.4</ele>
        <time>2015-10-31T11:55:46.911Z</time>
      </trkpt>
      <trkpt lat="42.8712" lon="1.45058">
        <ele>1581.3</ele>
        <time>2015-10-31T11:55:47.886Z</time>
      </trkpt>
      <trkpt lat="42.87128" lon="1.45061">
        <ele>1581.1</ele>
        <time>2015-10-31T11:55:52.911Z</time>
      </trkpt>
      <trkpt lat="42.87129" lon="1.45061">
        <ele>1581.1</ele>
        <time>2015-10-31T11:55:53.899Z</time>
      </trkpt>
      <trkpt lat="42.87136" lon="1.45065">
        <ele>1581.5</ele>
        <time>2015-10-31T11:55:58.910Z</time>
      </trkpt>
      <trkpt lat="42.87137" lon="1.45067">
        <ele>1581.5</ele>
        <time>2015-10-31T11:55:59.886Z</time>
      </trkpt>
      <trkpt lat="42.87143" lon="1.45074">
        <ele>1581.7</ele>
        <time>2015-10-31T11:56:04.938Z</time>
      </trkpt>
      <trkpt lat="42.87144" lon="1.45075">
        <ele>1581.7</ele>
        <time>2015-10-31T11:56:05.886Z</time>
      </trkpt>
      <trkpt lat="42.87152" lon="1.4508">
        <ele>1581.3</ele>
        <time>2015-10-31T11:56:11.911Z</time>
      </trkpt>
      <trkpt lat="42.87153" lon="1.45081">
        <ele>1581.3</ele>
        <time>2015-10-31T11:56:12.886Z</time>
      </trkpt>
      <trkpt lat="42.8716" lon="1.45088">
        <ele>1581.3</ele>
        <time>2015-10-31T11:56:18.911Z</time>
      </trkpt>
      <trkpt lat="42.87161" lon="1.45089">
        <ele>1581.4</ele>
        <time>2015-10-31T11:56:19.888Z</time>
      </trkpt>
      <trkpt lat="42.87167" lon="1.45095">
        <ele>1581.6</ele>
        <time>2015-10-31T11:56:24.911Z</time>
      </trkpt>
      <trkpt lat="42.87169" lon="1.45096">
        <ele>1581.8</ele>
        <time>2015-10-31T11:56:25.888Z</time>
      </trkpt>
      <trkpt lat="42.87175" lon="1.45103">
        <ele>1581.6</ele>
        <time>2015-10-31T11:56:30.910Z</time>
      </trkpt>
      <trkpt lat="42.87176" lon="1.45104">
        <ele>1581.6</ele>
        <time>2015-10-31T11:56:31.888Z</time>
      </trkpt>
      <trkpt lat="42.87183" lon="1.45111">
        <ele>1581.1</ele>
        <time>2015-10-31T11:56:37.913Z</time>
      </trkpt>
      <trkpt lat="42.87185" lon="1.45112">
        <ele>1580.9</ele>
        <time>2015-10-31T11:56:38.886Z</time>
      </trkpt>
      <trkpt lat="42.87191" lon="1.45118">
        <ele>1580.4</ele>
        <time>2015-10-31T11:56:42.912Z</time>
      </trkpt>
      <trkpt lat="42.87192" lon="1.4512">
        <ele>1580.3</ele>
        <time>2015-10-31T11:56:43.887Z</time>
      </trkpt>
      <trkpt lat="42.87198" lon="1.45126">
        <ele>1580.3</ele>
        <time>2015-10-31T11:56:49.031Z</time>
      </trkpt>
      <trkpt lat="42.872" lon="1.45127">
        <ele>1580.3</ele>
        <time>2015-10-31T11:56:49.888Z</time>
      </trkpt>
      <trkpt lat="42.87207" lon="1.45134">
        <ele>1580.8</ele>
        <time>2015-10-31T11:56:55.912Z</time>
      </trkpt>
      <trkpt lat="42.87208" lon="1.45136">
        <ele>1580.9</ele>
        <time>2015-10-31T11:56:56.897Z</time>
      </trkpt>
      <trkpt lat="42.87214" lon="1.45143">
        <ele>1580.9</ele>
        <time>2015-10-31T11:57:03.911Z</time>
      </trkpt>
      <trkpt lat="42.87215" lon="1.45144">
        <ele>1581</ele>
        <time>2015-10-31T11:57:04.885Z</time>
      </trkpt>
      <trkpt lat="42.87215" lon="1.45144">
        <ele>1581</ele>
        <time>2015-10-31T11:57:04.914Z</time>
      </trkpt>
      <trkpt lat="42.87222" lon="1.4515">
        <ele>1580.6</ele>
        <time>2015-10-31T11:57:12.912Z</time>
      </trkpt>
      <trkpt lat="42.87223" lon="1.45151">
        <ele>1580.6</ele>
        <time>2015-10-31T11:57:13.887Z</time>
      </trkpt>
      <trkpt lat="42.87223" lon="1.45151">
        <ele>1580.6</ele>
        <time>2015-10-31T11:57:13.917Z</time>
      </trkpt>
      <trkpt lat="42.87232" lon="1.45151">
        <ele>1580.7</ele>
        <time>2015-10-31T11:57:23.911Z</time>
      </trkpt>
      <trkpt lat="42.87234" lon="1.45151">
        <ele>1580.6</ele>
        <time>2015-10-31T11:57:24.885Z</time>
      </trkpt>
      <trkpt lat="42.87242" lon="1.45153">
        <ele>1580.5</ele>
        <time>2015-10-31T11:57:29.910Z</time>
      </trkpt>
      <trkpt lat="42.87243" lon="1.45154">
        <ele>1580.4</ele>
        <time>2015-10-31T11:57:30.886Z</time>
      </trkpt>
      <trkpt lat="42.87251" lon="1.45158">
        <ele>1580.2</ele>
        <time>2015-10-31T11:57:35.910Z</time>
      </trkpt>
      <trkpt lat="42.87252" lon="1.45159">
        <ele>1580.1</ele>
        <time>2015-10-31T11:57:36.888Z</time>
      </trkpt>
      <trkpt lat="42.8726" lon="1.4516">
        <ele>1580</ele>
        <time>2015-10-31T11:57:41.911Z</time>
      </trkpt>
      <trkpt lat="42.87262" lon="1.45159">
        <ele>1579.8</ele>
        <time>2015-10-31T11:57:42.885Z</time>
      </trkpt>
      <trkpt lat="42.87271" lon="1.45157">
        <ele>1578.8</ele>
        <time>2015-10-31T11:57:47.911Z</time>
      </trkpt>
      <trkpt lat="42.87273" lon="1.45157">
        <ele>1578.9</ele>
        <time>2015-10-31T11:57:48.886Z</time>
      </trkpt>
      <trkpt lat="42.8728" lon="1.45154">
        <ele>1578.9</ele>
        <time>2015-10-31T11:57:53.910Z</time>
      </trkpt>
      <trkpt lat="42.87282" lon="1.45154">
        <ele>1578.9</ele>
        <time>2015-10-31T11:57:54.885Z</time>
      </trkpt>
      <trkpt lat="42.87289" lon="1.45153">
        <ele>1579.1</ele>
        <time>2015-10-31T11:57:59.925Z</time>
      </trkpt>
      <trkpt lat="42.87291" lon="1.45153">
        <ele>1579.4</ele>
        <time>2015-10-31T11:58:00.885Z</time>
      </trkpt>
      <trkpt lat="42.87299" lon="1.45152">
        <ele>1579.1</ele>
        <time>2015-10-31T11:58:05.984Z</time>
      </trkpt>
      <trkpt lat="42.873" lon="1.45153">
        <ele>1579.4</ele>
        <time>2015-10-31T11:58:06.886Z</time>
      </trkpt>
      <trkpt lat="42.87308" lon="1.45151">
        <ele>1579.3</ele>
        <time>2015-10-31T11:58:11.910Z</time>
      </trkpt>
      <trkpt lat="42.8731" lon="1.45151">
        <ele>1579.4</ele>
        <time>2015-10-31T11:58:12.886Z</time>
      </trkpt>
      <trkpt lat="42.87317" lon="1.45147">
        <ele>1579.1</ele>
        <time>2015-10-31T11:58:17.911Z</time>
      </trkpt>
      <trkpt lat="42.87319" lon="1.45147">
        <ele>1578.8</ele>
        <time>2015-10-31T11:58:18.886Z</time>
      </trkpt>
      <trkpt lat="42.87327" lon="1.45145">
        <ele>1577</ele>
        <time>2015-10-31T11:58:24.910Z</time>
      </trkpt>
      <trkpt lat="42.87329" lon="1.45145">
        <ele>1577.1</ele>
        <time>2015-10-31T11:58:25.888Z</time>
      </trkpt>
      <trkpt lat="42.87335" lon="1.45144">
        <ele>1577.8</ele>
        <time>2015-10-31T11:58:30.910Z</time>
      </trkpt>
      <trkpt lat="42.87336" lon="1.45144">
        <ele>1577.8</ele>
        <time>2015-10-31T11:58:31.887Z</time>
      </trkpt>
      <trkpt lat="42.8734" lon="1.45144">
        <ele>1578.3</ele>
        <time>2015-10-31T11:58:34.910Z</time>
      </trkpt>
      <trkpt lat="42.87341" lon="1.45144">
        <ele>1578.6</ele>
        <time>2015-10-31T11:58:35.885Z</time>
      </trkpt>
      <trkpt lat="42.8735" lon="1.45147">
        <ele>1580.3</ele>
        <time>2015-10-31T11:58:41.910Z</time>
      </trkpt>
      <trkpt lat="42.87351" lon="1.45147">
        <ele>1580.7</ele>
        <time>2015-10-31T11:58:42.885Z</time>
      </trkpt>
      <trkpt lat="42.87359" lon="1.45147">
        <ele>1581.8</ele>
        <time>2015-10-31T11:58:48.927Z</time>
      </trkpt>
      <trkpt lat="42.87361" lon="1.45147">
        <ele>1581.6</ele>
        <time>2015-10-31T11:58:49.888Z</time>
      </trkpt>
      <trkpt lat="42.87369" lon="1.45146">
        <ele>1583.4</ele>
        <time>2015-10-31T11:58:55.912Z</time>
      </trkpt>
      <trkpt lat="42.87371" lon="1.45146">
        <ele>1584</ele>
        <time>2015-10-31T11:58:56.885Z</time>
      </trkpt>
      <trkpt lat="42.8738" lon="1.45146">
        <ele>1585</ele>
        <time>2015-10-31T11:59:02.911Z</time>
      </trkpt>
      <trkpt lat="42.87381" lon="1.45145">
        <ele>1584.6</ele>
        <time>2015-10-31T11:59:03.885Z</time>
      </trkpt>
      <trkpt lat="42.87389" lon="1.45144">
        <ele>1583.9</ele>
        <time>2015-10-31T11:59:09.910Z</time>
      </trkpt>
      <trkpt lat="42.87391" lon="1.45144">
        <ele>1583.6</ele>
        <time>2015-10-31T11:59:10.885Z</time>
      </trkpt>
      <trkpt lat="42.87398" lon="1.45141">
        <ele>1582.4</ele>
        <time>2015-10-31T11:59:15.910Z</time>
      </trkpt>
      <trkpt lat="42.874" lon="1.45141">
        <ele>1582.2</ele>
        <time>2015-10-31T11:59:16.886Z</time>
      </trkpt>
      <trkpt lat="42.87408" lon="1.45139">
        <ele>1582.4</ele>
        <time>2015-10-31T11:59:21.911Z</time>
      </trkpt>
      <trkpt lat="42.87409" lon="1.45139">
        <ele>1582</ele>
        <time>2015-10-31T11:59:22.885Z</time>
      </trkpt>
      <trkpt lat="42.87418" lon="1.45137">
        <ele>1581.9</ele>
        <time>2015-10-31T11:59:29.910Z</time>
      </trkpt>
      <trkpt lat="42.87419" lon="1.45136">
        <ele>1581.9</ele>
        <time>2015-10-31T11:59:30.886Z</time>
      </trkpt>
      <trkpt lat="42.87427" lon="1.45135">
        <ele>1582</ele>
        <time>2015-10-31T11:59:35.910Z</time>
      </trkpt>
      <trkpt lat="42.87428" lon="1.45135">
        <ele>1581.5</ele>
        <time>2015-10-31T11:59:36.886Z</time>
      </trkpt>
      <trkpt lat="42.87437" lon="1.45135">
        <ele>1582.1</ele>
        <time>2015-10-31T11:59:42.910Z</time>
      </trkpt>
      <trkpt lat="42.87439" lon="1.45135">
        <ele>1582.5</ele>
        <time>2015-10-31T11:59:43.888Z</time>
      </trkpt>
      <trkpt lat="42.87446" lon="1.45132">
        <ele>1581.9</ele>
        <time>2015-10-31T11:59:48.911Z</time>
      </trkpt>
      <trkpt lat="42.87448" lon="1.45131">
        <ele>1582.2</ele>
        <time>2015-10-31T11:59:49.902Z</time>
      </trkpt>
      <trkpt lat="42.87456" lon="1.4513">
        <ele>1580.3</ele>
        <time>2015-10-31T11:59:55.912Z</time>
      </trkpt>
      <trkpt lat="42.87458" lon="1.45131">
        <ele>1580.9</ele>
        <time>2015-10-31T11:59:56.885Z</time>
      </trkpt>
      <trkpt lat="42.87465" lon="1.45132">
        <ele>1582.9</ele>
        <time>2015-10-31T12:00:01.913Z</time>
      </trkpt>
      <trkpt lat="42.87467" lon="1.45132">
        <ele>1583.2</ele>
        <time>2015-10-31T12:00:02.886Z</time>
      </trkpt>
      <trkpt lat="42.87475" lon="1.45131">
        <ele>1584.1</ele>
        <time>2015-10-31T12:00:07.913Z</time>
      </trkpt>
      <trkpt lat="42.87476" lon="1.45131">
        <ele>1583.4</ele>
        <time>2015-10-31T12:00:08.885Z</time>
      </trkpt>
      <trkpt lat="42.87484" lon="1.45129">
        <ele>1583.3</ele>
        <time>2015-10-31T12:00:13.913Z</time>
      </trkpt>
      <trkpt lat="42.87485" lon="1.45129">
        <ele>1583.5</ele>
        <time>2015-10-31T12:00:14.885Z</time>
      </trkpt>
      <trkpt lat="42.87493" lon="1.45129">
        <ele>1582.6</ele>
        <time>2015-10-31T12:00:18.927Z</time>
      </trkpt>
      <trkpt lat="42.87494" lon="1.45128">
        <ele>1582.9</ele>
        <time>2015-10-31T12:00:19.888Z</time>
      </trkpt>
      <trkpt lat="42.87503" lon="1.45128">
        <ele>1582.8</ele>
        <time>2015-10-31T12:00:25.913Z</time>
      </trkpt>
      <trkpt lat="42.87503" lon="1.45128">
        <ele>1582.8</ele>
        <time>2015-10-31T12:00:26.885Z</time>
      </trkpt>
      <trkpt lat="42.87511" lon="1.4513">
        <ele>1582.6</ele>
        <time>2015-10-31T12:00:31.927Z</time>
      </trkpt>
      <trkpt lat="42.87513" lon="1.45132">
        <ele>1582</ele>
        <time>2015-10-31T12:00:32.887Z</time>
      </trkpt>
      <trkpt lat="42.87521" lon="1.45134">
        <ele>1581.6</ele>
        <time>2015-10-31T12:00:38.910Z</time>
      </trkpt>
      <trkpt lat="42.87522" lon="1.45135">
        <ele>1581.6</ele>
        <time>2015-10-31T12:00:39.885Z</time>
      </trkpt>
      <trkpt lat="42.8753" lon="1.45138">
        <ele>1582</ele>
        <time>2015-10-31T12:00:45.910Z</time>
      </trkpt>
      <trkpt lat="42.87531" lon="1.45139">
        <ele>1582.3</ele>
        <time>2015-10-31T12:00:46.885Z</time>
      </trkpt>
      <trkpt lat="42.8754" lon="1.45139">
        <ele>1583.9</ele>
        <time>2015-10-31T12:00:51.910Z</time>
      </trkpt>
      <trkpt lat="42.87541" lon="1.45139">
        <ele>1584.4</ele>
        <time>2015-10-31T12:00:52.900Z</time>
      </trkpt>
      <trkpt lat="42.87549" lon="1.45145">
        <ele>1585.3</ele>
        <time>2015-10-31T12:00:58.910Z</time>
      </trkpt>
      <trkpt lat="42.8755" lon="1.45146">
        <ele>1585.5</ele>
        <time>2015-10-31T12:00:59.886Z</time>
      </trkpt>
      <trkpt lat="42.87556" lon="1.45152">
        <ele>1586</ele>
        <time>2015-10-31T12:01:04.911Z</time>
      </trkpt>
      <trkpt lat="42.87558" lon="1.45153">
        <ele>1585.9</ele>
        <time>2015-10-31T12:01:05.886Z</time>
      </trkpt>
      <trkpt lat="42.87564" lon="1.45159">
        <ele>1585.7</ele>
        <time>2015-10-31T12:01:10.911Z</time>
      </trkpt>
      <trkpt lat="42.87566" lon="1.4516">
        <ele>1585.7</ele>
        <time>2015-10-31T12:01:11.886Z</time>
      </trkpt>
      <trkpt lat="42.87574" lon="1.45164">
        <ele>1585.4</ele>
        <time>2015-10-31T12:01:16.910Z</time>
      </trkpt>
      <trkpt lat="42.87576" lon="1.45164">
        <ele>1585.3</ele>
        <time>2015-10-31T12:01:17.886Z</time>
      </trkpt>
      <trkpt lat="42.87583" lon="1.45167">
        <ele>1585</ele>
        <time>2015-10-31T12:01:22.911Z</time>
      </trkpt>
      <trkpt lat="42.87585" lon="1.45168">
        <ele>1584.9</ele>
        <time>2015-10-31T12:01:23.886Z</time>
      </trkpt>
      <trkpt lat="42.87592" lon="1.45173">
        <ele>1585.1</ele>
        <time>2015-10-31T12:01:28.911Z</time>
      </trkpt>
      <trkpt lat="42.87594" lon="1.45174">
        <ele>1585.2</ele>
        <time>2015-10-31T12:01:29.887Z</time>
      </trkpt>
      <trkpt lat="42.87601" lon="1.4518">
        <ele>1585.3</ele>
        <time>2015-10-31T12:01:35.911Z</time>
      </trkpt>
      <trkpt lat="42.87602" lon="1.4518">
        <ele>1585.3</ele>
        <time>2015-10-31T12:01:36.886Z</time>
      </trkpt>
      <trkpt lat="42.8761" lon="1.45187">
        <ele>1585.2</ele>
        <time>2015-10-31T12:01:42.913Z</time>
      </trkpt>
      <trkpt lat="42.87611" lon="1.45188">
        <ele>1585.2</ele>
        <time>2015-10-31T12:01:43.888Z</time>
      </trkpt>
      <trkpt lat="42.87618" lon="1.45194">
        <ele>1585.2</ele>
        <time>2015-10-31T12:01:48.960Z</time>
      </trkpt>
      <trkpt lat="42.8762" lon="1.45195">
        <ele>1585.3</ele>
        <time>2015-10-31T12:01:49.888Z</time>
      </trkpt>
      <trkpt lat="42.87626" lon="1.45199">
        <ele>1585.2</ele>
        <time>2015-10-31T12:01:54.912Z</time>
      </trkpt>
      <trkpt lat="42.87628" lon="1.452">
        <ele>1585.2</ele>
        <time>2015-10-31T12:01:55.902Z</time>
      </trkpt>
      <trkpt lat="42.87635" lon="1.45205">
        <ele>1585.5</ele>
        <time>2015-10-31T12:02:01.913Z</time>
      </trkpt>
      <trkpt lat="42.87637" lon="1.45205">
        <ele>1585.5</ele>
        <time>2015-10-31T12:02:02.886Z</time>
      </trkpt>
      <trkpt lat="42.87645" lon="1.45209">
        <ele>1585.3</ele>
        <time>2015-10-31T12:02:08.912Z</time>
      </trkpt>
      <trkpt lat="42.87646" lon="1.45209">
        <ele>1585.1</ele>
        <time>2015-10-31T12:02:09.886Z</time>
      </trkpt>
      <trkpt lat="42.87654" lon="1.45212">
        <ele>1585</ele>
        <time>2015-10-31T12:02:15.910Z</time>
      </trkpt>
      <trkpt lat="42.87655" lon="1.45213">
        <ele>1585</ele>
        <time>2015-10-31T12:02:16.886Z</time>
      </trkpt>
      <trkpt lat="42.87662" lon="1.45217">
        <ele>1584.3</ele>
        <time>2015-10-31T12:02:22.911Z</time>
      </trkpt>
      <trkpt lat="42.87663" lon="1.45218">
        <ele>1584.3</ele>
        <time>2015-10-31T12:02:23.886Z</time>
      </trkpt>
      <trkpt lat="42.8767" lon="1.45222">
        <ele>1583.5</ele>
        <time>2015-10-31T12:02:29.911Z</time>
      </trkpt>
      <trkpt lat="42.87672" lon="1.45222">
        <ele>1583.4</ele>
        <time>2015-10-31T12:02:30.886Z</time>
      </trkpt>
      <trkpt lat="42.8768" lon="1.45225">
        <ele>1584.6</ele>
        <time>2015-10-31T12:02:39.913Z</time>
      </trkpt>
      <trkpt lat="42.87681" lon="1.45226">
        <ele>1584.7</ele>
        <time>2015-10-31T12:02:40.888Z</time>
      </trkpt>
      <trkpt lat="42.87688" lon="1.4523">
        <ele>1585</ele>
        <time>2015-10-31T12:02:44.911Z</time>
      </trkpt>
      <trkpt lat="42.8769" lon="1.4523">
        <ele>1585.1</ele>
        <time>2015-10-31T12:02:45.886Z</time>
      </trkpt>
      <trkpt lat="42.87697" lon="1.45234">
        <ele>1585.1</ele>
        <time>2015-10-31T12:02:49.913Z</time>
      </trkpt>
      <trkpt lat="42.87698" lon="1.45235">
        <ele>1585.2</ele>
        <time>2015-10-31T12:02:50.886Z</time>
      </trkpt>
      <trkpt lat="42.87706" lon="1.45237">
        <ele>1585.2</ele>
        <time>2015-10-31T12:02:54.911Z</time>
      </trkpt>
      <trkpt lat="42.87709" lon="1.45238">
        <ele>1585.2</ele>
        <time>2015-10-31T12:02:55.888Z</time>
      </trkpt>
      <trkpt lat="42.87716" lon="1.45241">
        <ele>1585.1</ele>
        <time>2015-10-31T12:03:00.912Z</time>
      </trkpt>
      <trkpt lat="42.87717" lon="1.45241">
        <ele>1585.1</ele>
        <time>2015-10-31T12:03:01.888Z</time>
      </trkpt>
      <trkpt lat="42.87725" lon="1.45246">
        <ele>1584.8</ele>
        <time>2015-10-31T12:03:06.912Z</time>
      </trkpt>
      <trkpt lat="42.87726" lon="1.45246">
        <ele>1584.8</ele>
        <time>2015-10-31T12:03:07.888Z</time>
      </trkpt>
      <trkpt lat="42.87735" lon="1.45247">
        <ele>1584.8</ele>
        <time>2015-10-31T12:03:12.911Z</time>
      </trkpt>
      <trkpt lat="42.87736" lon="1.45247">
        <ele>1584.9</ele>
        <time>2015-10-31T12:03:13.888Z</time>
      </trkpt>
      <trkpt lat="42.87743" lon="1.45249">
        <ele>1584.7</ele>
        <time>2015-10-31T12:03:19.913Z</time>
      </trkpt>
      <trkpt lat="42.87745" lon="1.4525">
        <ele>1584.8</ele>
        <time>2015-10-31T12:03:20.886Z</time>
      </trkpt>
      <trkpt lat="42.87753" lon="1.45249">
        <ele>1584.4</ele>
        <time>2015-10-31T12:03:25.912Z</time>
      </trkpt>
      <trkpt lat="42.87754" lon="1.4525">
        <ele>1584.2</ele>
        <time>2015-10-31T12:03:26.886Z</time>
      </trkpt>
      <trkpt lat="42.87763" lon="1.45253">
        <ele>1583.8</ele>
        <time>2015-10-31T12:03:32.925Z</time>
      </trkpt>
      <trkpt lat="42.87764" lon="1.45253">
        <ele>1583.7</ele>
        <time>2015-10-31T12:03:33.886Z</time>
      </trkpt>
      <trkpt lat="42.87772" lon="1.45255">
        <ele>1583.4</ele>
        <time>2015-10-31T12:03:38.911Z</time>
      </trkpt>
      <trkpt lat="42.87773" lon="1.45256">
        <ele>1583.5</ele>
        <time>2015-10-31T12:03:39.886Z</time>
      </trkpt>
      <trkpt lat="42.8778" lon="1.45259">
        <ele>1583.3</ele>
        <time>2015-10-31T12:03:45.910Z</time>
      </trkpt>
      <trkpt lat="42.87782" lon="1.45259">
        <ele>1583.2</ele>
        <time>2015-10-31T12:03:46.900Z</time>
      </trkpt>
      <trkpt lat="42.8779" lon="1.45261">
        <ele>1582.6</ele>
        <time>2015-10-31T12:03:52.911Z</time>
      </trkpt>
      <trkpt lat="42.87791" lon="1.45261">
        <ele>1582.4</ele>
        <time>2015-10-31T12:03:53.886Z</time>
      </trkpt>
      <trkpt lat="42.87798" lon="1.45264">
        <ele>1582</ele>
        <time>2015-10-31T12:03:57.910Z</time>
      </trkpt>
      <trkpt lat="42.878" lon="1.45265">
        <ele>1582</ele>
        <time>2015-10-31T12:03:58.894Z</time>
      </trkpt>
      <trkpt lat="42.87808" lon="1.45266">
        <ele>1581.5</ele>
        <time>2015-10-31T12:04:04.027Z</time>
      </trkpt>
      <trkpt lat="42.8781" lon="1.45266">
        <ele>1581.3</ele>
        <time>2015-10-31T12:04:04.886Z</time>
      </trkpt>
      <trkpt lat="42.87817" lon="1.45268">
        <ele>1581.5</ele>
        <time>2015-10-31T12:04:09.911Z</time>
      </trkpt>
      <trkpt lat="42.87819" lon="1.45269">
        <ele>1581.7</ele>
        <time>2015-10-31T12:04:10.885Z</time>
      </trkpt>
      <trkpt lat="42.87827" lon="1.45271">
        <ele>1582.5</ele>
        <time>2015-10-31T12:04:17.911Z</time>
      </trkpt>
      <trkpt lat="42.87828" lon="1.45271">
        <ele>1582.6</ele>
        <time>2015-10-31T12:04:18.907Z</time>
      </trkpt>
      <trkpt lat="42.87837" lon="1.45271">
        <ele>1583.3</ele>
        <time>2015-10-31T12:04:23.925Z</time>
      </trkpt>
      <trkpt lat="42.87838" lon="1.45272">
        <ele>1583.5</ele>
        <time>2015-10-31T12:04:24.886Z</time>
      </trkpt>
      <trkpt lat="42.87846" lon="1.45272">
        <ele>1583.6</ele>
        <time>2015-10-31T12:04:29.911Z</time>
      </trkpt>
      <trkpt lat="42.87848" lon="1.45272">
        <ele>1584</ele>
        <time>2015-10-31T12:04:30.886Z</time>
      </trkpt>
      <trkpt lat="42.87855" lon="1.45273">
        <ele>1584.8</ele>
        <time>2015-10-31T12:04:35.911Z</time>
      </trkpt>
      <trkpt lat="42.87857" lon="1.45273">
        <ele>1584.7</ele>
        <time>2015-10-31T12:04:36.885Z</time>
      </trkpt>
      <trkpt lat="42.87865" lon="1.45273">
        <ele>1584.8</ele>
        <time>2015-10-31T12:04:42.029Z</time>
      </trkpt>
      <trkpt lat="42.87867" lon="1.45273">
        <ele>1584.9</ele>
        <time>2015-10-31T12:04:42.886Z</time>
      </trkpt>
      <trkpt lat="42.87874" lon="1.45273">
        <ele>1585.2</ele>
        <time>2015-10-31T12:04:47.924Z</time>
      </trkpt>
      <trkpt lat="42.87876" lon="1.45273">
        <ele>1585.2</ele>
        <time>2015-10-31T12:04:48.886Z</time>
      </trkpt>
      <trkpt lat="42.87883" lon="1.45273">
        <ele>1584.8</ele>
        <time>2015-10-31T12:04:53.910Z</time>
      </trkpt>
      <trkpt lat="42.87885" lon="1.45273">
        <ele>1584.9</ele>
        <time>2015-10-31T12:04:54.886Z</time>
      </trkpt>
      <trkpt lat="42.87893" lon="1.45271">
        <ele>1583.6</ele>
        <time>2015-10-31T12:05:01.024Z</time>
      </trkpt>
      <trkpt lat="42.87895" lon="1.45272">
        <ele>1584.1</ele>
        <time>2015-10-31T12:05:01.888Z</time>
      </trkpt>
      <trkpt lat="42.87903" lon="1.45271">
        <ele>1585.1</ele>
        <time>2015-10-31T12:05:06.911Z</time>
      </trkpt>
      <trkpt lat="42.87905" lon="1.4527">
        <ele>1585.3</ele>
        <time>2015-10-31T12:05:07.888Z</time>
      </trkpt>
      <trkpt lat="42.87913" lon="1.45268">
        <ele>1584.8</ele>
        <time>2015-10-31T12:05:12.911Z</time>
      </trkpt>
      <trkpt lat="42.87915" lon="1.45269">
        <ele>1584.8</ele>
        <time>2015-10-31T12:05:13.888Z</time>
      </trkpt>
      <trkpt lat="42.87923" lon="1.45269">
        <ele>1584.4</ele>
        <time>2015-10-31T12:05:19.913Z</time>
      </trkpt>
      <trkpt lat="42.87925" lon="1.45269">
        <ele>1584.1</ele>
        <time>2015-10-31T12:05:20.886Z</time>
      </trkpt>
      <trkpt lat="42.87933" lon="1.4527">
        <ele>1583.7</ele>
        <time>2015-10-31T12:05:26.910Z</time>
      </trkpt>
      <trkpt lat="42.87934" lon="1.45269">
        <ele>1583.3</ele>
        <time>2015-10-31T12:05:27.890Z</time>
      </trkpt>
      <trkpt lat="42.87941" lon="1.45268">
        <ele>1583</ele>
        <time>2015-10-31T12:05:32.911Z</time>
      </trkpt>
      <trkpt lat="42.87943" lon="1.45268">
        <ele>1583</ele>
        <time>2015-10-31T12:05:33.886Z</time>
      </trkpt>
      <trkpt lat="42.87951" lon="1.45268">
        <ele>1583.1</ele>
        <time>2015-10-31T12:05:38.910Z</time>
      </trkpt>
      <trkpt lat="42.87952" lon="1.45268">
        <ele>1582.8</ele>
        <time>2015-10-31T12:05:39.886Z</time>
      </trkpt>
      <trkpt lat="42.8796" lon="1.45265">
        <ele>1582.7</ele>
        <time>2015-10-31T12:05:44.911Z</time>
      </trkpt>
      <trkpt lat="42.87961" lon="1.45264">
        <ele>1582.5</ele>
        <time>2015-10-31T12:05:45.886Z</time>
      </trkpt>
      <trkpt lat="42.87969" lon="1.45263">
        <ele>1582.4</ele>
        <time>2015-10-31T12:05:50.911Z</time>
      </trkpt>
      <trkpt lat="42.87971" lon="1.45263">
        <ele>1582.3</ele>
        <time>2015-10-31T12:05:51.886Z</time>
      </trkpt>
      <trkpt lat="42.87979" lon="1.45262">
        <ele>1581.2</ele>
        <time>2015-10-31T12:05:57.911Z</time>
      </trkpt>
      <trkpt lat="42.87981" lon="1.45262">
        <ele>1581.2</ele>
        <time>2015-10-31T12:05:58.890Z</time>
      </trkpt>
      <trkpt lat="42.87989" lon="1.45261">
        <ele>1580.3</ele>
        <time>2015-10-31T12:06:04.911Z</time>
      </trkpt>
      <trkpt lat="42.8799" lon="1.45261">
        <ele>1580.1</ele>
        <time>2015-10-31T12:06:05.885Z</time>
      </trkpt>
      <trkpt lat="42.87999" lon="1.4526">
        <ele>1578.9</ele>
        <time>2015-10-31T12:06:11.910Z</time>
      </trkpt>
      <trkpt lat="42.88001" lon="1.4526">
        <ele>1579</ele>
        <time>2015-10-31T12:06:12.886Z</time>
      </trkpt>
      <trkpt lat="42.88009" lon="1.45257">
        <ele>1578.3</ele>
        <time>2015-10-31T12:06:17.910Z</time>
      </trkpt>
      <trkpt lat="42.8801" lon="1.45256">
        <ele>1578.4</ele>
        <time>2015-10-31T12:06:18.887Z</time>
      </trkpt>
      <trkpt lat="42.88018" lon="1.45254">
        <ele>1577.7</ele>
        <time>2015-10-31T12:06:23.913Z</time>
      </trkpt>
      <trkpt lat="42.8802" lon="1.45254">
        <ele>1577.6</ele>
        <time>2015-10-31T12:06:24.885Z</time>
      </trkpt>
      <trkpt lat="42.88027" lon="1.45252">
        <ele>1576.1</ele>
        <time>2015-10-31T12:06:29.913Z</time>
      </trkpt>
      <trkpt lat="42.88029" lon="1.45251">
        <ele>1575.9</ele>
        <time>2015-10-31T12:06:30.900Z</time>
      </trkpt>
      <trkpt lat="42.88036" lon="1.45251">
        <ele>1575</ele>
        <time>2015-10-31T12:06:35.942Z</time>
      </trkpt>
      <trkpt lat="42.88038" lon="1.45251">
        <ele>1574.9</ele>
        <time>2015-10-31T12:06:36.886Z</time>
      </trkpt>
      <trkpt lat="42.88045" lon="1.45251">
        <ele>1575.4</ele>
        <time>2015-10-31T12:06:41.963Z</time>
      </trkpt>
      <trkpt lat="42.88047" lon="1.45251">
        <ele>1575.8</ele>
        <time>2015-10-31T12:06:42.894Z</time>
      </trkpt>
      <trkpt lat="42.88055" lon="1.45251">
        <ele>1577.6</ele>
        <time>2015-10-31T12:06:47.911Z</time>
      </trkpt>
      <trkpt lat="42.88057" lon="1.45251">
        <ele>1577.5</ele>
        <time>2015-10-31T12:06:48.886Z</time>
      </trkpt>
      <trkpt lat="42.88065" lon="1.45249">
        <ele>1576.1</ele>
        <time>2015-10-31T12:06:53.911Z</time>
      </trkpt>
      <trkpt lat="42.88067" lon="1.45248">
        <ele>1576</ele>
        <time>2015-10-31T12:06:54.885Z</time>
      </trkpt>
      <trkpt lat="42.88074" lon="1.45246">
        <ele>1575.1</ele>
        <time>2015-10-31T12:06:59.912Z</time>
      </trkpt>
      <trkpt lat="42.88076" lon="1.45245">
        <ele>1575.1</ele>
        <time>2015-10-31T12:07:00.886Z</time>
      </trkpt>
      <trkpt lat="42.88083" lon="1.45239">
        <ele>1574.6</ele>
        <time>2015-10-31T12:07:06.911Z</time>
      </trkpt>
      <trkpt lat="42.88085" lon="1.45239">
        <ele>1574.4</ele>
        <time>2015-10-31T12:07:07.888Z</time>
      </trkpt>
      <trkpt lat="42.88092" lon="1.45236">
        <ele>1573.9</ele>
        <time>2015-10-31T12:07:12.926Z</time>
      </trkpt>
      <trkpt lat="42.88094" lon="1.45236">
        <ele>1573.9</ele>
        <time>2015-10-31T12:07:13.888Z</time>
      </trkpt>
      <trkpt lat="42.88102" lon="1.45234">
        <ele>1574.1</ele>
        <time>2015-10-31T12:07:18.912Z</time>
      </trkpt>
      <trkpt lat="42.88103" lon="1.45234">
        <ele>1574.2</ele>
        <time>2015-10-31T12:07:19.888Z</time>
      </trkpt>
      <trkpt lat="42.88111" lon="1.45232">
        <ele>1573.4</ele>
        <time>2015-10-31T12:07:25.915Z</time>
      </trkpt>
      <trkpt lat="42.88113" lon="1.45232">
        <ele>1573.2</ele>
        <time>2015-10-31T12:07:26.886Z</time>
      </trkpt>
      <trkpt lat="42.88121" lon="1.45229">
        <ele>1572.9</ele>
        <time>2015-10-31T12:07:31.913Z</time>
      </trkpt>
      <trkpt lat="42.88122" lon="1.45229">
        <ele>1572.9</ele>
        <time>2015-10-31T12:07:32.889Z</time>
      </trkpt>
      <trkpt lat="42.8813" lon="1.45226">
        <ele>1572.6</ele>
        <time>2015-10-31T12:07:37.913Z</time>
      </trkpt>
      <trkpt lat="42.88131" lon="1.45225">
        <ele>1572.7</ele>
        <time>2015-10-31T12:07:38.885Z</time>
      </trkpt>
      <trkpt lat="42.88138" lon="1.45221">
        <ele>1572.2</ele>
        <time>2015-10-31T12:07:43.961Z</time>
      </trkpt>
      <trkpt lat="42.8814" lon="1.4522">
        <ele>1571.9</ele>
        <time>2015-10-31T12:07:44.886Z</time>
      </trkpt>
      <trkpt lat="42.88147" lon="1.45217">
        <ele>1570.8</ele>
        <time>2015-10-31T12:07:49.928Z</time>
      </trkpt>
      <trkpt lat="42.88149" lon="1.45217">
        <ele>1570.7</ele>
        <time>2015-10-31T12:07:50.885Z</time>
      </trkpt>
      <trkpt lat="42.88157" lon="1.45214">
        <ele>1569.6</ele>
        <time>2015-10-31T12:07:56.911Z</time>
      </trkpt>
      <trkpt lat="42.88159" lon="1.45213">
        <ele>1569.5</ele>
        <time>2015-10-31T12:07:57.886Z</time>
      </trkpt>
      <trkpt lat="42.88166" lon="1.45212">
        <ele>1569.5</ele>
        <time>2015-10-31T12:08:01.914Z</time>
      </trkpt>
      <trkpt lat="42.88168" lon="1.45211">
        <ele>1569.5</ele>
        <time>2015-10-31T12:08:02.886Z</time>
      </trkpt>
      <trkpt lat="42.88176" lon="1.45208">
        <ele>1568.5</ele>
        <time>2015-10-31T12:08:08.911Z</time>
      </trkpt>
      <trkpt lat="42.88177" lon="1.45207">
        <ele>1568.7</ele>
        <time>2015-10-31T12:08:09.885Z</time>
      </trkpt>
      <trkpt lat="42.88185" lon="1.45204">
        <ele>1568.5</ele>
        <time>2015-10-31T12:08:15.925Z</time>
      </trkpt>
      <trkpt lat="42.88187" lon="1.45204">
        <ele>1568.5</ele>
        <time>2015-10-31T12:08:16.886Z</time>
      </trkpt>
      <trkpt lat="42.88195" lon="1.45203">
        <ele>1568.6</ele>
        <time>2015-10-31T12:08:21.911Z</time>
      </trkpt>
      <trkpt lat="42.88197" lon="1.45203">
        <ele>1568.6</ele>
        <time>2015-10-31T12:08:22.886Z</time>
      </trkpt>
      <trkpt lat="42.88204" lon="1.45201">
        <ele>1568.3</ele>
        <time>2015-10-31T12:08:27.911Z</time>
      </trkpt>
      <trkpt lat="42.88206" lon="1.45201">
        <ele>1568.1</ele>
        <time>2015-10-31T12:08:28.886Z</time>
      </trkpt>
      <trkpt lat="42.88214" lon="1.45196">
        <ele>1567.1</ele>
        <time>2015-10-31T12:08:34.911Z</time>
      </trkpt>
      <trkpt lat="42.88215" lon="1.45194">
        <ele>1567</ele>
        <time>2015-10-31T12:08:35.886Z</time>
      </trkpt>
      <trkpt lat="42.88222" lon="1.45191">
        <ele>1566.7</ele>
        <time>2015-10-31T12:08:39.909Z</time>
      </trkpt>
      <trkpt lat="42.88224" lon="1.4519">
        <ele>1566.4</ele>
        <time>2015-10-31T12:08:40.886Z</time>
      </trkpt>
      <trkpt lat="42.88232" lon="1.45186">
        <ele>1565.6</ele>
        <time>2015-10-31T12:08:45.912Z</time>
      </trkpt>
      <trkpt lat="42.88233" lon="1.45185">
        <ele>1565.4</ele>
        <time>2015-10-31T12:08:46.886Z</time>
      </trkpt>
      <trkpt lat="42.88241" lon="1.45182">
        <ele>1564.7</ele>
        <time>2015-10-31T12:08:52.040Z</time>
      </trkpt>
      <trkpt lat="42.88242" lon="1.45181">
        <ele>1564.6</ele>
        <time>2015-10-31T12:08:52.888Z</time>
      </trkpt>
      <trkpt lat="42.88249" lon="1.45177">
        <ele>1564.5</ele>
        <time>2015-10-31T12:08:56.911Z</time>
      </trkpt>
      <trkpt lat="42.88251" lon="1.45176">
        <ele>1564.5</ele>
        <time>2015-10-31T12:08:57.886Z</time>
      </trkpt>
      <trkpt lat="42.88258" lon="1.45171">
        <ele>1564.2</ele>
        <time>2015-10-31T12:09:02.036Z</time>
      </trkpt>
      <trkpt lat="42.8826" lon="1.4517">
        <ele>1563.9</ele>
        <time>2015-10-31T12:09:02.894Z</time>
      </trkpt>
      <trkpt lat="42.88267" lon="1.45166">
        <ele>1563.7</ele>
        <time>2015-10-31T12:09:06.911Z</time>
      </trkpt>
      <trkpt lat="42.88268" lon="1.45164">
        <ele>1563.4</ele>
        <time>2015-10-31T12:09:07.888Z</time>
      </trkpt>
      <trkpt lat="42.88276" lon="1.4516">
        <ele>1562.5</ele>
        <time>2015-10-31T12:09:12.910Z</time>
      </trkpt>
      <trkpt lat="42.88278" lon="1.45159">
        <ele>1562.3</ele>
        <time>2015-10-31T12:09:13.888Z</time>
      </trkpt>
      <trkpt lat="42.88285" lon="1.45154">
        <ele>1561.4</ele>
        <time>2015-10-31T12:09:18.926Z</time>
      </trkpt>
      <trkpt lat="42.88287" lon="1.45153">
        <ele>1561.4</ele>
        <time>2015-10-31T12:09:19.888Z</time>
      </trkpt>
      <trkpt lat="42.88293" lon="1.45146">
        <ele>1560.6</ele>
        <time>2015-10-31T12:09:24.910Z</time>
      </trkpt>
      <trkpt lat="42.88294" lon="1.45145">
        <ele>1560.5</ele>
        <time>2015-10-31T12:09:25.888Z</time>
      </trkpt>
      <trkpt lat="42.88301" lon="1.4514">
        <ele>1559.9</ele>
        <time>2015-10-31T12:09:30.910Z</time>
      </trkpt>
      <trkpt lat="42.88302" lon="1.45139">
        <ele>1559.8</ele>
        <time>2015-10-31T12:09:31.888Z</time>
      </trkpt>
      <trkpt lat="42.88308" lon="1.45133">
        <ele>1559.6</ele>
        <time>2015-10-31T12:09:35.911Z</time>
      </trkpt>
      <trkpt lat="42.8831" lon="1.45131">
        <ele>1559.6</ele>
        <time>2015-10-31T12:09:36.885Z</time>
      </trkpt>
      <trkpt lat="42.88316" lon="1.45124">
        <ele>1559.6</ele>
        <time>2015-10-31T12:09:41.910Z</time>
      </trkpt>
      <trkpt lat="42.88317" lon="1.45123">
        <ele>1559.6</ele>
        <time>2015-10-31T12:09:42.886Z</time>
      </trkpt>
      <trkpt lat="42.88324" lon="1.45116">
        <ele>1559.6</ele>
        <time>2015-10-31T12:09:48.911Z</time>
      </trkpt>
      <trkpt lat="42.88325" lon="1.45114">
        <ele>1559.7</ele>
        <time>2015-10-31T12:09:49.888Z</time>
      </trkpt>
      <trkpt lat="42.88332" lon="1.45107">
        <ele>1559.7</ele>
        <time>2015-10-31T12:09:55.927Z</time>
      </trkpt>
      <trkpt lat="42.88333" lon="1.45106">
        <ele>1559.5</ele>
        <time>2015-10-31T12:09:56.885Z</time>
      </trkpt>
      <trkpt lat="42.88338" lon="1.45096">
        <ele>1559.3</ele>
        <time>2015-10-31T12:10:02.910Z</time>
      </trkpt>
      <trkpt lat="42.88339" lon="1.45095">
        <ele>1559.4</ele>
        <time>2015-10-31T12:10:03.892Z</time>
      </trkpt>
      <trkpt lat="42.88342" lon="1.45085">
        <ele>1559.6</ele>
        <time>2015-10-31T12:10:09.033Z</time>
      </trkpt>
      <trkpt lat="42.88343" lon="1.45084">
        <ele>1559.6</ele>
        <time>2015-10-31T12:10:09.885Z</time>
      </trkpt>
      <trkpt lat="42.88349" lon="1.45077">
        <ele>1559.8</ele>
        <time>2015-10-31T12:10:14.911Z</time>
      </trkpt>
      <trkpt lat="42.88351" lon="1.45076">
        <ele>1559.8</ele>
        <time>2015-10-31T12:10:15.885Z</time>
      </trkpt>
      <trkpt lat="42.88355" lon="1.45067">
        <ele>1560.2</ele>
        <time>2015-10-31T12:10:20.911Z</time>
      </trkpt>
      <trkpt lat="42.88356" lon="1.45065">
        <ele>1560.2</ele>
        <time>2015-10-31T12:10:21.899Z</time>
      </trkpt>
      <trkpt lat="42.8836" lon="1.45055">
        <ele>1560.7</ele>
        <time>2015-10-31T12:10:27.911Z</time>
      </trkpt>
      <trkpt lat="42.88361" lon="1.45054">
        <ele>1560.7</ele>
        <time>2015-10-31T12:10:28.886Z</time>
      </trkpt>
      <trkpt lat="42.88365" lon="1.45044">
        <ele>1560.9</ele>
        <time>2015-10-31T12:10:33.911Z</time>
      </trkpt>
      <trkpt lat="42.88365" lon="1.45042">
        <ele>1561.1</ele>
        <time>2015-10-31T12:10:34.886Z</time>
      </trkpt>
      <trkpt lat="42.8837" lon="1.45032">
        <ele>1561.4</ele>
        <time>2015-10-31T12:10:39.911Z</time>
      </trkpt>
      <trkpt lat="42.88371" lon="1.4503">
        <ele>1561.6</ele>
        <time>2015-10-31T12:10:40.886Z</time>
      </trkpt>
      <trkpt lat="42.88377" lon="1.45022">
        <ele>1562.1</ele>
        <time>2015-10-31T12:10:45.910Z</time>
      </trkpt>
      <trkpt lat="42.88379" lon="1.45021">
        <ele>1562.1</ele>
        <time>2015-10-31T12:10:46.886Z</time>
      </trkpt>
      <trkpt lat="42.88385" lon="1.45014">
        <ele>1562.5</ele>
        <time>2015-10-31T12:10:52.923Z</time>
      </trkpt>
      <trkpt lat="42.88386" lon="1.45012">
        <ele>1562.5</ele>
        <time>2015-10-31T12:10:53.900Z</time>
      </trkpt>
      <trkpt lat="42.88394" lon="1.45006">
        <ele>1562.7</ele>
        <time>2015-10-31T12:10:59.911Z</time>
      </trkpt>
      <trkpt lat="42.88395" lon="1.45005">
        <ele>1562.7</ele>
        <time>2015-10-31T12:11:00.886Z</time>
      </trkpt>
      <trkpt lat="42.88403" lon="1.4501">
        <ele>1563</ele>
        <time>2015-10-31T12:11:07.915Z</time>
      </trkpt>
      <trkpt lat="42.88404" lon="1.4501">
        <ele>1563.2</ele>
        <time>2015-10-31T12:11:08.886Z</time>
      </trkpt>
      <trkpt lat="42.88406" lon="1.45">
        <ele>1562.8</ele>
        <time>2015-10-31T12:11:33.926Z</time>
      </trkpt>
      <trkpt lat="42.88406" lon="1.44998">
        <ele>1562.9</ele>
        <time>2015-10-31T12:11:34.886Z</time>
      </trkpt>
      <trkpt lat="42.88411" lon="1.44991">
        <ele>1562.8</ele>
        <time>2015-10-31T12:11:38.924Z</time>
      </trkpt>
      <trkpt lat="42.88412" lon="1.44988">
        <ele>1562.8</ele>
        <time>2015-10-31T12:11:39.885Z</time>
      </trkpt>
      <trkpt lat="42.88416" lon="1.4498">
        <ele>1563.2</ele>
        <time>2015-10-31T12:11:44.955Z</time>
      </trkpt>
      <trkpt lat="42.88417" lon="1.44978">
        <ele>1563.2</ele>
        <time>2015-10-31T12:11:45.886Z</time>
      </trkpt>
      <trkpt lat="42.88424" lon="1.4497">
        <ele>1563.6</ele>
        <time>2015-10-31T12:11:51.911Z</time>
      </trkpt>
      <trkpt lat="42.88424" lon="1.44968">
        <ele>1563.7</ele>
        <time>2015-10-31T12:11:52.886Z</time>
      </trkpt>
      <trkpt lat="42.88431" lon="1.44961">
        <ele>1564.6</ele>
        <time>2015-10-31T12:12:04.911Z</time>
      </trkpt>
      <trkpt lat="42.88432" lon="1.44959">
        <ele>1564.7</ele>
        <time>2015-10-31T12:12:05.886Z</time>
      </trkpt>
      <trkpt lat="42.88441" lon="1.44957">
        <ele>1564.8</ele>
        <time>2015-10-31T12:12:15.910Z</time>
      </trkpt>
      <trkpt lat="42.88442" lon="1.44958">
        <ele>1564.7</ele>
        <time>2015-10-31T12:12:16.885Z</time>
      </trkpt>
      <trkpt lat="42.88449" lon="1.44962">
        <ele>1564.6</ele>
        <time>2015-10-31T12:12:24.910Z</time>
      </trkpt>
      <trkpt lat="42.8845" lon="1.44962">
        <ele>1564.6</ele>
        <time>2015-10-31T12:12:25.888Z</time>
      </trkpt>
      <trkpt lat="42.88457" lon="1.44959">
        <ele>1564.5</ele>
        <time>2015-10-31T12:12:28.925Z</time>
      </trkpt>
      <trkpt lat="42.8846" lon="1.44959">
        <ele>1564.5</ele>
        <time>2015-10-31T12:12:29.886Z</time>
      </trkpt>
      <trkpt lat="42.88467" lon="1.44959">
        <ele>1564</ele>
        <time>2015-10-31T12:12:32.912Z</time>
      </trkpt>
      <trkpt lat="42.88469" lon="1.44958">
        <ele>1563.6</ele>
        <time>2015-10-31T12:12:33.886Z</time>
      </trkpt>
      <trkpt lat="42.88477" lon="1.44956">
        <ele>1563.2</ele>
        <time>2015-10-31T12:12:36.910Z</time>
      </trkpt>
      <trkpt lat="42.88479" lon="1.44955">
        <ele>1563</ele>
        <time>2015-10-31T12:12:37.888Z</time>
      </trkpt>
      <trkpt lat="42.88488" lon="1.44953">
        <ele>1562.3</ele>
        <time>2015-10-31T12:12:40.910Z</time>
      </trkpt>
      <trkpt lat="42.88491" lon="1.44953">
        <ele>1561.9</ele>
        <time>2015-10-31T12:12:41.886Z</time>
      </trkpt>
      <trkpt lat="42.88498" lon="1.44953">
        <ele>1561.5</ele>
        <time>2015-10-31T12:12:45.094Z</time>
      </trkpt>
      <trkpt lat="42.885" lon="1.44953">
        <ele>1561.5</ele>
        <time>2015-10-31T12:12:45.886Z</time>
      </trkpt>
      <trkpt lat="42.88508" lon="1.44954">
        <ele>1561.1</ele>
        <time>2015-10-31T12:12:48.911Z</time>
      </trkpt>
      <trkpt lat="42.8851" lon="1.44955">
        <ele>1561.2</ele>
        <time>2015-10-31T12:12:49.888Z</time>
      </trkpt>
      <trkpt lat="42.88518" lon="1.44957">
        <ele>1561.4</ele>
        <time>2015-10-31T12:12:55.926Z</time>
      </trkpt>
      <trkpt lat="42.88519" lon="1.44958">
        <ele>1561.3</ele>
        <time>2015-10-31T12:12:56.885Z</time>
      </trkpt>
      <trkpt lat="42.88527" lon="1.44961">
        <ele>1561.8</ele>
        <time>2015-10-31T12:13:03.926Z</time>
      </trkpt>
      <trkpt lat="42.88528" lon="1.44962">
        <ele>1561.8</ele>
        <time>2015-10-31T12:13:04.885Z</time>
      </trkpt>
      <trkpt lat="42.88535" lon="1.44966">
        <ele>1559.3</ele>
        <time>2015-10-31T12:13:11.910Z</time>
      </trkpt>
      <trkpt lat="42.88537" lon="1.44967">
        <ele>1558.9</ele>
        <time>2015-10-31T12:13:12.885Z</time>
      </trkpt>
      <trkpt lat="42.88545" lon="1.44972">
        <ele>1557.3</ele>
        <time>2015-10-31T12:13:17.910Z</time>
      </trkpt>
      <trkpt lat="42.88547" lon="1.44972">
        <ele>1557.1</ele>
        <time>2015-10-31T12:13:18.886Z</time>
      </trkpt>
      <trkpt lat="42.88555" lon="1.44969">
        <ele>1556</ele>
        <time>2015-10-31T12:13:24.910Z</time>
      </trkpt>
      <trkpt lat="42.88556" lon="1.44968">
        <ele>1555.8</ele>
        <time>2015-10-31T12:13:25.888Z</time>
      </trkpt>
      <trkpt lat="42.88563" lon="1.44962">
        <ele>1555</ele>
        <time>2015-10-31T12:13:31.912Z</time>
      </trkpt>
      <trkpt lat="42.88565" lon="1.44962">
        <ele>1554.7</ele>
        <time>2015-10-31T12:13:32.885Z</time>
      </trkpt>
      <trkpt lat="42.88572" lon="1.44962">
        <ele>1553.9</ele>
        <time>2015-10-31T12:13:36.911Z</time>
      </trkpt>
      <trkpt lat="42.88574" lon="1.44962">
        <ele>1553.6</ele>
        <time>2015-10-31T12:13:37.888Z</time>
      </trkpt>
      <trkpt lat="42.88582" lon="1.44964">
        <ele>1551.5</ele>
        <time>2015-10-31T12:13:44.911Z</time>
      </trkpt>
      <trkpt lat="42.88584" lon="1.44964">
        <ele>1551.3</ele>
        <time>2015-10-31T12:13:45.886Z</time>
      </trkpt>
      <trkpt lat="42.88592" lon="1.44963">
        <ele>1550.2</ele>
        <time>2015-10-31T12:13:50.910Z</time>
      </trkpt>
      <trkpt lat="42.88594" lon="1.44963">
        <ele>1550.2</ele>
        <time>2015-10-31T12:13:51.886Z</time>
      </trkpt>
      <trkpt lat="42.88602" lon="1.44964">
        <ele>1550.4</ele>
        <time>2015-10-31T12:14:02.911Z</time>
      </trkpt>
      <trkpt lat="42.88603" lon="1.44964">
        <ele>1550.3</ele>
        <time>2015-10-31T12:14:03.886Z</time>
      </trkpt>
      <trkpt lat="42.88611" lon="1.4496">
        <ele>1550.1</ele>
        <time>2015-10-31T12:14:08.911Z</time>
      </trkpt>
      <trkpt lat="42.88612" lon="1.4496">
        <ele>1550.1</ele>
        <time>2015-10-31T12:14:09.885Z</time>
      </trkpt>
      <trkpt lat="42.8862" lon="1.44959">
        <ele>1550.2</ele>
        <time>2015-10-31T12:14:14.911Z</time>
      </trkpt>
      <trkpt lat="42.88622" lon="1.44958">
        <ele>1550.3</ele>
        <time>2015-10-31T12:14:15.886Z</time>
      </trkpt>
      <trkpt lat="42.88631" lon="1.44957">
        <ele>1550.5</ele>
        <time>2015-10-31T12:14:20.911Z</time>
      </trkpt>
      <trkpt lat="42.88632" lon="1.44957">
        <ele>1550.4</ele>
        <time>2015-10-31T12:14:21.886Z</time>
      </trkpt>
      <trkpt lat="42.8864" lon="1.44961">
        <ele>1549.2</ele>
        <time>2015-10-31T12:14:27.910Z</time>
      </trkpt>
      <trkpt lat="42.88642" lon="1.44962">
        <ele>1548.9</ele>
        <time>2015-10-31T12:14:28.886Z</time>
      </trkpt>
      <trkpt lat="42.88649" lon="1.44963">
        <ele>1547.9</ele>
        <time>2015-10-31T12:14:33.926Z</time>
      </trkpt>
      <trkpt lat="42.88651" lon="1.44963">
        <ele>1548</ele>
        <time>2015-10-31T12:14:34.886Z</time>
      </trkpt>
      <trkpt lat="42.88659" lon="1.44961">
        <ele>1547.1</ele>
        <time>2015-10-31T12:14:40.911Z</time>
      </trkpt>
      <trkpt lat="42.8866" lon="1.44963">
        <ele>1546.9</ele>
        <time>2015-10-31T12:14:41.886Z</time>
      </trkpt>
      <trkpt lat="42.88667" lon="1.44969">
        <ele>1544.9</ele>
        <time>2015-10-31T12:14:47.911Z</time>
      </trkpt>
      <trkpt lat="42.88668" lon="1.4497">
        <ele>1544.5</ele>
        <time>2015-10-31T12:14:48.886Z</time>
      </trkpt>
      <trkpt lat="42.88675" lon="1.44972">
        <ele>1543.3</ele>
        <time>2015-10-31T12:14:53.924Z</time>
      </trkpt>
      <trkpt lat="42.88677" lon="1.44972">
        <ele>1543.1</ele>
        <time>2015-10-31T12:14:54.886Z</time>
      </trkpt>
      <trkpt lat="42.88686" lon="1.44971">
        <ele>1541.4</ele>
        <time>2015-10-31T12:15:01.914Z</time>
      </trkpt>
      <trkpt lat="42.88688" lon="1.44971">
        <ele>1541.1</ele>
        <time>2015-10-31T12:15:02.886Z</time>
      </trkpt>
      <trkpt lat="42.88696" lon="1.44969">
        <ele>1539.9</ele>
        <time>2015-10-31T12:15:08.910Z</time>
      </trkpt>
      <trkpt lat="42.88698" lon="1.44968">
        <ele>1539.6</ele>
        <time>2015-10-31T12:15:09.885Z</time>
      </trkpt>
      <trkpt lat="42.88705" lon="1.44964">
        <ele>1539.1</ele>
        <time>2015-10-31T12:15:16.910Z</time>
      </trkpt>
      <trkpt lat="42.88706" lon="1.44963">
        <ele>1539.1</ele>
        <time>2015-10-31T12:15:17.886Z</time>
      </trkpt>
      <trkpt lat="42.88714" lon="1.44967">
        <ele>1537.9</ele>
        <time>2015-10-31T12:15:28.925Z</time>
      </trkpt>
      <trkpt lat="42.88715" lon="1.44966">
        <ele>1537.9</ele>
        <time>2015-10-31T12:15:29.886Z</time>
      </trkpt>
      <trkpt lat="42.88722" lon="1.4496">
        <ele>1538.1</ele>
        <time>2015-10-31T12:15:33.911Z</time>
      </trkpt>
      <trkpt lat="42.88724" lon="1.4496">
        <ele>1538.1</ele>
        <time>2015-10-31T12:15:34.886Z</time>
      </trkpt>
      <trkpt lat="42.88733" lon="1.4496">
        <ele>1538.7</ele>
        <time>2015-10-31T12:15:41.030Z</time>
      </trkpt>
      <trkpt lat="42.88734" lon="1.44959">
        <ele>1538.6</ele>
        <time>2015-10-31T12:15:41.886Z</time>
      </trkpt>
      <trkpt lat="42.88742" lon="1.44958">
        <ele>1538.4</ele>
        <time>2015-10-31T12:15:47.910Z</time>
      </trkpt>
      <trkpt lat="42.88743" lon="1.44958">
        <ele>1538.4</ele>
        <time>2015-10-31T12:15:48.886Z</time>
      </trkpt>
      <trkpt lat="42.88751" lon="1.44957">
        <ele>1537.8</ele>
        <time>2015-10-31T12:15:53.911Z</time>
      </trkpt>
      <trkpt lat="42.88753" lon="1.44957">
        <ele>1537.9</ele>
        <time>2015-10-31T12:15:54.886Z</time>
      </trkpt>
      <trkpt lat="42.88761" lon="1.44958">
        <ele>1537.3</ele>
        <time>2015-10-31T12:15:59.912Z</time>
      </trkpt>
      <trkpt lat="42.88763" lon="1.44959">
        <ele>1537.4</ele>
        <time>2015-10-31T12:16:00.887Z</time>
      </trkpt>
      <trkpt lat="42.8877" lon="1.44957">
        <ele>1537.4</ele>
        <time>2015-10-31T12:16:06.911Z</time>
      </trkpt>
      <trkpt lat="42.88772" lon="1.44957">
        <ele>1537.4</ele>
        <time>2015-10-31T12:16:07.888Z</time>
      </trkpt>
      <trkpt lat="42.8878" lon="1.44954">
        <ele>1535.9</ele>
        <time>2015-10-31T12:16:14.911Z</time>
      </trkpt>
      <trkpt lat="42.88782" lon="1.44953">
        <ele>1535.7</ele>
        <time>2015-10-31T12:16:15.886Z</time>
      </trkpt>
      <trkpt lat="42.8879" lon="1.44951">
        <ele>1533.1</ele>
        <time>2015-10-31T12:16:22.912Z</time>
      </trkpt>
      <trkpt lat="42.88791" lon="1.44952">
        <ele>1532.7</ele>
        <time>2015-10-31T12:16:23.887Z</time>
      </trkpt>
      <trkpt lat="42.88798" lon="1.44946">
        <ele>1531.7</ele>
        <time>2015-10-31T12:16:31.913Z</time>
      </trkpt>
      <trkpt lat="42.888" lon="1.44945">
        <ele>1531.5</ele>
        <time>2015-10-31T12:16:32.890Z</time>
      </trkpt>
      <trkpt lat="42.88807" lon="1.44943">
        <ele>1530.1</ele>
        <time>2015-10-31T12:16:37.913Z</time>
      </trkpt>
      <trkpt lat="42.88809" lon="1.44944">
        <ele>1529.7</ele>
        <time>2015-10-31T12:16:38.886Z</time>
      </trkpt>
      <trkpt lat="42.88817" lon="1.44949">
        <ele>1528</ele>
        <time>2015-10-31T12:16:44.911Z</time>
      </trkpt>
      <trkpt lat="42.88818" lon="1.4495">
        <ele>1527.7</ele>
        <time>2015-10-31T12:16:45.887Z</time>
      </trkpt>
      <trkpt lat="42.88825" lon="1.44955">
        <ele>1525.8</ele>
        <time>2015-10-31T12:16:51.911Z</time>
      </trkpt>
      <trkpt lat="42.88827" lon="1.44956">
        <ele>1525.6</ele>
        <time>2015-10-31T12:16:52.887Z</time>
      </trkpt>
      <trkpt lat="42.88833" lon="1.44962">
        <ele>1524.2</ele>
        <time>2015-10-31T12:16:57.922Z</time>
      </trkpt>
      <trkpt lat="42.88835" lon="1.44963">
        <ele>1523.9</ele>
        <time>2015-10-31T12:16:58.887Z</time>
      </trkpt>
      <trkpt lat="42.88843" lon="1.44968">
        <ele>1522.1</ele>
        <time>2015-10-31T12:17:05.912Z</time>
      </trkpt>
      <trkpt lat="42.88844" lon="1.44968">
        <ele>1521.9</ele>
        <time>2015-10-31T12:17:06.886Z</time>
      </trkpt>
      <trkpt lat="42.88853" lon="1.44969">
        <ele>1520</ele>
        <time>2015-10-31T12:17:13.914Z</time>
      </trkpt>
      <trkpt lat="42.88854" lon="1.4497">
        <ele>1519.5</ele>
        <time>2015-10-31T12:17:14.901Z</time>
      </trkpt>
      <trkpt lat="42.88863" lon="1.44972">
        <ele>1517.5</ele>
        <time>2015-10-31T12:17:20.912Z</time>
      </trkpt>
      <trkpt lat="42.88866" lon="1.44971">
        <ele>1517</ele>
        <time>2015-10-31T12:17:21.887Z</time>
      </trkpt>
      <trkpt lat="42.88874" lon="1.44973">
        <ele>1515.8</ele>
        <time>2015-10-31T12:17:26.922Z</time>
      </trkpt>
      <trkpt lat="42.88875" lon="1.44974">
        <ele>1515.5</ele>
        <time>2015-10-31T12:17:27.887Z</time>
      </trkpt>
      <trkpt lat="42.88883" lon="1.44975">
        <ele>1514.2</ele>
        <time>2015-10-31T12:17:33.927Z</time>
      </trkpt>
      <trkpt lat="42.88884" lon="1.44976">
        <ele>1513.9</ele>
        <time>2015-10-31T12:17:34.887Z</time>
      </trkpt>
      <trkpt lat="42.88892" lon="1.4498">
        <ele>1512.8</ele>
        <time>2015-10-31T12:17:40.911Z</time>
      </trkpt>
      <trkpt lat="42.88893" lon="1.44981">
        <ele>1512.7</ele>
        <time>2015-10-31T12:17:41.887Z</time>
      </trkpt>
      <trkpt lat="42.88902" lon="1.44981">
        <ele>1511.8</ele>
        <time>2015-10-31T12:17:47.911Z</time>
      </trkpt>
      <trkpt lat="42.88904" lon="1.44981">
        <ele>1511.6</ele>
        <time>2015-10-31T12:17:48.887Z</time>
      </trkpt>
      <trkpt lat="42.88909" lon="1.44988">
        <ele>1510.6</ele>
        <time>2015-10-31T12:17:53.912Z</time>
      </trkpt>
      <trkpt lat="42.8891" lon="1.44989">
        <ele>1510.3</ele>
        <time>2015-10-31T12:17:54.887Z</time>
      </trkpt>
      <trkpt lat="42.88915" lon="1.44997">
        <ele>1509</ele>
        <time>2015-10-31T12:17:58.912Z</time>
      </trkpt>
      <trkpt lat="42.88916" lon="1.44998">
        <ele>1508.7</ele>
        <time>2015-10-31T12:17:59.888Z</time>
      </trkpt>
      <trkpt lat="42.88923" lon="1.45006">
        <ele>1507.8</ele>
        <time>2015-10-31T12:18:05.911Z</time>
      </trkpt>
      <trkpt lat="42.88924" lon="1.45007">
        <ele>1507.7</ele>
        <time>2015-10-31T12:18:06.887Z</time>
      </trkpt>
      <trkpt lat="42.88929" lon="1.45016">
        <ele>1506.9</ele>
        <time>2015-10-31T12:18:12.911Z</time>
      </trkpt>
      <trkpt lat="42.88929" lon="1.45018">
        <ele>1506.8</ele>
        <time>2015-10-31T12:18:13.888Z</time>
      </trkpt>
      <trkpt lat="42.88933" lon="1.45028">
        <ele>1506.2</ele>
        <time>2015-10-31T12:18:18.927Z</time>
      </trkpt>
      <trkpt lat="42.88933" lon="1.4503">
        <ele>1506</ele>
        <time>2015-10-31T12:18:19.889Z</time>
      </trkpt>
      <trkpt lat="42.88938" lon="1.45037">
        <ele>1505.1</ele>
        <time>2015-10-31T12:18:25.913Z</time>
      </trkpt>
      <trkpt lat="42.8894" lon="1.45039">
        <ele>1505</ele>
        <time>2015-10-31T12:18:26.887Z</time>
      </trkpt>
      <trkpt lat="42.88945" lon="1.45047">
        <ele>1504.9</ele>
        <time>2015-10-31T12:18:32.912Z</time>
      </trkpt>
      <trkpt lat="42.88946" lon="1.45049">
        <ele>1504.9</ele>
        <time>2015-10-31T12:18:33.887Z</time>
      </trkpt>
      <trkpt lat="42.8895" lon="1.45059">
        <ele>1504.8</ele>
        <time>2015-10-31T12:18:39.912Z</time>
      </trkpt>
      <trkpt lat="42.8895" lon="1.4506">
        <ele>1504.8</ele>
        <time>2015-10-31T12:18:40.887Z</time>
      </trkpt>
      <trkpt lat="42.88952" lon="1.4507">
        <ele>1504</ele>
        <time>2015-10-31T12:18:45.911Z</time>
      </trkpt>
      <trkpt lat="42.88953" lon="1.45072">
        <ele>1503.9</ele>
        <time>2015-10-31T12:18:46.887Z</time>
      </trkpt>
      <trkpt lat="42.88954" lon="1.45082">
        <ele>1503.6</ele>
        <time>2015-10-31T12:18:52.913Z</time>
      </trkpt>
      <trkpt lat="42.88956" lon="1.45084">
        <ele>1503.6</ele>
        <time>2015-10-31T12:18:53.887Z</time>
      </trkpt>
      <trkpt lat="42.88962" lon="1.45092">
        <ele>1503.3</ele>
        <time>2015-10-31T12:18:59.912Z</time>
      </trkpt>
      <trkpt lat="42.88963" lon="1.45092">
        <ele>1503.1</ele>
        <time>2015-10-31T12:19:00.887Z</time>
      </trkpt>
      <trkpt lat="42.88969" lon="1.45098">
        <ele>1502.1</ele>
        <time>2015-10-31T12:19:07.913Z</time>
      </trkpt>
      <trkpt lat="42.88971" lon="1.45099">
        <ele>1502</ele>
        <time>2015-10-31T12:19:08.887Z</time>
      </trkpt>
      <trkpt lat="42.88978" lon="1.45105">
        <ele>1501.1</ele>
        <time>2015-10-31T12:19:15.912Z</time>
      </trkpt>
      <trkpt lat="42.8898" lon="1.45105">
        <ele>1500.9</ele>
        <time>2015-10-31T12:19:16.887Z</time>
      </trkpt>
      <trkpt lat="42.88987" lon="1.45109">
        <ele>1500.5</ele>
        <time>2015-10-31T12:19:21.911Z</time>
      </trkpt>
      <trkpt lat="42.88989" lon="1.4511">
        <ele>1500.5</ele>
        <time>2015-10-31T12:19:22.887Z</time>
      </trkpt>
      <trkpt lat="42.88997" lon="1.45109">
        <ele>1499.7</ele>
        <time>2015-10-31T12:19:28.912Z</time>
      </trkpt>
      <trkpt lat="42.88998" lon="1.4511">
        <ele>1499.7</ele>
        <time>2015-10-31T12:19:29.887Z</time>
      </trkpt>
      <trkpt lat="42.89006" lon="1.45111">
        <ele>1499.4</ele>
        <time>2015-10-31T12:19:36.926Z</time>
      </trkpt>
      <trkpt lat="42.89008" lon="1.45112">
        <ele>1499.5</ele>
        <time>2015-10-31T12:19:37.889Z</time>
      </trkpt>
      <trkpt lat="42.89016" lon="1.45117">
        <ele>1499.8</ele>
        <time>2015-10-31T12:19:43.913Z</time>
      </trkpt>
      <trkpt lat="42.89016" lon="1.45118">
        <ele>1499.9</ele>
        <time>2015-10-31T12:19:44.887Z</time>
      </trkpt>
      <trkpt lat="42.89024" lon="1.45122">
        <ele>1500.1</ele>
        <time>2015-10-31T12:19:50.911Z</time>
      </trkpt>
      <trkpt lat="42.89025" lon="1.45123">
        <ele>1500.1</ele>
        <time>2015-10-31T12:19:51.887Z</time>
      </trkpt>
      <trkpt lat="42.89033" lon="1.45124">
        <ele>1499.9</ele>
        <time>2015-10-31T12:19:57.913Z</time>
      </trkpt>
      <trkpt lat="42.89034" lon="1.45125">
        <ele>1499.9</ele>
        <time>2015-10-31T12:19:58.887Z</time>
      </trkpt>
      <trkpt lat="42.89041" lon="1.45131">
        <ele>1500.2</ele>
        <time>2015-10-31T12:20:03.912Z</time>
      </trkpt>
      <trkpt lat="42.89042" lon="1.45132">
        <ele>1500.2</ele>
        <time>2015-10-31T12:20:04.887Z</time>
      </trkpt>
      <trkpt lat="42.8905" lon="1.45132">
        <ele>1501</ele>
        <time>2015-10-31T12:20:10.911Z</time>
      </trkpt>
      <trkpt lat="42.89052" lon="1.45131">
        <ele>1501.2</ele>
        <time>2015-10-31T12:20:11.887Z</time>
      </trkpt>
      <trkpt lat="42.89061" lon="1.4513">
        <ele>1504.4</ele>
        <time>2015-10-31T12:20:56.912Z</time>
      </trkpt>
      <trkpt lat="42.89061" lon="1.4513">
        <ele>1504.4</ele>
        <time>2015-10-31T12:20:57.887Z</time>
      </trkpt>
      <trkpt lat="42.89066" lon="1.45137">
        <ele>1504.3</ele>
        <time>2015-10-31T12:21:01.914Z</time>
      </trkpt>
      <trkpt lat="42.89068" lon="1.45139">
        <ele>1504.3</ele>
        <time>2015-10-31T12:21:02.887Z</time>
      </trkpt>
      <trkpt lat="42.89075" lon="1.45146">
        <ele>1503.3</ele>
        <time>2015-10-31T12:21:06.913Z</time>
      </trkpt>
      <trkpt lat="42.89076" lon="1.45147">
        <ele>1502.8</ele>
        <time>2015-10-31T12:21:07.889Z</time>
      </trkpt>
      <trkpt lat="42.89081" lon="1.45157">
        <ele>1500.8</ele>
        <time>2015-10-31T12:21:11.913Z</time>
      </trkpt>
      <trkpt lat="42.89082" lon="1.45159">
        <ele>1500.2</ele>
        <time>2015-10-31T12:21:12.887Z</time>
      </trkpt>
      <trkpt lat="42.89088" lon="1.45166">
        <ele>1498.2</ele>
        <time>2015-10-31T12:21:16.912Z</time>
      </trkpt>
      <trkpt lat="42.89089" lon="1.45167">
        <ele>1497.6</ele>
        <time>2015-10-31T12:21:17.887Z</time>
      </trkpt>
      <trkpt lat="42.8909" lon="1.45179">
        <ele>1494</ele>
        <time>2015-10-31T12:21:22.912Z</time>
      </trkpt>
      <trkpt lat="42.8909" lon="1.45181">
        <ele>1493.3</ele>
        <time>2015-10-31T12:21:23.887Z</time>
      </trkpt>
      <trkpt lat="42.89093" lon="1.45191">
        <ele>1489.5</ele>
        <time>2015-10-31T12:21:28.911Z</time>
      </trkpt>
      <trkpt lat="42.89094" lon="1.45194">
        <ele>1488.6</ele>
        <time>2015-10-31T12:21:29.887Z</time>
      </trkpt>
      <trkpt lat="42.89097" lon="1.45204">
        <ele>1485.2</ele>
        <time>2015-10-31T12:21:33.911Z</time>
      </trkpt>
      <trkpt lat="42.89098" lon="1.45206">
        <ele>1484.6</ele>
        <time>2015-10-31T12:21:34.887Z</time>
      </trkpt>
      <trkpt lat="42.89105" lon="1.45212">
        <ele>1481.1</ele>
        <time>2015-10-31T12:21:39.912Z</time>
      </trkpt>
      <trkpt lat="42.89106" lon="1.45214">
        <ele>1480.3</ele>
        <time>2015-10-31T12:21:40.887Z</time>
      </trkpt>
      <trkpt lat="42.89111" lon="1.45221">
        <ele>1477</ele>
        <time>2015-10-31T12:21:44.912Z</time>
      </trkpt>
      <trkpt lat="42.89113" lon="1.45222">
        <ele>1476.3</ele>
        <time>2015-10-31T12:21:45.887Z</time>
      </trkpt>
      <trkpt lat="42.89121" lon="1.45222">
        <ele>1473.1</ele>
        <time>2015-10-31T12:21:49.914Z</time>
      </trkpt>
      <trkpt lat="42.89123" lon="1.45221">
        <ele>1472.1</ele>
        <time>2015-10-31T12:21:50.887Z</time>
      </trkpt>
      <trkpt lat="42.89131" lon="1.45219">
        <ele>1469.4</ele>
        <time>2015-10-31T12:21:54.960Z</time>
      </trkpt>
      <trkpt lat="42.89133" lon="1.45218">
        <ele>1468.5</ele>
        <time>2015-10-31T12:21:55.888Z</time>
      </trkpt>
      <trkpt lat="42.89141" lon="1.45219">
        <ele>1464.7</ele>
        <time>2015-10-31T12:21:59.912Z</time>
      </trkpt>
      <trkpt lat="42.89143" lon="1.45219">
        <ele>1463.9</ele>
        <time>2015-10-31T12:22:00.887Z</time>
      </trkpt>
      <trkpt lat="42.8915" lon="1.4522">
        <ele>1461.6</ele>
        <time>2015-10-31T12:22:03.927Z</time>
      </trkpt>
      <trkpt lat="42.89152" lon="1.45219">
        <ele>1460.9</ele>
        <time>2015-10-31T12:22:04.887Z</time>
      </trkpt>
      <trkpt lat="42.89159" lon="1.45215">
        <ele>1457.7</ele>
        <time>2015-10-31T12:22:08.926Z</time>
      </trkpt>
      <trkpt lat="42.89161" lon="1.45214">
        <ele>1457</ele>
        <time>2015-10-31T12:22:09.887Z</time>
      </trkpt>
      <trkpt lat="42.89167" lon="1.45209">
        <ele>1455.9</ele>
        <time>2015-10-31T12:22:12.911Z</time>
      </trkpt>
      <trkpt lat="42.8917" lon="1.45207">
        <ele>1455.3</ele>
        <time>2015-10-31T12:22:13.889Z</time>
      </trkpt>
      <trkpt lat="42.89174" lon="1.45198">
        <ele>1453.6</ele>
        <time>2015-10-31T12:22:17.934Z</time>
      </trkpt>
      <trkpt lat="42.89175" lon="1.45196">
        <ele>1453.3</ele>
        <time>2015-10-31T12:22:18.887Z</time>
      </trkpt>
      <trkpt lat="42.89181" lon="1.45187">
        <ele>1452.7</ele>
        <time>2015-10-31T12:22:21.911Z</time>
      </trkpt>
      <trkpt lat="42.89183" lon="1.45184">
        <ele>1452.2</ele>
        <time>2015-10-31T12:22:22.887Z</time>
      </trkpt>
      <trkpt lat="42.89187" lon="1.45173">
        <ele>1451.5</ele>
        <time>2015-10-31T12:22:25.913Z</time>
      </trkpt>
      <trkpt lat="42.89189" lon="1.45171">
        <ele>1451.1</ele>
        <time>2015-10-31T12:22:26.887Z</time>
      </trkpt>
      <trkpt lat="42.89194" lon="1.45162">
        <ele>1450.1</ele>
        <time>2015-10-31T12:22:29.926Z</time>
      </trkpt>
      <trkpt lat="42.89194" lon="1.45158">
        <ele>1450</ele>
        <time>2015-10-31T12:22:30.886Z</time>
      </trkpt>
      <trkpt lat="42.892" lon="1.45152">
        <ele>1448.2</ele>
        <time>2015-10-31T12:22:33.912Z</time>
      </trkpt>
      <trkpt lat="42.89202" lon="1.45151">
        <ele>1447.3</ele>
        <time>2015-10-31T12:22:34.887Z</time>
      </trkpt>
      <trkpt lat="42.89208" lon="1.45145">
        <ele>1444.9</ele>
        <time>2015-10-31T12:22:37.913Z</time>
      </trkpt>
      <trkpt lat="42.8921" lon="1.45142">
        <ele>1444.2</ele>
        <time>2015-10-31T12:22:38.886Z</time>
      </trkpt>
      <trkpt lat="42.89216" lon="1.45136">
        <ele>1442</ele>
        <time>2015-10-31T12:22:42.911Z</time>
      </trkpt>
      <trkpt lat="42.89217" lon="1.45134">
        <ele>1441.2</ele>
        <time>2015-10-31T12:22:43.900Z</time>
      </trkpt>
      <trkpt lat="42.89225" lon="1.45129">
        <ele>1438.9</ele>
        <time>2015-10-31T12:22:47.911Z</time>
      </trkpt>
      <trkpt lat="42.89227" lon="1.45128">
        <ele>1438.3</ele>
        <time>2015-10-31T12:22:48.887Z</time>
      </trkpt>
      <trkpt lat="42.89235" lon="1.45124">
        <ele>1435.9</ele>
        <time>2015-10-31T12:22:52.910Z</time>
      </trkpt>
      <trkpt lat="42.89237" lon="1.45123">
        <ele>1435.3</ele>
        <time>2015-10-31T12:22:53.886Z</time>
      </trkpt>
      <trkpt lat="42.89245" lon="1.45117">
        <ele>1433.4</ele>
        <time>2015-10-31T12:22:57.911Z</time>
      </trkpt>
      <trkpt lat="42.89247" lon="1.45116">
        <ele>1432.9</ele>
        <time>2015-10-31T12:22:58.886Z</time>
      </trkpt>
      <trkpt lat="42.89253" lon="1.45112">
        <ele>1431.4</ele>
        <time>2015-10-31T12:23:01.913Z</time>
      </trkpt>
      <trkpt lat="42.89255" lon="1.4511">
        <ele>1430.9</ele>
        <time>2015-10-31T12:23:02.886Z</time>
      </trkpt>
      <trkpt lat="42.89261" lon="1.45104">
        <ele>1429.6</ele>
        <time>2015-10-31T12:23:05.911Z</time>
      </trkpt>
      <trkpt lat="42.89263" lon="1.45103">
        <ele>1429</ele>
        <time>2015-10-31T12:23:06.886Z</time>
      </trkpt>
      <trkpt lat="42.89268" lon="1.451">
        <ele>1427.9</ele>
        <time>2015-10-31T12:23:12.913Z</time>
      </trkpt>
      <trkpt lat="42.8927" lon="1.45102">
        <ele>1427.6</ele>
        <time>2015-10-31T12:23:13.888Z</time>
      </trkpt>
      <trkpt lat="42.8927" lon="1.45102">
        <ele>1427.6</ele>
        <time>2015-10-31T12:23:13.917Z</time>
      </trkpt>
      <trkpt lat="42.89272" lon="1.45104">
        <ele>1427.4</ele>
        <time>2015-10-31T12:23:14.886Z</time>
      </trkpt>
      <trkpt lat="42.89278" lon="1.45108">
        <ele>1426</ele>
        <time>2015-10-31T12:23:17.910Z</time>
      </trkpt>
      <trkpt lat="42.89281" lon="1.45107">
        <ele>1425.4</ele>
        <time>2015-10-31T12:23:18.886Z</time>
      </trkpt>
      <trkpt lat="42.89287" lon="1.45106">
        <ele>1424.3</ele>
        <time>2015-10-31T12:23:20.910Z</time>
      </trkpt>
      <trkpt lat="42.8929" lon="1.45106">
        <ele>1423.6</ele>
        <time>2015-10-31T12:23:21.886Z</time>
      </trkpt>
      <trkpt lat="42.89297" lon="1.45106">
        <ele>1422.3</ele>
        <time>2015-10-31T12:23:23.910Z</time>
      </trkpt>
      <trkpt lat="42.893" lon="1.45106">
        <ele>1421.7</ele>
        <time>2015-10-31T12:23:24.886Z</time>
      </trkpt>
      <trkpt lat="42.89308" lon="1.45105">
        <ele>1420.3</ele>
        <time>2015-10-31T12:23:26.932Z</time>
      </trkpt>
      <trkpt lat="42.89312" lon="1.45104">
        <ele>1419.2</ele>
        <time>2015-10-31T12:23:27.886Z</time>
      </trkpt>
      <trkpt lat="42.8932" lon="1.45102">
        <ele>1418</ele>
        <time>2015-10-31T12:23:29.910Z</time>
      </trkpt>
      <trkpt lat="42.89324" lon="1.45101">
        <ele>1417.4</ele>
        <time>2015-10-31T12:23:30.886Z</time>
      </trkpt>
      <trkpt lat="42.89332" lon="1.45098">
        <ele>1416.6</ele>
        <time>2015-10-31T12:23:32.911Z</time>
      </trkpt>
      <trkpt lat="42.89335" lon="1.45098">
        <ele>1416.3</ele>
        <time>2015-10-31T12:23:33.886Z</time>
      </trkpt>
      <trkpt lat="42.89343" lon="1.45096">
        <ele>1414.1</ele>
        <time>2015-10-31T12:23:35.926Z</time>
      </trkpt>
      <trkpt lat="42.89347" lon="1.45096">
        <ele>1413.1</ele>
        <time>2015-10-31T12:23:36.886Z</time>
      </trkpt>
      <trkpt lat="42.89353" lon="1.45095">
        <ele>1411.3</ele>
        <time>2015-10-31T12:23:38.911Z</time>
      </trkpt>
      <trkpt lat="42.89357" lon="1.45094">
        <ele>1410.9</ele>
        <time>2015-10-31T12:23:39.885Z</time>
      </trkpt>
      <trkpt lat="42.89364" lon="1.45092">
        <ele>1410.2</ele>
        <time>2015-10-31T12:23:41.912Z</time>
      </trkpt>
      <trkpt lat="42.89368" lon="1.45092">
        <ele>1409.1</ele>
        <time>2015-10-31T12:23:42.886Z</time>
      </trkpt>
      <trkpt lat="42.89375" lon="1.45092">
        <ele>1407.9</ele>
        <time>2015-10-31T12:23:44.911Z</time>
      </trkpt>
      <trkpt lat="42.89379" lon="1.45092">
        <ele>1407.3</ele>
        <time>2015-10-31T12:23:45.886Z</time>
      </trkpt>
      <trkpt lat="42.89387" lon="1.45092">
        <ele>1407</ele>
        <time>2015-10-31T12:23:47.911Z</time>
      </trkpt>
      <trkpt lat="42.89391" lon="1.45091">
        <ele>1406.7</ele>
        <time>2015-10-31T12:23:48.886Z</time>
      </trkpt>
      <trkpt lat="42.89398" lon="1.4509">
        <ele>1407.3</ele>
        <time>2015-10-31T12:23:50.911Z</time>
      </trkpt>
      <trkpt lat="42.89401" lon="1.4509">
        <ele>1407.4</ele>
        <time>2015-10-31T12:23:51.886Z</time>
      </trkpt>
      <trkpt lat="42.8941" lon="1.45089">
        <ele>1406.9</ele>
        <time>2015-10-31T12:23:54.911Z</time>
      </trkpt>
      <trkpt lat="42.89412" lon="1.45088">
        <ele>1406.8</ele>
        <time>2015-10-31T12:23:55.888Z</time>
      </trkpt>
      <trkpt lat="42.89421" lon="1.45089">
        <ele>1406</ele>
        <time>2015-10-31T12:23:59.911Z</time>
      </trkpt>
      <trkpt lat="42.89422" lon="1.45089">
        <ele>1405.7</ele>
        <time>2015-10-31T12:24:00.886Z</time>
      </trkpt>
      <trkpt lat="42.8943" lon="1.45087">
        <ele>1403.8</ele>
        <time>2015-10-31T12:24:06.911Z</time>
      </trkpt>
      <trkpt lat="42.89432" lon="1.45087">
        <ele>1403</ele>
        <time>2015-10-31T12:24:07.888Z</time>
      </trkpt>
      <trkpt lat="42.8944" lon="1.45087">
        <ele>1402.8</ele>
        <time>2015-10-31T12:24:12.914Z</time>
      </trkpt>
      <trkpt lat="42.89441" lon="1.45087">
        <ele>1402.8</ele>
        <time>2015-10-31T12:24:13.888Z</time>
      </trkpt>
      <trkpt lat="42.89449" lon="1.45088">
        <ele>1403.1</ele>
        <time>2015-10-31T12:24:18.911Z</time>
      </trkpt>
      <trkpt lat="42.8945" lon="1.45088">
        <ele>1403</ele>
        <time>2015-10-31T12:24:19.888Z</time>
      </trkpt>
      <trkpt lat="42.89459" lon="1.4509">
        <ele>1400.6</ele>
        <time>2015-10-31T12:24:25.913Z</time>
      </trkpt>
      <trkpt lat="42.8946" lon="1.45091">
        <ele>1400.3</ele>
        <time>2015-10-31T12:24:26.886Z</time>
      </trkpt>
      <trkpt lat="42.89468" lon="1.45094">
        <ele>1398.1</ele>
        <time>2015-10-31T12:24:32.911Z</time>
      </trkpt>
      <trkpt lat="42.8947" lon="1.45094">
        <ele>1397.8</ele>
        <time>2015-10-31T12:24:33.885Z</time>
      </trkpt>
      <trkpt lat="42.89477" lon="1.45091">
        <ele>1395.5</ele>
        <time>2015-10-31T12:24:39.911Z</time>
      </trkpt>
      <trkpt lat="42.89479" lon="1.45092">
        <ele>1394.9</ele>
        <time>2015-10-31T12:24:40.886Z</time>
      </trkpt>
      <trkpt lat="42.89487" lon="1.45093">
        <ele>1392.1</ele>
        <time>2015-10-31T12:24:46.911Z</time>
      </trkpt>
      <trkpt lat="42.89489" lon="1.45092">
        <ele>1391.3</ele>
        <time>2015-10-31T12:24:47.886Z</time>
      </trkpt>
      <trkpt lat="42.89497" lon="1.45097">
        <ele>1388.1</ele>
        <time>2015-10-31T12:24:53.910Z</time>
      </trkpt>
      <trkpt lat="42.89498" lon="1.45098">
        <ele>1387.9</ele>
        <time>2015-10-31T12:24:54.886Z</time>
      </trkpt>
      <trkpt lat="42.89504" lon="1.45107">
        <ele>1383.4</ele>
        <time>2015-10-31T12:25:03.911Z</time>
      </trkpt>
      <trkpt lat="42.89505" lon="1.45108">
        <ele>1382.8</ele>
        <time>2015-10-31T12:25:04.886Z</time>
      </trkpt>
      <trkpt lat="42.89513" lon="1.45109">
        <ele>1380.7</ele>
        <time>2015-10-31T12:25:08.911Z</time>
      </trkpt>
      <trkpt lat="42.89515" lon="1.45109">
        <ele>1380.2</ele>
        <time>2015-10-31T12:25:09.886Z</time>
      </trkpt>
      <trkpt lat="42.89523" lon="1.45112">
        <ele>1377.8</ele>
        <time>2015-10-31T12:25:15.972Z</time>
      </trkpt>
      <trkpt lat="42.89524" lon="1.45113">
        <ele>1377.5</ele>
        <time>2015-10-31T12:25:16.886Z</time>
      </trkpt>
      <trkpt lat="42.89529" lon="1.45122">
        <ele>1374.5</ele>
        <time>2015-10-31T12:25:23.910Z</time>
      </trkpt>
      <trkpt lat="42.8953" lon="1.45124">
        <ele>1374</ele>
        <time>2015-10-31T12:25:24.886Z</time>
      </trkpt>
      <trkpt lat="42.8953" lon="1.45135">
        <ele>1371.6</ele>
        <time>2015-10-31T12:25:28.910Z</time>
      </trkpt>
      <trkpt lat="42.8953" lon="1.45138">
        <ele>1371</ele>
        <time>2015-10-31T12:25:29.886Z</time>
      </trkpt>
      <trkpt lat="42.89535" lon="1.45148">
        <ele>1367.6</ele>
        <time>2015-10-31T12:25:34.910Z</time>
      </trkpt>
      <trkpt lat="42.89536" lon="1.45151">
        <ele>1366.9</ele>
        <time>2015-10-31T12:25:35.886Z</time>
      </trkpt>
      <trkpt lat="42.89541" lon="1.4516">
        <ele>1364.5</ele>
        <time>2015-10-31T12:25:38.911Z</time>
      </trkpt>
      <trkpt lat="42.89542" lon="1.45162">
        <ele>1363.7</ele>
        <time>2015-10-31T12:25:39.885Z</time>
      </trkpt>
      <trkpt lat="42.89545" lon="1.45171">
        <ele>1361.5</ele>
        <time>2015-10-31T12:25:43.031Z</time>
      </trkpt>
      <trkpt lat="42.89547" lon="1.45173">
        <ele>1360.4</ele>
        <time>2015-10-31T12:25:43.888Z</time>
      </trkpt>
      <trkpt lat="42.89554" lon="1.45177">
        <ele>1358.3</ele>
        <time>2015-10-31T12:25:46.911Z</time>
      </trkpt>
      <trkpt lat="42.89555" lon="1.45178">
        <ele>1357.3</ele>
        <time>2015-10-31T12:25:47.886Z</time>
      </trkpt>
      <trkpt lat="42.89562" lon="1.45183">
        <ele>1353.6</ele>
        <time>2015-10-31T12:25:50.926Z</time>
      </trkpt>
      <trkpt lat="42.89564" lon="1.45185">
        <ele>1352.4</ele>
        <time>2015-10-31T12:25:51.886Z</time>
      </trkpt>
      <trkpt lat="42.89571" lon="1.45186">
        <ele>1349.7</ele>
        <time>2015-10-31T12:25:54.911Z</time>
      </trkpt>
      <trkpt lat="42.89573" lon="1.45186">
        <ele>1349</ele>
        <time>2015-10-31T12:25:55.888Z</time>
      </trkpt>
      <trkpt lat="42.89575" lon="1.45197">
        <ele>1344.9</ele>
        <time>2015-10-31T12:26:00.911Z</time>
      </trkpt>
      <trkpt lat="42.89577" lon="1.452">
        <ele>1343.9</ele>
        <time>2015-10-31T12:26:01.893Z</time>
      </trkpt>
      <trkpt lat="42.89583" lon="1.45204">
        <ele>1341.4</ele>
        <time>2015-10-31T12:26:04.925Z</time>
      </trkpt>
      <trkpt lat="42.89585" lon="1.45206">
        <ele>1340.7</ele>
        <time>2015-10-31T12:26:05.886Z</time>
      </trkpt>
      <trkpt lat="42.89591" lon="1.45213">
        <ele>1337.6</ele>
        <time>2015-10-31T12:26:09.910Z</time>
      </trkpt>
      <trkpt lat="42.89593" lon="1.45214">
        <ele>1337</ele>
        <time>2015-10-31T12:26:10.900Z</time>
      </trkpt>
      <trkpt lat="42.89599" lon="1.45222">
        <ele>1333.7</ele>
        <time>2015-10-31T12:26:14.911Z</time>
      </trkpt>
      <trkpt lat="42.89601" lon="1.45224">
        <ele>1332.7</ele>
        <time>2015-10-31T12:26:15.885Z</time>
      </trkpt>
      <trkpt lat="42.89608" lon="1.4523">
        <ele>1329.8</ele>
        <time>2015-10-31T12:26:19.913Z</time>
      </trkpt>
      <trkpt lat="42.89608" lon="1.45232">
        <ele>1329.2</ele>
        <time>2015-10-31T12:26:20.886Z</time>
      </trkpt>
      <trkpt lat="42.89615" lon="1.45238">
        <ele>1326.2</ele>
        <time>2015-10-31T12:26:24.911Z</time>
      </trkpt>
      <trkpt lat="42.89617" lon="1.45239">
        <ele>1325.4</ele>
        <time>2015-10-31T12:26:25.888Z</time>
      </trkpt>
      <trkpt lat="42.89622" lon="1.45248">
        <ele>1321.5</ele>
        <time>2015-10-31T12:26:30.910Z</time>
      </trkpt>
      <trkpt lat="42.89623" lon="1.45249">
        <ele>1320.8</ele>
        <time>2015-10-31T12:26:31.888Z</time>
      </trkpt>
      <trkpt lat="42.89623" lon="1.45249">
        <ele>1320.8</ele>
        <time>2015-10-31T12:26:31.918Z</time>
      </trkpt>
      <trkpt lat="42.89623" lon="1.45249">
        <ele>1321.2</ele>
        <time>2015-10-31T12:26:51.910Z</time>
      </trkpt>
      <trkpt lat="42.89623" lon="1.45248">
        <ele>1322.3</ele>
        <time>2015-10-31T12:26:52.886Z</time>
      </trkpt>
      <trkpt lat="42.89624" lon="1.45259">
        <ele>1321.6</ele>
        <time>2015-10-31T12:26:58.910Z</time>
      </trkpt>
      <trkpt lat="42.89625" lon="1.45262">
        <ele>1321.5</ele>
        <time>2015-10-31T12:26:59.886Z</time>
      </trkpt>
      <trkpt lat="42.8963" lon="1.45268">
        <ele>1321.2</ele>
        <time>2015-10-31T12:27:02.911Z</time>
      </trkpt>
      <trkpt lat="42.89632" lon="1.45269">
        <ele>1321.1</ele>
        <time>2015-10-31T12:27:03.886Z</time>
      </trkpt>
      <trkpt lat="42.89633" lon="1.45271">
        <ele>1321</ele>
        <time>2015-10-31T12:27:04.911Z</time>
      </trkpt>
      <trkpt lat="42.89634" lon="1.45271">
        <ele>1320.9</ele>
        <time>2015-10-31T12:27:05.886Z</time>
      </trkpt>
      <trkpt lat="42.89639" lon="1.45271">
        <ele>1318.9</ele>
        <time>2015-10-31T12:27:25.913Z</time>
      </trkpt>
      <trkpt lat="42.89641" lon="1.45272">
        <ele>1318.3</ele>
        <time>2015-10-31T12:27:26.886Z</time>
      </trkpt>
      <trkpt lat="42.89643" lon="1.45281">
        <ele>1317.6</ele>
        <time>2015-10-31T12:27:29.911Z</time>
      </trkpt>
      <trkpt lat="42.89644" lon="1.45285">
        <ele>1317.4</ele>
        <time>2015-10-31T12:27:30.887Z</time>
      </trkpt>
      <trkpt lat="42.89648" lon="1.45294">
        <ele>1316.3</ele>
        <time>2015-10-31T12:27:33.911Z</time>
      </trkpt>
      <trkpt lat="42.89649" lon="1.45297">
        <ele>1315.6</ele>
        <time>2015-10-31T12:27:34.900Z</time>
      </trkpt>
      <trkpt lat="42.89654" lon="1.45305">
        <ele>1314.4</ele>
        <time>2015-10-31T12:27:37.912Z</time>
      </trkpt>
      <trkpt lat="42.89656" lon="1.45307">
        <ele>1314</ele>
        <time>2015-10-31T12:27:38.886Z</time>
      </trkpt>
      <trkpt lat="42.89658" lon="1.45318">
        <ele>1309.4</ele>
        <time>2015-10-31T12:27:42.910Z</time>
      </trkpt>
      <trkpt lat="42.89659" lon="1.45321">
        <ele>1308.6</ele>
        <time>2015-10-31T12:27:43.888Z</time>
      </trkpt>
      <trkpt lat="42.8966" lon="1.45333">
        <ele>1303.8</ele>
        <time>2015-10-31T12:27:47.911Z</time>
      </trkpt>
      <trkpt lat="42.89661" lon="1.45335">
        <ele>1302.8</ele>
        <time>2015-10-31T12:27:48.886Z</time>
      </trkpt>
      <trkpt lat="42.89662" lon="1.45347">
        <ele>1299.4</ele>
        <time>2015-10-31T12:27:52.912Z</time>
      </trkpt>
      <trkpt lat="42.89661" lon="1.4535">
        <ele>1298.3</ele>
        <time>2015-10-31T12:27:53.886Z</time>
      </trkpt>
      <trkpt lat="42.8966" lon="1.4536">
        <ele>1295.9</ele>
        <time>2015-10-31T12:27:56.911Z</time>
      </trkpt>
      <trkpt lat="42.8966" lon="1.45363">
        <ele>1295</ele>
        <time>2015-10-31T12:27:57.886Z</time>
      </trkpt>
      <trkpt lat="42.89659" lon="1.45371">
        <ele>1293.2</ele>
        <time>2015-10-31T12:27:59.910Z</time>
      </trkpt>
      <trkpt lat="42.8966" lon="1.45376">
        <ele>1292.3</ele>
        <time>2015-10-31T12:28:00.886Z</time>
      </trkpt>
      <trkpt lat="42.89665" lon="1.45386">
        <ele>1289.2</ele>
        <time>2015-10-31T12:28:03.911Z</time>
      </trkpt>
      <trkpt lat="42.89665" lon="1.45389">
        <ele>1288.5</ele>
        <time>2015-10-31T12:28:04.886Z</time>
      </trkpt>
      <trkpt lat="42.89672" lon="1.45395">
        <ele>1281.2</ele>
        <time>2015-10-31T12:28:13.913Z</time>
      </trkpt>
      <trkpt lat="42.89674" lon="1.45393">
        <ele>1280.5</ele>
        <time>2015-10-31T12:28:14.886Z</time>
      </trkpt>
      <trkpt lat="42.89682" lon="1.45389">
        <ele>1278.5</ele>
        <time>2015-10-31T12:28:19.912Z</time>
      </trkpt>
      <trkpt lat="42.89684" lon="1.45388">
        <ele>1278.1</ele>
        <time>2015-10-31T12:28:20.886Z</time>
      </trkpt>
      <trkpt lat="42.89691" lon="1.45387">
        <ele>1276.4</ele>
        <time>2015-10-31T12:28:24.911Z</time>
      </trkpt>
      <trkpt lat="42.89693" lon="1.45387">
        <ele>1276.1</ele>
        <time>2015-10-31T12:28:25.888Z</time>
      </trkpt>
      <trkpt lat="42.89701" lon="1.45386">
        <ele>1274.5</ele>
        <time>2015-10-31T12:28:30.912Z</time>
      </trkpt>
      <trkpt lat="42.89702" lon="1.45384">
        <ele>1274.4</ele>
        <time>2015-10-31T12:28:31.889Z</time>
      </trkpt>
      <trkpt lat="42.89709" lon="1.45377">
        <ele>1272.7</ele>
        <time>2015-10-31T12:28:37.913Z</time>
      </trkpt>
      <trkpt lat="42.8971" lon="1.45376">
        <ele>1272.5</ele>
        <time>2015-10-31T12:28:38.882Z</time>
      </trkpt>
      <trkpt lat="42.89717" lon="1.4537">
        <ele>1271.5</ele>
        <time>2015-10-31T12:28:43.912Z</time>
      </trkpt>
      <trkpt lat="42.89719" lon="1.45369">
        <ele>1271.2</ele>
        <time>2015-10-31T12:28:44.886Z</time>
      </trkpt>
      <trkpt lat="42.89726" lon="1.45366">
        <ele>1270</ele>
        <time>2015-10-31T12:28:49.912Z</time>
      </trkpt>
      <trkpt lat="42.89728" lon="1.45365">
        <ele>1269.8</ele>
        <time>2015-10-31T12:28:50.886Z</time>
      </trkpt>
      <trkpt lat="42.89734" lon="1.45362">
        <ele>1269.3</ele>
        <time>2015-10-31T12:28:53.910Z</time>
      </trkpt>
      <trkpt lat="42.89737" lon="1.45361">
        <ele>1269.2</ele>
        <time>2015-10-31T12:28:54.886Z</time>
      </trkpt>
      <trkpt lat="42.89743" lon="1.45357">
        <ele>1268.7</ele>
        <time>2015-10-31T12:28:56.910Z</time>
      </trkpt>
      <trkpt lat="42.89745" lon="1.45355">
        <ele>1268.5</ele>
        <time>2015-10-31T12:28:57.929Z</time>
      </trkpt>
      <trkpt lat="42.89751" lon="1.45351">
        <ele>1268.2</ele>
        <time>2015-10-31T12:28:59.911Z</time>
      </trkpt>
      <trkpt lat="42.89754" lon="1.45348">
        <ele>1268</ele>
        <time>2015-10-31T12:29:00.886Z</time>
      </trkpt>
      <trkpt lat="42.8976" lon="1.45341">
        <ele>1267.2</ele>
        <time>2015-10-31T12:29:02.911Z</time>
      </trkpt>
      <trkpt lat="42.89763" lon="1.45338">
        <ele>1266.7</ele>
        <time>2015-10-31T12:29:03.886Z</time>
      </trkpt>
      <trkpt lat="42.89769" lon="1.45332">
        <ele>1265.8</ele>
        <time>2015-10-31T12:29:05.911Z</time>
      </trkpt>
      <trkpt lat="42.89772" lon="1.4533">
        <ele>1265.1</ele>
        <time>2015-10-31T12:29:06.886Z</time>
      </trkpt>
      <trkpt lat="42.89778" lon="1.45326">
        <ele>1263.8</ele>
        <time>2015-10-31T12:29:08.911Z</time>
      </trkpt>
      <trkpt lat="42.89781" lon="1.45324">
        <ele>1263.3</ele>
        <time>2015-10-31T12:29:09.899Z</time>
      </trkpt>
      <trkpt lat="42.89788" lon="1.45321">
        <ele>1261.7</ele>
        <time>2015-10-31T12:29:11.911Z</time>
      </trkpt>
      <trkpt lat="42.89792" lon="1.4532">
        <ele>1261.1</ele>
        <time>2015-10-31T12:29:12.889Z</time>
      </trkpt>
      <trkpt lat="42.89798" lon="1.45316">
        <ele>1259.9</ele>
        <time>2015-10-31T12:29:14.924Z</time>
      </trkpt>
      <trkpt lat="42.89801" lon="1.45315">
        <ele>1258.9</ele>
        <time>2015-10-31T12:29:15.886Z</time>
      </trkpt>
      <trkpt lat="42.89808" lon="1.45311">
        <ele>1256.9</ele>
        <time>2015-10-31T12:29:17.911Z</time>
      </trkpt>
      <trkpt lat="42.89811" lon="1.45309">
        <ele>1255.8</ele>
        <time>2015-10-31T12:29:18.886Z</time>
      </trkpt>
      <trkpt lat="42.89818" lon="1.45306">
        <ele>1254.1</ele>
        <time>2015-10-31T12:29:20.911Z</time>
      </trkpt>
      <trkpt lat="42.89821" lon="1.45304">
        <ele>1253.6</ele>
        <time>2015-10-31T12:29:21.886Z</time>
      </trkpt>
      <trkpt lat="42.89829" lon="1.45299">
        <ele>1252.1</ele>
        <time>2015-10-31T12:29:23.934Z</time>
      </trkpt>
      <trkpt lat="42.89833" lon="1.45296">
        <ele>1251.6</ele>
        <time>2015-10-31T12:29:24.886Z</time>
      </trkpt>
      <trkpt lat="42.8984" lon="1.45291">
        <ele>1250.8</ele>
        <time>2015-10-31T12:29:26.911Z</time>
      </trkpt>
      <trkpt lat="42.89843" lon="1.45288">
        <ele>1250.4</ele>
        <time>2015-10-31T12:29:27.886Z</time>
      </trkpt>
      <trkpt lat="42.8985" lon="1.45283">
        <ele>1249.9</ele>
        <time>2015-10-31T12:29:29.911Z</time>
      </trkpt>
      <trkpt lat="42.89853" lon="1.45281">
        <ele>1249.4</ele>
        <time>2015-10-31T12:29:30.886Z</time>
      </trkpt>
      <trkpt lat="42.89861" lon="1.45279">
        <ele>1248.7</ele>
        <time>2015-10-31T12:29:32.911Z</time>
      </trkpt>
      <trkpt lat="42.89865" lon="1.45275">
        <ele>1247.9</ele>
        <time>2015-10-31T12:29:33.886Z</time>
      </trkpt>
      <trkpt lat="42.89871" lon="1.4527">
        <ele>1247.1</ele>
        <time>2015-10-31T12:29:35.940Z</time>
      </trkpt>
      <trkpt lat="42.89875" lon="1.45267">
        <ele>1246.8</ele>
        <time>2015-10-31T12:29:36.886Z</time>
      </trkpt>
      <trkpt lat="42.89883" lon="1.45262">
        <ele>1245.6</ele>
        <time>2015-10-31T12:29:38.917Z</time>
      </trkpt>
      <trkpt lat="42.89887" lon="1.4526">
        <ele>1245.3</ele>
        <time>2015-10-31T12:29:39.886Z</time>
      </trkpt>
      <trkpt lat="42.89894" lon="1.45258">
        <ele>1244.6</ele>
        <time>2015-10-31T12:29:41.910Z</time>
      </trkpt>
      <trkpt lat="42.89897" lon="1.45257">
        <ele>1244.2</ele>
        <time>2015-10-31T12:29:42.886Z</time>
      </trkpt>
      <trkpt lat="42.89904" lon="1.45256">
        <ele>1243.7</ele>
        <time>2015-10-31T12:29:44.911Z</time>
      </trkpt>
      <trkpt lat="42.89908" lon="1.45256">
        <ele>1243.5</ele>
        <time>2015-10-31T12:29:45.886Z</time>
      </trkpt>
      <trkpt lat="42.89915" lon="1.45256">
        <ele>1242.8</ele>
        <time>2015-10-31T12:29:47.911Z</time>
      </trkpt>
      <trkpt lat="42.89918" lon="1.45256">
        <ele>1242.7</ele>
        <time>2015-10-31T12:29:48.886Z</time>
      </trkpt>
      <trkpt lat="42.89924" lon="1.45257">
        <ele>1242.7</ele>
        <time>2015-10-31T12:29:51.910Z</time>
      </trkpt>
      <trkpt lat="42.89925" lon="1.45258">
        <ele>1243.1</ele>
        <time>2015-10-31T12:29:52.884Z</time>
      </trkpt>
      <trkpt lat="42.89925" lon="1.45258">
        <ele>1242.7</ele>
        <time>2015-10-31T12:30:10.826Z</time>
      </trkpt>
    </trkseg>
  </trk>
</gpx>